[[{"header":{"parameterUnit":"m.s-1","parameterCategory":1,"la1":31.0,"la2":29.5877,"lo1":-88.7671,"lo2":-86.6584,"dy":0.0162,"dx":0.0185,"nx":115,"ny":88,"refTime":"2026-03-25T00:00:00:Z","depth":0,"parameterNumber":2,"parameterNumberName":"U-component_of_WINDS"},"data":[0.0,0.0,0.0,0.0,0.0,0.0,0.0,0.0,0.0,0.0,0.0,0.0,0.0,0.0,0.0,0.0,0.0,0.0,0.0,0.0,0.0,0.0,0.0,0.0,0.0,0.0,0.0,0.0,0.0,0.0,0.0,0.0,0.0,0.0,0.0,0.0,0.0,0.0,0.0,0.0,0.0,0.0,0.0,0.0,0.0,0.0,0.0,0.0,0.0,0.0,0.0,0.0,0.0,0.0,0.0,0.0,0.0,0.0,0.0,0.0,0.0,0.0,0.0,0.0,0.0,0.0,0.0,0.0,0.0,0.0,0.0,0.0,0.0,0.0,0.0,0.0,0.0,0.0,0.0,0.0,0.0,0.0,0.0,0.0,0.0,0.0,0.0,0.0,0.0,0.0,0.0,0.0,0.0,0.0,0.0,0.0,0.0,0.0,0.0,0.0,0.0,0.0,0.0,0.0,0.0,0.0,0.0,0.0,0.0,0.0,0.0,0.0,0.0,0.0,0.0,0.0,0.0,0.0,0.0,0.0,0.0,0.0,0.0,0.0,0.0,0.0,0.0,0.0,0.0,0.0,0.0,0.0,0.0,0.0,0.0,0.0,0.0,0.0,0.0,0.0,0.0,0.0,0.0,0.0,0.0,0.0,0.0,0.0,0.0,0.0,0.0,0.0,0.0,0.0,0.0,0.0,0.0,0.0,0.0,0.0,0.0,0.0,0.0,0.0,0.0,0.0,0.0,0.0,0.0,0.0,0.0,0.0,0.0,0.0,0.0,0.0,0.0,0.0,0.0,0.0,0.0,0.0,0.0,0.0,0.0,0.0,0.0,0.0,0.0,0.0,0.0,0.0,0.0,0.0,0.0,0.0,0.0,0.0,0.0,0.0,0.0,0.0,0.0,0.0,0.0,0.0,0.0,0.0,0.0,0.0,0.0,0.0,0.0,0.0,0.0,0.0,0.0,0.0,0.0,0.0,0.0,0.0,0.0,0.0,0.0,0.0,0.0,0.0,0.0,0.0,0.0,0.0,0.0,0.0,0.0,0.0,0.0,0.0,0.0,0.0,0.0,0.0,0.0,0.0,0.0,0.0,0.0,0.0,0.0,0.0,0.0,0.0,0.0,0.0,0.0,0.0,0.0,0.0,0.0,0.0,0.0,0.0,0.0,0.0,0.0,0.0,0.0,0.0,0.0,0.0,0.0,0.0,0.0,0.0,0.0,0.0,0.0,0.0,0.0,0.0,0.0,0.0,0.0,0.0,0.0,0.0,0.0,0.0,0.0,0.0,0.0,0.0,0.0,0.0,0.0,0.0,0.0,0.0,0.0,0.0,0.0,0.0,0.0,0.0,0.0,0.0,0.0,0.0,0.0,0.0,0.0,0.0,0.0,0.0,0.0,0.0,0.0,0.0,0.0,0.0,0.0,0.0,0.0,0.0,0.0,0.0,0.0,0.0,0.0,0.0,0.0,0.0,0.0,0.0,0.0,0.0,0.0,0.0,0.0,0.0,0.0,0.0,0.0,0.0,0.0,0.0,0.0,0.0,0.0,0.0,0.0,0.0,0.0,0.0,0.0,0.0,0.0,0.0,0.0,0.0,0.0,0.0,0.0,0.0,0.0,0.0,0.0,0.0,0.0,0.0,0.0,0.0,0.0,0.0,0.0,0.0,0.0,0.0,0.0,0.0,0.0,0.0,0.0,0.0,0.0,0.0,0.0,0.0,0.0,0.0,0.0,0.0,0.0,0.0,0.0,0.0,0.0,0.0,0.0,0.0,0.0,0.0,0.0,0.0,0.0,0.0,0.0,0.0,0.0,0.0,0.0,0.0,0.0,0.0,0.0,0.0,0.0,0.0,0.0,0.0,0.0,0.0,0.0,0.0,0.0,0.0,0.0,0.0,0.0,0.0,0.0,0.0,0.0,0.0,0.0,0.0,0.0,0.0,0.0,0.0,0.0,0.0,0.0,0.0,0.0,0.0,0.0,0.0,0.0,0.0,0.0,0.0,0.0,0.0,0.0,0.0,0.0,0.0,0.0,0.0,0.0,0.0,0.0,0.0,0.0,0.0,0.0,0.0,0.0,0.0,0.0,0.0,0.0,0.0,0.0,0.0,0.0,0.0,0.0,0.0,0.0,0.0,0.0,0.0,0.0,0.0,0.0,0.0,0.0,0.0,0.0,0.0,0.0,0.0,0.0,0.0,0.0,0.0,0.0,0.0,0.0,0.0,0.0,0.0,0.0,0.0,0.0,0.0,0.0,0.0,0.0,0.0,0.0,0.0,0.0,0.0,0.0,0.0,0.0,0.0,0.0,0.0,0.0,0.0,0.0,0.0,0.0,0.0,0.0,0.0,0.0,0.0,0.0,0.0,0.0,0.0,0.0,0.0,0.0,0.0,0.0,0.0,0.0,0.0,0.0,0.0,0.0,0.0,0.0,0.0,0.0,0.0,0.0,0.0,0.0,0.0,0.0,0.0,0.0,0.0,0.0,0.0,0.0,0.0,0.0,0.0,0.0,0.0,0.0,0.0,0.0,0.0,0.0,0.0,0.0,0.0,0.0,0.0,0.0,0.0,0.0,0.0,0.0,0.0,0.0,0.0,0.0,0.0,0.0,0.0,0.0,0.0,0.0,0.0,0.0,0.0,0.0,0.0,0.0,0.0,0.0,0.0,0.0,0.0,0.0,0.0,0.0,0.0,0.0,0.0,0.0,0.0,0.0,0.0,0.0,0.0,0.0,0.0,0.0,0.0,0.0,0.0,0.0,0.0,0.0,0.0,0.0,0.0,0.0,0.0,0.0,0.0,0.0,0.0,0.0,0.0,0.0,0.0,0.0,0.0,0.0,0.0,0.0,0.0,0.0,0.0,0.0,0.0,0.0,0.0,0.0,0.0,0.0,0.0,0.0,0.0,0.0,0.0,0.0,0.0,0.0,0.0,0.0,0.0,0.0,0.0,0.0,0.0,0.0,0.0,0.0,0.0,0.0,0.0,0.0,0.0,0.0,0.0,0.0,0.0,0.0,0.0,0.0,0.0,0.0,0.0,0.0,0.0,0.0,0.0,0.0,0.0,0.0,0.0,0.0,0.0,0.0,0.0,0.0,0.0,0.0,0.0,0.0,0.0,0.0,0.0,0.0,0.0,0.0,0.0,0.0,0.0,0.0,0.0,0.0,0.0,0.0,0.0,0.0,0.0,0.0,0.0,0.0,0.0,0.0,0.0,0.0,0.0,0.0,0.0,0.0,0.0,0.0,0.0,0.0,0.0,0.0,0.0,0.0,0.0,0.0,0.0,0.0,0.0,0.0,0.0,0.0,0.0,0.0,0.0,0.0,0.0,0.0,0.0,0.0,0.0,0.0,0.0,0.0,0.0,0.0,0.0,0.0,0.0,0.0,0.0,0.0,0.0,0.0,0.0,0.0,0.0,0.0,0.0,0.0,0.0,0.0,0.0,0.0,0.0,0.0,0.0,0.0,0.0,0.0,0.0,0.0,0.0,0.0,0.0,0.0,0.0,0.0,0.0,0.0,0.0,0.0,0.0,0.0,0.0,0.0,0.0,0.0,0.0,0.0,0.0,0.0,0.0,0.0,0.0,0.0,0.0,0.0,0.0,0.0,0.0,0.0,0.0,0.0,0.0,0.0,0.0,0.0,0.0,0.0,0.0,0.0,0.0,0.0,0.0,0.0,0.0,0.0,0.0,0.0,0.0,0.0,0.0,0.0,0.0,0.0,0.0,0.0,0.0,0.0,0.0,0.0,0.0,0.0,0.0,0.0,0.0,0.0,0.0,0.0,0.0,0.0,0.0,0.0,0.0,0.0,0.0,0.0,0.0,0.0,0.0,0.0,0.0,0.0,0.0,0.0,0.0,0.0,0.0,0.0,0.0,0.0,0.0,0.0,0.0,0.0,0.0,0.0,0.0,0.0,0.0,0.0,0.0,0.0,0.0,0.0,0.0,0.0,0.0,0.0,0.0,0.0,0.0,0.0,0.0,0.0,0.0,0.0,0.0,0.0,0.0,0.0,0.0,0.0,0.0,0.0,0.0,0.0,0.0,0.0,0.0,0.0,0.0,0.0,0.0,0.0,0.0,0.0,0.0,0.0,0.0,0.0,0.0,0.0,0.0,0.0,0.0,0.0,0.0,0.0,0.0,0.0,0.0,0.0,0.0,0.0,0.0,0.0,0.0,0.0,0.0,0.0,0.0,0.0,0.0,0.0,0.0,0.0,0.0,0.0,0.0,0.0,0.0,0.0,0.0,0.0,0.0,0.0,0.0,0.0,0.0,2.1277,0.0,0.0,0.0,0.0,0.0,0.0,0.0,0.0,0.0,0.0,0.0,0.0,0.0,0.0,0.0,0.0,0.0,0.0,0.0,0.0,0.0,0.0,0.0,0.0,0.0,0.0,0.0,0.0,0.0,0.0,0.0,0.0,0.0,0.0,0.0,0.0,0.0,0.0,0.0,0.0,0.0,0.0,0.0,0.0,0.0,0.0,0.0,0.0,0.0,0.0,0.0,0.0,0.0,0.0,0.0,0.0,0.0,0.0,0.0,0.0,0.0,0.0,0.0,0.0,0.0,0.0,0.0,0.0,0.0,0.0,0.0,0.0,0.0,0.0,0.0,0.0,0.0,0.0,0.0,0.0,0.0,0.0,0.0,0.0,0.0,0.0,0.0,0.0,0.0,0.0,0.0,0.0,0.0,0.0,0.0,0.0,0.0,0.0,0.0,0.0,0.0,0.0,0.0,0.0,0.0,0.0,0.0,0.0,0.0,0.0,2.1397,2.1397,2.1397,2.125,2.0925,0.0,0.0,0.0,0.0,0.0,0.0,0.0,0.0,0.0,0.0,0.0,0.0,0.0,0.0,0.0,0.0,0.0,0.0,0.0,0.0,0.0,0.0,0.0,0.0,0.0,0.0,0.0,0.0,0.0,0.0,0.0,0.0,0.0,0.0,0.0,0.0,0.0,0.0,0.0,0.0,0.0,0.0,0.0,0.0,0.0,0.0,0.0,0.0,0.0,0.0,0.0,0.0,0.0,0.0,0.0,0.0,0.0,0.0,0.0,0.0,0.0,0.0,0.0,0.0,0.0,0.0,0.0,0.0,0.0,0.0,0.0,0.0,0.0,0.0,0.0,0.0,0.0,0.0,0.0,0.0,0.0,0.0,0.0,0.0,0.0,0.0,0.0,0.0,0.0,0.0,0.0,0.0,0.0,0.0,0.0,0.0,0.0,0.0,0.0,0.0,0.0,0.0,0.0,0.0,0.0,0.0,0.0,0.0,0.0,0.0,0.0,0.0,2.1696,2.1292,2.0703,0.0,0.0,0.0,0.0,0.0,0.0,0.0,0.0,0.0,0.0,0.0,0.0,0.0,0.0,0.0,0.0,0.0,0.0,0.0,0.0,0.0,0.0,0.0,0.0,0.0,0.0,0.0,0.0,0.0,0.0,0.0,0.0,0.0,0.0,0.0,0.0,0.0,0.0,0.0,0.0,0.0,0.0,0.0,0.0,0.0,0.0,0.0,0.0,0.0,0.0,0.0,0.0,0.0,0.0,0.0,0.0,0.0,0.0,0.0,0.0,0.0,0.0,0.0,0.0,0.0,0.0,0.0,0.0,0.0,0.0,0.0,0.0,0.0,0.0,0.0,0.0,0.0,0.0,0.0,0.0,0.0,0.0,0.0,0.0,0.0,0.0,0.0,0.0,0.0,0.0,0.0,0.0,0.0,0.0,0.0,0.0,0.0,0.0,0.0,0.0,0.0,0.0,0.0,0.0,0.0,0.0,0.0,0.0,0.0,0.0,2.247,2.3026,2.2509,0.0,2.1176,0.0,0.0,0.0,0.0,0.0,0.0,0.0,0.0,0.0,0.0,0.0,0.0,0.0,0.0,0.0,0.0,0.0,0.0,0.0,0.0,0.0,0.0,0.0,0.0,0.0,0.0,0.0,0.0,0.0,0.0,0.0,0.0,0.0,0.0,0.0,0.0,0.0,0.0,0.0,0.0,0.0,0.0,0.0,0.0,0.0,0.0,0.0,0.0,0.0,0.0,0.0,0.0,0.0,0.0,0.0,0.0,0.0,0.0,0.0,0.0,0.0,0.0,0.0,0.0,0.0,0.0,0.0,0.0,0.0,0.0,0.0,0.0,0.0,0.0,0.0,0.0,0.0,0.0,0.0,0.0,0.0,0.0,0.0,0.0,0.0,0.0,0.0,0.0,0.0,0.0,0.0,0.0,0.0,0.0,0.0,0.0,0.0,0.0,0.0,0.0,0.0,0.0,0.0,0.0,0.0,0.0,0.0,0.0,0.0,0.0,2.312,2.3716,2.2455,2.1556,0.0,0.0,0.0,0.0,0.0,0.0,0.0,0.0,0.0,0.0,0.0,0.0,0.0,0.0,0.0,0.0,0.0,0.0,0.0,0.0,0.0,0.0,0.0,0.0,0.0,0.0,0.0,0.0,0.0,0.0,0.0,0.0,0.0,0.0,0.0,0.0,0.0,0.0,0.0,0.0,0.0,0.0,0.0,0.0,0.0,0.0,0.0,0.0,0.0,0.0,0.0,0.0,0.0,0.0,0.0,0.0,0.0,0.0,0.0,0.0,0.0,0.0,0.0,0.0,0.0,0.0,0.0,0.0,0.0,0.0,0.0,0.0,0.0,0.0,0.0,0.0,0.0,0.0,0.0,0.0,0.0,0.0,0.0,0.0,0.0,0.0,0.0,0.0,0.0,0.0,0.0,0.0,0.0,0.0,0.0,0.0,0.0,0.0,0.0,0.0,0.0,0.0,0.0,0.0,0.0,0.0,0.0,0.0,0.0,0.0,2.2415,2.3174,2.3513,2.2184,2.1222,2.0818,0.0,0.0,0.0,0.0,0.0,0.0,0.0,0.0,0.0,0.0,0.0,0.0,0.0,0.0,0.0,0.0,0.0,0.0,0.0,0.0,0.0,0.0,0.0,0.0,0.0,0.0,0.0,0.0,0.0,0.0,0.0,0.0,0.0,0.0,0.0,0.0,0.0,0.0,0.0,0.0,0.0,0.0,0.0,0.0,0.0,0.0,0.0,0.0,0.0,0.0,0.0,0.0,0.0,0.0,0.0,0.0,0.0,0.0,0.0,0.0,0.0,0.0,0.0,0.0,0.0,0.0,0.0,0.0,0.0,0.0,0.0,0.0,0.0,0.0,0.0,0.0,0.0,0.0,0.0,0.0,0.0,0.0,0.0,0.0,0.0,0.0,0.0,0.0,0.0,0.0,0.0,0.0,0.0,0.0,0.0,0.0,0.0,0.0,0.0,0.0,0.0,0.0,0.0,0.0,0.0,0.0,0.0,0.0,0.0,2.2021,2.2359,2.2414,2.1738,2.0985,0.0,0.0,0.0,0.0,0.0,0.0,0.0,0.0,0.0,0.0,0.0,0.0,0.0,0.0,0.0,0.0,0.0,0.0,0.0,0.0,0.0,0.0,0.0,0.0,0.0,0.0,0.0,0.0,0.0,0.0,0.0,0.0,0.0,0.0,0.0,0.0,0.0,0.0,0.0,0.0,0.0,0.0,0.0,0.0,0.0,0.0,0.0,0.0,0.0,0.0,0.0,0.0,0.0,0.0,0.0,0.0,0.0,0.0,0.0,0.0,0.0,0.0,0.0,0.0,0.0,0.0,0.0,0.0,0.0,0.0,0.0,0.0,0.0,0.0,0.0,0.0,0.0,0.0,0.0,0.0,0.0,0.0,0.0,0.0,0.0,0.0,0.0,0.0,0.0,0.0,0.0,0.0,0.0,0.0,0.0,0.0,0.0,0.0,0.0,0.0,0.0,0.0,0.0,0.0,0.0,0.0,0.0,0.0,0.0,2.0378,2.1599,2.2305,2.2278,2.1331,2.0373,0.0,0.0,0.0,0.0,0.0,0.0,0.0,0.0,0.0,0.0,0.0,0.0,0.0,0.0,0.0,0.0,0.0,0.0,0.0,0.0,0.0,0.0,0.0,0.0,0.0,0.0,0.0,0.0,0.0,0.0,0.0,0.0,0.0,0.0,0.0,0.0,0.0,0.0,0.0,0.0,0.0,0.0,0.0,0.0,0.0,0.0,0.0,0.0,0.0,0.0,0.0,0.0,0.0,0.0,0.0,0.0,0.0,0.0,0.0,0.0,0.0,0.0,0.0,0.0,0.0,0.0,0.0,0.0,0.0,0.0,0.0,0.0,0.0,0.0,0.0,0.0,0.0,0.0,0.0,0.0,0.0,0.0,0.0,0.0,0.0,0.0,0.0,0.0,0.0,0.0,0.0,0.0,0.0,0.0,0.0,0.0,0.0,0.0,0.0,0.0,0.0,0.0,0.0,0.0,0.0,0.0,0.0,0.0,0.0,2.0595,0.0,2.2712,0.0,2.1343,2.0239,0.0,0.0,0.0,0.0,0.0,0.0,0.0,0.0,0.0,0.0,0.0,0.0,0.0,0.0,0.0,0.0,0.0,0.0,0.0,0.0,0.0,0.0,0.0,0.0,0.0,0.0,0.0,0.0,0.0,0.0,0.0,0.0,0.0,0.0,0.0,0.0,0.0,0.0,0.0,0.0,0.0,0.0,0.0,0.0,0.0,0.0,0.0,0.0,0.0,0.0,0.0,0.0,0.0,0.0,0.0,0.0,0.0,0.0,0.0,0.0,0.0,0.0,0.0,0.0,0.0,0.0,0.0,0.0,0.0,0.0,0.0,0.0,0.0,0.0,0.0,0.0,0.0,0.0,0.0,0.0,0.0,0.0,0.0,0.0,0.0,0.0,0.0,0.0,0.0,0.0,0.0,0.0,0.0,0.0,0.0,0.0,0.0,0.0,0.0,0.0,0.0,0.0,0.0,0.0,0.0,0.0,0.0,0.0,2.1696,2.2278,2.3431,2.3486,2.2332,2.1696,2.0642,0.0,0.0,0.0,0.0,0.0,0.0,0.0,0.0,0.0,0.0,0.0,0.0,0.0,0.0,0.0,0.0,0.0,0.0,0.0,0.0,0.0,0.0,0.0,0.0,0.0,0.0,0.0,0.0,0.0,0.0,0.0,0.0,0.0,0.0,0.0,0.0,0.0,0.0,0.0,0.0,0.0,0.0,0.0,0.0,0.0,0.0,0.0,0.0,0.0,0.0,0.0,0.0,0.0,0.0,0.0,0.0,0.0,0.0,0.0,0.0,0.0,0.0,0.0,0.0,0.0,0.0,0.0,0.0,0.0,0.0,0.0,0.0,0.0,0.0,0.0,0.0,0.0,0.0,0.0,0.0,0.0,0.0,0.0,0.0,0.0,0.0,0.0,0.0,0.0,0.0,0.0,0.0,0.0,0.0,0.0,0.0,0.0,0.0,0.0,0.0,0.0,0.0,0.0,0.0,0.0,0.0,0.0,0.0,0.0,2.2332,2.3472,2.3527,2.2359,2.1723,2.0642,0.0,0.0,0.0,0.0,0.0,0.0,0.0,0.0,0.0,0.0,0.0,0.0,0.0,0.0,0.0,0.0,0.0,0.0,0.0,0.0,0.0,0.0,0.0,0.0,0.0,0.0,0.0,0.0,0.0,0.0,0.0,0.0,0.0,0.0,0.0,0.0,0.0,0.0,0.0,0.0,0.0,0.0,0.0,0.0,0.0,0.0,0.0,0.0,0.0,0.0,0.0,0.0,0.0,0.0,0.0,0.0,0.0,0.0,0.0,0.0,0.0,0.0,0.0,0.0,0.0,0.0,0.0,0.0,0.0,0.0,0.0,0.0,0.0,0.0,0.0,0.0,0.0,0.0,0.0,0.0,0.0,0.0,0.0,0.0,0.0,0.0,0.0,0.0,0.0,0.0,0.0,0.0,0.0,0.0,0.0,0.0,0.0,0.0,0.0,0.0,0.0,0.0,0.0,0.0,0.0,0.0,0.0,0.0,0.0,2.567,2.6387,2.5981,2.4326,2.373,2.2319,2.0054,0.0,0.0,0.0,0.0,0.0,0.0,0.0,0.0,0.0,0.0,0.0,0.0,0.0,0.0,0.0,0.0,0.0,0.0,0.0,0.0,0.0,0.0,0.0,0.0,0.0,0.0,0.0,0.0,0.0,0.0,0.0,0.0,0.0,0.0,0.0,0.0,0.0,0.0,0.0,0.0,0.0,0.0,0.0,0.0,0.0,0.0,0.0,0.0,0.0,0.0,0.0,0.0,0.0,0.0,0.0,0.0,0.0,0.0,0.0,0.0,0.0,0.0,0.0,0.0,0.0,0.0,0.0,0.0,0.0,0.0,0.0,0.0,0.0,0.0,0.0,0.0,0.0,0.0,0.0,0.0,0.0,0.0,0.0,0.0,0.0,0.0,0.0,0.0,0.0,0.0,0.0,0.0,0.0,0.0,0.0,0.0,0.0,0.0,0.0,0.0,0.0,0.0,0.0,0.0,0.0,0.0,0.0,0.0,3.1477,3.1748,3.0635,2.8085,2.7375,2.5381,0.0,0.0,0.0,0.0,0.0,0.0,0.0,0.0,0.0,0.0,0.0,0.0,0.0,0.0,0.0,0.0,0.0,0.0,0.0,0.0,0.0,0.0,0.0,0.0,0.0,0.0,0.0,0.0,0.0,0.0,0.0,0.0,0.0,0.0,0.0,0.0,0.0,0.0,0.0,0.0,0.0,0.0,0.0,0.0,0.0,0.0,0.0,0.0,0.0,0.0,0.0,0.0,0.0,0.0,0.0,0.0,0.0,0.0,0.0,0.0,0.0,0.0,0.0,0.0,0.0,0.0,0.0,0.0,0.0,0.0,0.0,0.0,0.0,0.0,0.0,0.0,0.0,0.0,0.0,0.0,0.0,0.0,0.0,0.0,0.0,0.0,0.0,0.0,0.0,0.0,0.0,0.0,0.0,0.0,0.0,0.0,0.0,0.0,0.0,0.0,0.0,0.0,0.0,0.0,0.0,0.0,0.0,0.0,0.0,3.4461,3.7175,3.6334,3.1875,3.0514,2.8093,0.0,0.0,0.0,0.0,0.0,0.0,0.0,0.0,0.0,0.0,0.0,0.0,0.0,0.0,0.0,0.0,0.0,0.0,0.0,0.0,0.0,0.0,0.0,0.0,0.0,0.0,0.0,0.0,0.0,0.0,0.0,0.0,0.0,0.0,0.0,0.0,0.0,0.0,0.0,0.0,0.0,0.0,0.0,0.0,0.0,0.0,0.0,0.0,0.0,0.0,0.0,0.0,0.0,0.0,0.0,0.0,0.0,0.0,0.0,0.0,0.0,0.0,0.0,0.0,0.0,0.0,0.0,0.0,0.0,0.0,0.0,0.0,0.0,0.0,0.0,0.0,0.0,0.0,0.0,0.0,0.0,0.0,0.0,0.0,0.0,0.0,0.0,0.0,0.0,0.0,0.0,0.0,0.0,0.0,0.0,0.0,0.0,0.0,0.0,0.0,0.0,0.0,0.0,0.0,0.0,0.0,0.0,0.0,3.2662,3.6774,4.124,4.1352,3.6805,3.4193,3.0726,0.0,0.0,0.0,0.0,0.0,0.0,0.0,0.0,0.0,0.0,0.0,0.0,0.0,0.0,0.0,0.0,0.0,0.0,0.0,0.0,0.0,0.0,0.0,0.0,0.0,0.0,0.0,0.0,0.0,0.0,0.0,0.0,0.0,0.0,0.0,0.0,0.0,0.0,0.0,0.0,0.0,0.0,0.0,0.0,0.0,0.0,0.0,0.0,0.0,0.0,0.0,0.0,0.0,0.0,0.0,0.0,0.0,0.0,0.0,0.0,0.0,0.0,0.0,0.0,0.0,0.0,0.0,0.0,0.0,0.0,0.0,0.0,0.0,0.0,0.0,0.0,0.0,0.0,0.0,0.0,0.0,0.0,0.0,0.0,0.0,0.0,0.0,0.0,0.0,0.0,0.0,0.0,0.0,0.0,0.0,0.0,0.0,0.0,0.0,0.0,0.0,0.0,0.0,0.0,0.0,0.0,0.0,0.0,3.4489,3.8646,4.4064,4.5282,4.1928,3.8041,3.3414,0.0,0.0,0.0,0.0,0.0,0.0,0.0,0.0,0.0,0.0,0.0,0.0,0.0,0.0,0.0,0.0,0.0,0.0,0.0,0.0,0.0,0.0,0.0,0.0,0.0,0.0,0.0,0.0,0.0,0.0,0.0,0.0,0.0,0.0,0.0,0.0,0.0,0.0,0.0,0.0,0.0,0.0,0.0,0.0,0.0,0.0,0.0,0.0,0.0,0.0,0.0,0.0,0.0,0.0,0.0,0.0,0.0,0.0,0.0,0.0,0.0,0.0,0.0,0.0,0.0,0.0,0.0,0.0,0.0,0.0,0.0,0.0,0.0,0.0,0.0,0.0,0.0,0.0,0.0,0.0,0.0,0.0,0.0,0.0,0.0,0.0,0.0,0.0,0.0,0.0,0.0,0.0,0.0,0.0,0.0,0.0,0.0,0.0,0.0,0.0,0.0,0.0,0.0,0.0,0.0,0.0,0.0,0.0,3.6286,4.0463,4.4711,4.5902,4.3779,4.1152,3.692,0.0,0.0,0.0,0.0,0.0,0.0,0.0,0.0,0.0,0.0,0.0,0.0,0.0,0.0,0.0,0.0,0.0,0.0,0.0,0.0,0.0,0.0,0.0,0.0,0.0,0.0,0.0,0.0,0.0,0.0,0.0,0.0,0.0,0.0,0.0,0.0,0.0,0.0,0.0,0.0,0.0,0.0,0.0,0.0,0.0,0.0,0.0,0.0,2.2197,0.0,0.0,0.0,0.0,0.0,0.0,0.0,0.0,0.0,0.0,0.0,0.0,0.0,0.0,0.0,0.0,0.0,0.0,0.0,0.0,0.0,0.0,0.0,0.0,0.0,0.0,0.0,0.0,0.0,0.0,0.0,0.0,0.0,0.0,0.0,0.0,0.0,0.0,0.0,0.0,0.0,0.0,0.0,0.0,0.0,0.0,0.0,0.0,0.0,0.0,0.0,0.0,0.0,0.0,0.0,0.0,0.0,0.0,0.0,3.8585,4.2331,4.6249,4.7153,4.4811,4.3152,3.915,0.0,0.0,0.0,0.0,0.0,0.0,0.0,0.0,0.0,0.0,0.0,0.0,0.0,0.0,0.0,0.0,0.0,0.0,0.0,0.0,0.0,0.0,0.0,0.0,0.0,0.0,0.0,0.0,0.0,0.0,0.0,0.0,0.0,0.0,0.0,0.0,0.0,0.0,0.0,0.0,0.0,0.0,0.0,0.0,0.0,0.0,0.0,0.0,0.0,0.0,0.0,0.0,0.0,0.0,0.0,0.0,0.0,0.0,0.0,0.0,0.0,0.0,0.0,0.0,0.0,0.0,0.0,0.0,0.0,0.0,0.0,0.0,0.0,0.0,0.0,0.0,0.0,0.0,0.0,0.0,0.0,0.0,0.0,0.0,0.0,0.0,0.0,0.0,0.0,0.0,0.0,0.0,0.0,0.0,0.0,0.0,0.0,0.0,0.0,0.0,0.0,0.0,0.0,0.0,0.0,0.0,0.0,3.6288,4.0645,4.3783,4.7721,4.8258,4.5178,4.413,4.0202,3.3012,0.0,0.0,0.0,0.0,0.0,0.0,0.0,0.0,0.0,0.0,0.0,0.0,0.0,0.0,0.0,0.0,0.0,0.0,0.0,0.0,0.0,0.0,0.0,0.0,0.0,0.0,0.0,0.0,0.0,0.0,0.0,0.0,0.0,0.0,0.0,0.0,0.0,0.0,1.984,2.2022,0.0,0.0,0.0,0.0,0.0,0.0,0.0,0.0,2.3725,0.0,0.0,0.0,0.0,0.0,0.0,0.0,0.0,0.0,0.0,0.0,0.0,0.0,0.0,0.0,0.0,0.0,0.0,0.0,0.0,0.0,0.0,0.0,0.0,0.0,0.0,0.0,0.0,0.0,0.0,0.0,0.0,0.0,0.0,0.0,0.0,0.0,0.0,0.0,0.0,0.0,0.0,0.0,0.0,0.0,0.0,0.0,0.0,0.0,0.0,0.0,0.0,0.0,0.0,0.0,0.0,3.2043,3.7558,4.1504,4.3793,4.734,4.7719,4.4556,4.3055,3.9121,3.244,0.0,0.0,0.0,0.0,0.0,0.0,0.0,0.0,0.0,0.0,0.0,0.0,0.0,0.0,0.0,0.0,0.0,0.0,0.0,0.0,0.0,0.0,0.0,0.0,0.0,0.0,0.0,0.0,0.0,0.0,0.0,0.0,0.0,0.0,0.0,0.0,0.0,0.0,0.0,2.4489,2.5514,0.0,0.0,0.0,0.0,0.0,0.0,0.0,0.0,2.4792,0.0,0.0,0.0,0.0,0.0,0.0,0.0,0.0,0.0,0.0,0.0,0.0,0.0,0.0,0.0,0.0,0.0,0.0,0.0,0.0,0.0,0.0,0.0,0.0,0.0,0.0,0.0,0.0,0.0,0.0,0.0,0.0,0.0,0.0,0.0,0.0,0.0,0.0,0.0,0.0,0.0,0.0,0.0,0.0,0.0,0.0,0.0,0.0,0.0,0.0,0.0,0.0,0.0,0.0,0.0,3.3794,3.9591,4.3452,4.5183,4.7889,4.763,4.4194,4.1668,3.7513,0.0,0.0,0.0,0.0,0.0,0.0,0.0,0.0,0.0,0.0,0.0,0.0,0.0,0.0,0.0,0.0,0.0,0.0,0.0,0.0,0.0,0.0,0.0,0.0,0.0,0.0,0.0,0.0,0.0,0.0,0.0,0.0,0.0,0.0,0.0,0.0,0.0,0.0,0.0,0.0,2.6431,2.7588,2.6147,0.0,0.0,0.0,0.0,0.0,0.0,2.6321,2.5711,0.0,0.0,0.0,0.0,0.0,0.0,0.0,0.0,0.0,0.0,0.0,0.0,0.0,0.0,0.0,0.0,0.0,0.0,0.0,0.0,0.0,0.0,0.0,0.0,0.0,0.0,0.0,0.0,0.0,0.0,0.0,0.0,0.0,0.0,0.0,0.0,0.0,0.0,0.0,0.0,0.0,0.0,0.0,0.0,0.0,0.0,0.0,0.0,0.0,0.0,0.0,0.0,0.0,0.0,0.0,3.5107,4.1214,4.5023,4.6323,4.8272,4.7488,4.3701,4.0466,3.6138,0.0,0.0,0.0,0.0,0.0,0.0,0.0,0.0,0.0,0.0,0.0,0.0,0.0,0.0,0.0,0.0,0.0,0.0,0.0,0.0,0.0,0.0,0.0,0.0,0.0,0.0,0.0,0.0,0.0,0.0,0.0,0.0,0.0,0.0,0.0,0.0,0.0,0.0,0.0,0.0,0.0,2.9423,2.8091,2.8047,0.0,0.0,0.0,0.0,2.7719,2.7915,0.0,0.0,0.0,0.0,0.0,0.0,0.0,0.0,0.0,0.0,0.0,0.0,0.0,0.0,0.0,0.0,0.0,0.0,0.0,0.0,0.0,0.0,0.0,0.0,0.0,0.0,0.0,0.0,0.0,0.0,0.0,0.0,0.0,0.0,0.0,0.0,0.0,0.0,0.0,0.0,0.0,0.0,0.0,0.0,0.0,0.0,0.0,0.0,0.0,0.0,0.0,0.0,0.0,0.0,0.0,0.0,3.5293,4.1227,4.4756,4.5747,4.7731,4.6769,4.2627,4.0005,3.569,0.0,0.0,0.0,0.0,0.0,0.0,0.0,0.0,0.0,0.0,0.0,0.0,0.0,0.0,0.0,0.0,0.0,0.0,0.0,0.0,0.0,0.0,0.0,0.0,0.0,0.0,0.0,0.0,0.0,0.0,0.0,0.0,0.0,0.0,0.0,0.0,0.0,0.0,0.0,0.0,0.0,3.0993,2.9989,3.0603,3.0927,0.0,0.0,3.069,3.0971,3.108,0.0,0.0,0.0,0.0,0.0,0.0,0.0,0.0,0.0,0.0,0.0,0.0,0.0,0.0,0.0,0.0,0.0,0.0,0.0,0.0,0.0,0.0,0.0,0.0,0.0,0.0,0.0,0.0,0.0,0.0,0.0,0.0,0.0,0.0,0.0,0.0,0.0,0.0,0.0,0.0,0.0,0.0,0.0,0.0,0.0,0.0,0.0,0.0,0.0,0.0,0.0,0.0,0.0,0.0,0.0,3.1691,3.6279,4.2418,4.5852,4.6576,4.8108,4.7333,4.3969,4.0491,3.5936,0.0,0.0,0.0,0.0,0.0,0.0,0.0,0.0,0.0,0.0,0.0,0.0,0.0,0.0,0.0,0.0,0.0,0.0,0.0,0.0,0.0,0.0,0.0,0.0,0.0,0.0,0.0,0.0,0.0,0.0,0.0,0.0,0.0,0.0,0.0,0.0,0.0,0.0,0.0,0.0,0.0,0.0,3.2263,3.2831,0.0,0.0,0.0,3.3197,3.3967,0.0,0.0,0.0,0.0,0.0,0.0,0.0,0.0,0.0,0.0,0.0,0.0,0.0,0.0,0.0,0.0,0.0,0.0,0.0,0.0,0.0,0.0,0.0,0.0,0.0,0.0,0.0,0.0,0.0,0.0,0.0,0.0,0.0,0.0,0.0,0.0,0.0,0.0,0.0,0.0,0.0,0.0,0.0,0.0,0.0,0.0,0.0,0.0,0.0,0.0,0.0,0.0,0.0,0.0,0.0,0.0,0.0,3.722,4.3337,4.6813,4.7516,4.8669,4.7997,4.5288,4.142,0.0,0.0,0.0,0.0,0.0,0.0,0.0,0.0,0.0,0.0,0.0,0.0,0.0,0.0,0.0,0.0,0.0,0.0,0.0,0.0,0.0,0.0,0.0,0.0,0.0,0.0,0.0,1.4822,0.0,0.0,0.0,0.0,0.0,0.0,0.0,0.0,0.0,0.0,0.0,0.0,0.0,0.0,3.3792,3.43,3.5168,3.578,0.0,0.0,3.5823,3.6442,3.7199,3.6479,0.0,0.0,0.0,0.0,0.0,0.0,0.0,0.0,0.0,0.0,0.0,0.0,0.0,0.0,0.0,0.0,0.0,0.0,0.0,0.0,0.0,0.0,0.0,0.0,0.0,0.0,0.0,0.0,0.0,0.0,0.0,0.0,0.0,0.0,0.0,0.0,0.0,0.0,0.0,0.0,0.0,0.0,0.0,0.0,0.0,0.0,0.0,0.0,0.0,0.0,0.0,0.0,0.0,0.0,0.0,3.7821,4.3546,4.705,4.812,4.9244,4.8455,4.5654,4.2924,3.8578,0.0,0.0,0.0,0.0,0.0,0.0,0.0,0.0,0.0,0.0,0.0,0.0,0.0,0.0,0.0,0.0,0.0,0.0,0.0,0.0,0.0,0.0,0.0,0.0,0.0,0.0,0.0,0.0,0.0,0.0,0.0,0.0,0.0,0.0,0.0,0.0,0.0,0.0,0.0,0.0,0.0,3.5249,3.5787,3.7798,3.8782,0.0,0.0,3.837,3.8029,3.837,3.754,3.4207,0.0,0.0,0.0,0.0,0.0,0.0,0.0,0.0,0.0,0.0,0.0,0.0,0.0,0.0,0.0,0.0,0.0,0.0,0.0,0.0,0.0,0.0,0.0,0.0,0.0,0.0,0.0,0.0,0.0,0.0,0.0,0.0,0.0,0.0,0.0,0.0,0.0,0.0,0.0,0.0,0.0,0.0,0.0,0.0,0.0,0.0,0.0,0.0,0.0,0.0,0.0,0.0,0.0,3.3221,3.837,4.4408,4.794,4.8747,4.9845,4.9573,4.7726,4.429,3.9855,0.0,0.0,0.0,0.0,0.0,0.0,0.0,0.0,0.0,0.0,0.0,0.0,0.0,0.0,0.0,0.0,0.0,0.0,0.0,0.0,0.0,0.0,0.0,0.0,0.0,0.0,0.0,0.0,1.6841,1.6877,1.7248,0.0,0.0,0.0,0.0,0.0,0.0,0.0,0.0,0.0,0.0,3.7178,3.8838,4.0367,0.0,0.0,4.1459,4.1459,4.1262,4.0629,3.9034,3.5699,3.2092,0.0,0.0,0.0,0.0,0.0,0.0,0.0,0.0,0.0,0.0,0.0,0.0,0.0,0.0,0.0,0.0,0.0,0.0,0.0,0.0,0.0,0.0,0.0,0.0,0.0,0.0,0.0,0.0,0.0,0.0,0.0,0.0,0.0,0.0,0.0,0.0,0.0,0.0,0.0,0.0,0.0,0.0,0.0,0.0,0.0,0.0,0.0,0.0,0.0,0.0,0.0,0.0,3.3613,3.8922,4.5062,4.8567,4.9352,5.0446,5.0374,4.8979,4.5358,4.1066,0.0,0.0,0.0,0.0,0.0,0.0,0.0,0.0,0.0,0.0,0.0,0.0,0.0,0.0,0.0,0.0,0.0,0.0,0.0,0.0,0.0,0.0,0.0,0.0,0.0,0.0,0.0,0.0,1.7809,1.7533,1.7095,0.0,0.0,0.0,0.0,0.0,0.0,0.0,0.0,0.0,0.0,3.8248,4.0651,4.218,4.3206,4.3635,4.3547,4.3219,4.2651,4.1306,3.9362,3.6464,0.0,0.0,0.0,0.0,0.0,0.0,0.0,0.0,0.0,0.0,0.0,0.0,0.0,0.0,0.0,0.0,0.0,0.0,0.0,0.0,0.0,0.0,0.0,0.0,0.0,0.0,0.0,2.0412,0.0,0.0,2.0403,0.0,0.0,0.0,0.0,0.0,0.0,0.0,0.0,0.0,0.0,0.0,0.0,0.0,0.0,0.0,0.0,0.0,0.0,0.0,0.0,0.0,0.0,3.3822,3.9523,4.5272,4.8721,4.9845,5.0995,5.0768,4.903,4.6075,4.2212,3.745,0.0,0.0,0.0,0.0,0.0,0.0,0.0,0.0,0.0,0.0,0.0,0.0,0.0,0.0,0.0,0.0,0.0,0.0,0.0,0.0,0.0,0.0,0.0,0.0,0.0,0.0,1.9185,1.8938,1.8086,0.0,0.0,0.0,0.0,0.0,0.0,0.0,0.0,0.0,0.0,3.4928,3.8279,4.0694,4.3032,4.4211,4.3381,4.3635,4.3263,4.1437,3.9832,3.8204,0.0,0.0,0.0,0.0,0.0,0.0,0.0,0.0,0.0,0.0,0.0,0.0,0.0,0.0,0.0,0.0,0.0,0.0,0.0,0.0,0.0,0.0,0.0,0.0,0.0,0.0,0.0,2.6965,2.6257,0.0,0.0,0.0,0.0,0.0,0.0,0.0,0.0,0.0,0.0,0.0,3.4197,3.3968,0.0,0.0,0.0,0.0,0.0,0.0,0.0,0.0,0.0,0.0,0.0,0.0,3.3822,3.9573,4.5271,4.8777,4.9871,5.0995,5.0919,4.9517,4.6273,4.092,3.3353,0.0,0.0,0.0,0.0,0.0,0.0,0.0,0.0,0.0,0.0,0.0,0.0,0.0,0.0,0.0,0.0,0.0,0.0,0.0,0.0,0.0,0.0,0.0,0.0,0.0,1.9625,0.0,0.0,0.0,0.0,0.0,0.0,0.0,0.0,0.0,0.0,0.0,2.8265,3.2114,3.5393,3.8519,4.1524,4.3695,4.5063,0.0,0.0,0.0,0.0,0.0,0.0,0.0,0.0,0.0,0.0,0.0,0.0,0.0,0.0,3.1881,3.0828,2.9712,2.878,2.8447,0.0,0.0,0.0,0.0,0.0,0.0,0.0,0.0,0.0,0.0,0.0,0.0,0.0,0.0,3.1876,0.0,2.9163,0.0,0.0,0.0,0.0,0.0,0.0,0.0,0.0,3.779,3.9196,3.9433,3.9282,3.933,0.0,3.9068,3.607,0.0,0.0,0.0,0.0,0.0,0.0,0.0,0.0,3.4528,3.9862,4.5558,4.8897,4.9746,5.0835,5.0741,4.9216,4.5353,3.9773,3.2385,2.9532,2.6409,0.0,0.0,0.0,0.0,0.0,0.0,0.0,0.0,0.0,0.0,0.0,0.0,0.0,0.0,0.0,0.0,0.0,0.0,0.0,0.0,0.0,0.0,0.0,2.1096,0.0,0.0,0.0,0.0,0.0,0.0,0.0,0.0,0.0,2.5775,2.7937,3.0709,3.3928,3.6552,3.9263,4.2267,0.0,0.0,0.0,0.0,0.0,0.0,0.0,3.8859,3.9493,3.8146,3.7074,3.7318,3.6971,3.6489,3.6009,0.0,0.0,3.4871,3.3681,3.2836,3.2484,3.2276,3.2199,3.2278,3.2844,3.3608,0.0,0.0,0.0,0.0,0.0,0.0,0.0,0.0,3.6892,3.5768,0.0,3.3107,0.0,0.0,0.0,0.0,0.0,3.1743,0.0,0.0,4.1889,4.3868,4.4572,4.4151,4.399,4.399,4.3912,4.2657,4.015,3.4319,0.0,0.0,0.0,0.0,0.0,0.0,3.5861,4.0437,4.6133,4.9199,4.9438,5.0488,5.0085,4.8001,4.3442,3.9039,3.4809,3.2324,2.9487,2.619,2.3744,0.0,0.0,0.0,0.0,0.0,0.0,0.0,0.0,0.0,0.0,0.0,0.0,0.0,0.0,0.0,0.0,0.0,0.0,0.0,0.0,2.263,0.0,0.0,0.0,0.0,0.0,0.0,0.0,0.0,0.0,0.0,2.986,3.1393,3.3551,3.6369,0.0,0.0,0.0,0.0,4.6002,4.6068,4.6046,4.5565,4.4225,4.2398,4.1481,4.2407,0.0,0.0,4.0033,3.9988,3.9944,4.0086,4.0098,3.9651,3.7476,3.7102,3.6978,3.6405,3.6495,3.6714,3.6476,3.7027,3.7961,4.5722,0.0,0.0,0.0,0.0,4.1555,4.3187,4.4387,4.3925,4.3094,4.1986,3.9692,0.0,0.0,0.0,0.0,0.0,0.0,3.9568,4.2658,4.5023,4.6249,4.6512,4.6384,4.6342,4.6316,4.5924,4.4983,4.3467,4.0486,3.6044,3.0354,0.0,0.0,0.0,0.0,3.6436,4.1038,4.6342,4.9199,4.9407,4.9779,4.8365,4.514,4.3152,4.0675,3.7689,3.5249,3.259,2.9576,2.6846,0.0,0.0,0.0,0.0,0.0,0.0,0.0,0.0,0.0,0.0,0.0,0.0,0.0,0.0,0.0,0.0,0.0,0.0,0.0,2.534,2.6846,2.6867,0.0,0.0,0.0,0.0,0.0,0.0,0.0,0.0,0.0,3.5867,3.543,3.5787,0.0,0.0,4.1099,4.3796,4.5238,4.6243,4.6963,4.7073,0.0,4.6024,4.4888,4.4409,4.5397,4.498,4.4089,4.2778,4.2322,4.1805,4.0998,4.1078,4.1064,4.0476,3.9662,3.908,3.8903,3.8936,3.8991,3.8918,3.9377,3.9887,5.3929,4.885,4.7004,4.6234,4.6419,4.8358,4.9989,5.1212,5.0513,4.9618,4.853,4.6243,4.3838,4.1431,3.9811,0.0,0.0,0.0,4.452,4.6627,4.8269,4.9022,4.9041,4.8802,4.8695,4.8669,4.812,4.726,4.6135,4.5089,4.1873,3.6571,0.0,0.0,3.2861,3.5239,3.8478,4.2631,4.71,4.9477,4.9559,4.8864,4.692,4.3742,4.2887,4.1313,3.8881,3.7046,3.4818,3.2154,2.9489,2.6605,0.0,0.0,0.0,0.0,0.0,0.0,0.0,0.0,0.0,0.0,0.0,1.6593,1.7999,0.0,0.0,0.0,2.2936,2.5667,2.8746,3.0166,0.0,0.0,0.0,0.0,0.0,0.0,0.0,3.3661,3.5605,3.7649,3.9897,3.993,3.9908,4.0476,4.1699,4.325,4.5172,0.0,4.7378,4.7968,4.8208,4.8165,4.7662,4.7078,4.6893,4.7322,4.6721,4.577,4.4395,4.3488,4.2574,4.176,4.1652,4.1833,4.1815,4.1217,4.0772,4.0835,4.0974,4.1084,4.1084,4.1415,4.1739,6.024,5.8731,5.4391,5.2452,5.2452,5.4306,5.5845,5.7032,5.63,5.5149,5.3696,5.2276,4.996,4.6987,4.5507,0.0,4.6343,4.8103,4.9333,5.0266,5.1369,5.1775,5.1675,5.1119,5.0843,5.0707,5.0106,4.93,4.8227,4.8041,4.671,4.4017,3.8161,3.5966,3.7429,3.9079,4.1559,4.4799,4.8224,4.9866,4.9594,4.78,4.5689,4.3247,4.2572,4.121,3.8969,3.7986,3.6464,3.4119,3.176,2.9181,2.6387,0.0,0.0,0.0,0.0,0.0,0.0,0.0,0.0,0.0,0.0,0.0,0.0,0.0,0.0,0.0,2.6627,0.0,3.1778,3.2918,0.0,0.0,0.0,3.0168,3.1931,3.3393,3.519,3.7448,0.0,0.0,4.2464,4.4298,4.5041,4.3831,4.5172,4.6483,4.6969,4.823,4.9082,4.917,4.9563,4.9654,4.9279,4.9086,4.8846,4.8334,4.7222,4.6001,4.4869,4.3701,4.2685,4.1878,4.1894,4.1859,4.1877,4.1753,4.1933,4.2,4.2426,4.277,4.2777,4.2971,4.3253,6.2122,6.1722,6.0614,5.9008,5.7192,5.8146,5.907,5.9722,5.8848,5.8237,5.7734,5.551,5.3146,5.082,4.9942,5.0024,5.083,5.1266,5.1694,5.2068,5.2299,5.2176,5.1675,5.1487,5.0943,5.0106,4.9561,4.8904,4.8175,4.731,4.658,4.5795,4.3441,4.1795,4.1035,4.2238,4.3938,4.6055,4.9035,4.9726,4.802,4.7012,4.5121,4.2136,4.1913,4.1078,3.9481,3.8794,3.7724,3.6063,3.4054,3.1804,2.9314,2.6562,0.0,0.0,0.0,0.0,0.0,0.0,0.0,0.0,0.0,2.0965,2.311,0.0,2.4749,0.0,2.9947,3.2879,3.4781,3.6457,0.0,0.0,3.5787,3.5677,3.6449,3.7855,3.91,4.0039,4.1864,4.3425,4.4495,4.6002,4.7116,4.7488,4.823,4.906,4.9912,5.0284,5.0699,5.1026,5.1419,5.1638,5.1094,5.0824,5.0117,4.9026,4.7978,4.6568,4.4163,4.3221,4.2326,4.1218,4.0946,4.0946,4.0946,4.0946,4.094,4.1037,4.1655,4.2335,4.2755,4.2917,4.3079,6.3749,6.3722,6.3555,6.2637,6.1256,6.1046,6.1059,6.1233,6.0707,6.0396,6.0172,5.8354,5.6865,5.5688,5.5029,5.4815,5.4959,5.4672,5.4301,5.3865,5.3286,5.2688,5.2105,5.175,5.0995,4.9871,4.9061,4.8381,4.7806,4.7179,4.697,4.726,4.71,4.6552,4.5664,4.5246,4.603,4.7989,4.9781,4.978,4.7953,4.6845,4.499,4.2293,4.1595,4.0639,3.9274,3.8741,3.7942,3.6719,3.5037,3.3224,3.1258,2.8417,2.5426,0.0,0.0,0.0,0.0,0.0,0.0,0.0,0.0,0.0,0.0,0.0,2.8855,3.0752,3.3399,3.5808,3.7732,3.9432,4.0354,4.0072,3.9876,3.9724,3.9788,4.0899,4.174,4.202,4.3544,4.4882,4.5637,4.7147,4.8334,4.8874,4.9521,5.0225,5.0922,5.1245,5.1507,5.1769,5.2009,5.2097,5.1834,5.1223,5.0422,4.9166,4.7727,4.5944,4.3533,4.2326,4.1336,4.0203,3.9947,3.9947,3.9947,3.9947,3.9947,4.0038,4.0538,4.1353,4.2254,4.2613,4.2945,6.486,6.4805,6.4524,6.4354,6.4209,6.3022,6.2397,6.2174,6.2119,6.1893,6.1526,6.0706,6.0206,5.9882,5.9287,5.8545,5.7766,5.7068,5.6108,5.4983,5.388,5.3082,5.2523,5.2066,5.1204,4.9976,4.8852,4.7989,4.7411,4.7359,4.762,4.8358,4.9404,4.9923,4.9923,4.8044,4.807,5.008,5.0477,5.0014,4.864,4.7173,4.5273,4.3038,4.1613,4.0248,3.8881,3.8348,3.7702,3.6806,3.5452,3.4098,3.27,3.0054,2.75,0.0,2.4224,0.0,0.0,0.0,0.0,0.0,0.0,0.0,0.0,3.1979,3.3066,3.479,3.6719,3.8575,4.0323,4.1813,4.2691,4.272,4.2742,4.2634,4.2358,4.3037,4.3604,4.3583,4.4831,4.583,4.6379,4.7913,4.9017,4.9165,4.9804,5.0481,5.0956,5.1362,5.1643,5.1749,5.1771,5.1667,5.1497,5.0844,4.9934,4.876,4.7034,4.4889,4.2712,4.1381,4.0158,3.9217,3.8942,3.8942,3.8942,3.8942,3.8942,3.8942,3.937,4.0192,4.1444,4.2164,4.2784,6.4749,6.4496,6.441,6.4101,6.3651,6.3409,6.3401,6.357,6.3316,6.2732,6.1967,6.179,6.0723,5.8984,5.8614,5.7416,5.5573,5.474,5.3837,5.2858,5.2803,5.2558,5.2235,5.2806,5.2197,5.0629,4.9453,4.8616,4.8015,4.7516,4.7856,4.8934,4.9557,5.0132,5.0577,0.0,0.0,0.0,5.1111,5.0461,4.9328,4.8058,4.6196,4.372,4.2337,0.0,3.8913,3.8326,3.7833,3.7295,3.6289,0.0,0.0,0.0,0.0,0.0,0.0,0.0,0.0,0.0,0.0,0.0,3.4775,3.4928,3.3988,3.5343,3.661,3.7396,3.9187,4.065,4.1442,4.284,4.3751,4.3809,4.3826,4.3901,4.4161,4.4708,4.5065,4.5086,4.6,4.6808,4.7257,4.8317,4.9125,4.9445,5.006,5.0421,5.0526,5.0948,5.135,5.1665,5.1455,5.1097,5.0696,5.0146,4.9103,4.7644,4.6366,4.4347,4.1599,4.0459,3.9474,3.83,3.7993,3.7993,3.7993,3.7993,3.8023,3.7993,3.8362,3.9142,4.0538,4.1218,4.182,6.4552,0.0,6.4104,6.3764,0.0,6.3367,6.3395,6.3508,6.3367,6.3043,6.2599,6.2241,6.0939,5.8916,5.7582,5.5674,5.3401,5.1792,5.093,5.0787,5.1113,5.1448,5.1898,5.2889,5.2616,5.1152,4.9766,4.896,4.8616,4.8041,4.8329,4.9479,5.0315,5.089,5.1178,5.1204,5.1309,5.1596,5.1094,5.0493,4.9765,4.809,4.6196,4.4156,4.2434,0.0,0.0,0.0,0.0,0.0,0.0,0.0,0.0,0.0,0.0,3.1764,3.1826,3.1826,3.1647,3.3153,3.5059,3.7199,3.8903,3.9253,3.7802,3.8866,3.9769,4.0256,4.1658,4.2755,4.3249,4.4214,4.4798,4.4863,4.5055,4.5194,4.5257,4.603,4.6365,4.6051,4.6701,4.7309,4.7309,4.8126,4.8756,4.9028,4.9491,4.9849,5.0061,5.0675,5.1139,5.1097,5.0718,5.0231,4.9764,4.8846,4.788,4.6409,4.4832,4.2925,4.0577,3.9565,3.8804,3.7901,3.7671,3.7671,3.7671,3.7671,3.7671,3.7717,3.8086,3.8591,3.9416,4.0236,4.1046,6.43,6.4186,6.3708,6.3481,6.3424,6.3194,6.3108,6.3108,0.0,0.0,0.0,6.2396,6.0954,5.8912,5.6628,5.4216,5.1679,4.9474,4.8726,4.9309,4.9936,5.076,5.1805,5.3086,5.3086,5.1884,5.0394,4.9614,4.9374,4.8907,4.9113,5.0054,5.11,5.1596,5.1596,5.1596,5.1648,5.1722,5.1077,5.0487,4.995,4.7953,4.6082,4.4482,4.2538,4.0968,3.9885,3.9253,3.8741,3.8379,3.8261,3.7876,3.7112,3.6814,3.6311,3.5627,3.5976,3.6304,3.6449,3.7593,3.8859,4.0149,4.1835,4.2401,4.1346,4.1769,4.2218,4.262,4.3632,4.4406,4.4777,4.5276,4.561,4.5616,4.601,4.6202,4.6016,4.6947,4.7341,4.6782,4.7237,4.7589,4.7361,4.7941,4.8417,4.8563,4.8916,4.923,4.9699,5.0337,5.0485,4.9785,4.9188,4.8781,4.7986,4.6927,4.5817,4.4567,4.2854,4.1165,3.9777,3.8804,3.8178,3.7809,3.7671,3.7671,3.7671,3.7671,3.7671,3.7717,3.7993,3.8286,3.8348,3.9241,4.0217,6.3908,6.3594,6.3538,6.3367,6.3165,6.3108,6.3108,6.3108,6.3108,6.2934,6.2644,6.2262,6.0559,5.7917,5.6307,5.406,5.1341,4.9725,4.9147,4.9511,5.0756,5.1701,5.2433,5.4079,5.4262,5.3138,5.238,5.1518,5.0629,5.0472,5.0524,5.0734,5.1282,5.1622,5.1596,5.1596,5.1858,5.2354,5.1479,5.0556,4.9579,4.8251,4.6599,4.4661,4.3104,4.1843,4.0815,3.9984,3.9437,3.9372,3.8947,3.8632,3.8522,3.8891,3.9197,3.9503,3.993,4.0541,4.1273,4.1612,4.2021,4.2751,4.3814,4.3848,4.246,4.2797,4.3092,4.3224,4.4151,4.476,4.4883,4.5335,4.5702,4.574,4.6057,4.6431,4.6762,4.7361,4.7672,4.7506,4.7589,4.7858,4.8086,4.8293,4.8604,4.8894,4.9039,4.923,4.9572,4.9785,4.9146,4.7773,4.6975,4.6017,4.4851,4.3745,4.2899,4.1419,4.0759,3.9731,3.8437,3.804,3.7809,3.7717,3.7671,3.7671,3.7671,3.7671,3.7671,3.7717,3.7809,3.7809,3.7871,3.8521,3.9284,6.4166,6.4082,6.4239,6.4243,6.4126,6.4126,6.4126,6.4126,6.4126,6.3444,6.2322,6.1791,6.0057,5.7441,5.542,5.3257,5.0961,4.9353,4.8995,4.9793,5.1004,5.2093,5.306,5.4445,5.4837,5.4288,5.3713,5.3138,5.2668,5.2354,5.2197,5.2223,5.2459,5.2563,5.2589,5.2563,5.2694,5.2955,5.1839,5.0888,5.0098,4.8809,4.7139,4.5131,4.3816,4.2715,4.1798,4.1087,4.064,4.0377,4.0367,4.0257,4.0028,4.0694,4.1197,4.1437,4.2136,4.2748,4.3184,4.3236,4.3515,4.4078,4.4534,4.4661,4.4246,4.4395,4.4548,4.4555,4.5055,4.5323,4.5357,4.5924,4.6383,4.6409,4.703,4.7527,4.7755,4.8169,4.8334,4.8148,4.8335,4.8417,4.8376,4.8625,4.8853,4.9081,4.9102,4.9144,4.9315,4.8887,4.8136,4.6777,4.5905,4.4675,4.2962,4.2039,4.1183,4.026,3.9503,3.8759,3.7855,3.7671,3.7671,3.7671,3.7671,3.7671,3.7671,3.7671,3.7671,3.7671,3.7671,3.7671,3.7796,3.8258,3.9052,6.4387,6.4418,6.4843,6.4994,6.4994,6.4994,6.4994,6.4994,6.4994,6.3981,6.2349,6.1602,5.9938,5.7581,5.5217,5.3182,5.1421,4.988,4.9636,5.0524,5.1518,5.2563,5.3583,5.4628,5.5099,5.5046,5.4628,5.4341,5.4158,5.3792,5.3504,5.3426,5.34,5.34,5.34,5.34,5.3452,5.3498,5.2401,5.1291,5.0268,4.9002,4.7399,4.5405,4.4404,4.3573,4.2922,4.2442,4.2005,4.1699,4.193,4.1918,4.1699,4.2333,4.2766,4.2958,4.3633,4.4155,4.4265,4.4297,4.4544,4.4947,4.5002,4.5191,4.5592,4.5807,4.5828,4.5663,4.5653,4.5725,4.5871,4.6513,4.6989,4.7031,4.7838,4.8335,4.8439,4.8832,4.8977,4.8687,4.8894,4.8936,4.8749,4.8894,4.9038,4.893,4.8845,4.8759,4.8693,4.7918,4.6836,4.5661,4.4675,4.3274,4.1499,4.043,3.9793,3.9383,3.8759,3.8178,3.7763,3.7671,3.7671,3.7671,3.7671,3.7671,3.7671,3.7671,3.7671,3.7671,3.7671,3.7718,3.7957,3.8322,3.9101,6.4066,6.4126,6.4725,6.4994,6.4994,6.5024,6.4994,6.5024,6.5024,6.4215,6.2879,6.2138,6.073,5.8838,5.6742,5.4964,5.3487,5.2539,5.2171,5.2328,5.2929,5.3556,5.4158,5.4785,5.5099,5.5099,5.4994,5.4707,5.4262,5.4184,5.3896,5.3452,5.34,5.3452,5.3426,5.3426,5.3661,5.4105,5.3355,5.1708,4.9286,4.836,4.6934,4.4769,4.4581,4.4487,4.432,4.3963,4.3678,4.3613,4.3263,4.3241,4.3569,4.3722,4.3959,4.4422,4.458,4.4841,4.528,4.543,4.5451,4.5541,4.5563,4.5636,4.5744,4.6388,4.6512,4.5972,4.5725,4.5933,4.6203,4.6741,4.7072,4.7155,4.79,4.8418,4.8501,4.8832,4.9081,4.906,4.9102,4.9102,4.9081,4.908,4.8908,4.8433,4.7961,4.7638,4.7421,4.6488,4.5084,4.356,4.2604,4.1183,3.9063,3.807,3.8162,3.804,3.7901,3.7763,3.7717,3.7671,3.7671,3.7671,3.7671,3.7671,3.7671,3.7671,3.7671,3.7687,3.7734,3.7861,3.8402,3.8656,3.9196,6.3996,6.4054,6.4701,6.5026,6.5026,6.5026,6.5026,6.5026,6.5026,6.4341,6.3168,6.2206,6.0731,5.8887,5.725,5.6168,5.5527,5.4825,5.4497,5.4497,5.4445,5.4524,5.4733,5.4968,5.5099,5.5099,5.5099,5.4968,5.4785,5.4733,5.4628,5.4445,5.4393,5.4419,5.4419,5.4393,5.4341,5.4203,5.3793,5.2285,4.9714,4.9049,4.776,4.5684,4.5172,4.5019,4.4976,4.4561,4.4298,4.4312,4.4102,4.4102,4.4312,4.4344,4.4581,4.5088,4.5422,4.5567,4.5564,4.558,4.5616,4.5651,4.568,4.5892,4.643,4.6782,4.6906,4.6906,4.6865,4.6968,4.7134,4.7548,4.7838,4.79,4.8417,4.8832,4.8832,4.8977,4.9102,4.9122,4.935,4.9516,4.9473,4.93,4.8673,4.7721,4.6864,4.6182,4.5329,4.4428,4.3339,4.1998,4.1158,3.993,3.8132,3.7671,3.7671,3.7671,3.7671,3.7671,3.7671,3.7671,3.7671,3.7671,3.7671,3.7671,3.7671,3.7671,3.7671,3.7702,3.7909,3.8131,3.8608,3.8862,3.9308,6.3408,6.3495,6.4134,6.4393,6.4393,6.4393,6.4393,6.4393,6.4393,6.3814,6.2863,6.184,6.0558,5.9076,5.7794,5.719,5.7007,5.6588,5.6301,5.6144,5.5752,5.5569,5.5569,5.5569,5.5569,5.5569,5.5595,5.5491,5.5334,5.5151,5.5099,5.5099,5.5099,5.5099,5.5099,5.5099,5.4811,5.4223,5.4059,5.2612,5.0087,4.9546,4.8381,4.6218,4.5675,4.55,4.55,4.5172,4.4976,4.4976,4.5085,4.5099,4.5048,4.515,4.532,4.548,4.5821,4.5914,4.566,4.5851,4.6003,4.6056,4.6161,4.6513,4.7072,4.732,4.7548,4.7796,4.8024,4.7982,4.7734,4.8149,4.8397,4.8439,4.8832,4.9102,4.9102,4.9102,4.9059,4.8972,4.9216,4.9586,4.9451,4.8821,4.7714,4.6664,4.5471,4.4384,4.3229,4.2577,4.1785,4.08,3.9974,3.9054,3.8059,3.7718,3.7687,3.7671,3.7671,3.7671,3.7671,3.7671,3.7671,3.7671,3.7671,3.7671,3.7671,3.7671,3.775,3.7845,3.8036,3.837,3.8799,3.9053,3.9339,6.1879,6.1991,6.2619,6.2873,6.2934,6.2901,6.2934,6.2901,6.2906,6.2442,6.174,6.0995,6.0242,5.9496,5.8666,5.8131,5.7695,5.7564,5.725,5.6798,5.6693,5.6719,5.6745,5.6745,5.6693,5.6588,5.6562,5.6327,5.583,5.536,5.5099,5.5099,5.5099,5.5099,5.5099,5.5099,5.4785,5.419,5.4007,5.2562,5.0052,4.9546,4.8381,4.6284,4.598,4.598,4.598,4.5959,4.5937,4.5937,4.6292,4.6403,4.6106,4.6402,4.6296,4.5682,4.5691,4.5744,4.5847,4.6429,4.6885,4.6948,4.7237,4.7568,4.7651,4.7982,4.8231,4.8377,4.8729,4.8625,4.7962,4.8314,4.8501,4.8501,4.8874,4.9143,4.9143,4.9183,4.8908,4.8667,4.8795,4.8847,4.8904,4.7455,4.6255,4.5272,4.3925,4.2586,4.1912,4.1127,4.0419,3.9894,3.9132,3.8383,3.8145,3.7861,3.7687,3.7671,3.7671,3.7671,3.7671,3.7671,3.7671,3.7671,3.7671,3.7671,3.7671,3.775,3.7924,3.802,3.8211,3.8545,3.8974,3.9148,3.9403,6.1094,6.1121,6.1341,6.1457,6.1457,6.1457,6.1457,6.1457,6.1457,6.1186,6.0708,6.0192,5.9699,5.9263,5.8735,5.8392,5.8183,5.7878,5.759,5.732,5.6981,5.6789,5.6789,5.6789,5.6789,5.6789,5.6763,5.6484,5.5961,5.57,5.5438,5.5151,5.5099,5.5099,5.5099,5.5099,5.4654,5.3779,5.3543,5.2084,4.948,4.9334,4.8446,4.6589,4.6423,4.6461,4.6423,4.6789,4.681,4.6505,4.6963,4.7013,4.6634,4.65,4.6245,4.5795,4.593,4.6203,4.6493,4.6803,4.7154,4.7444,4.7589,4.7838,4.8128,4.8335,4.8522,4.8812,4.8998,4.8894,4.8812,4.9019,4.9185,4.8998,4.9473,4.9783,4.9682,4.9742,4.9754,4.9246,4.8577,4.7735,4.6972,4.5851,4.4536,4.3237,4.1957,4.0851,3.982,3.9106,3.8922,3.8938,3.8467,3.8029,3.8241,3.7893,3.7671,3.7671,3.7671,3.7687,3.7687,3.7671,3.7671,3.7671,3.7671,3.7702,3.7718,3.7909,3.8036,3.8243,3.8433,3.8783,3.9116,3.9355,3.9546,6.0004,6.0004,6.0004,6.0004,5.9969,6.0004,6.0004,6.0004,6.0004,5.9865,5.9621,5.9377,5.9096,5.8876,5.8629,5.8523,5.8497,5.8104,5.7957,5.793,5.7529,5.7346,5.7346,5.7346,5.7346,5.732,5.7137,5.685,5.6484,5.6275,5.6013,5.57,5.5647,5.5647,5.5614,5.5513,5.4984,5.4141,5.363,5.2132,4.9776,4.9473,4.8785,4.7459,4.7182,4.7029,4.6729,4.7073,4.7094,4.6838,4.7357,4.7501,4.7068,4.658,4.6234,4.616,4.6348,4.672,4.7155,4.7341,4.761,4.7879,4.8065,4.8293,4.8583,4.877,4.9019,4.9267,4.9495,4.9557,4.964,4.9972,4.9993,4.9557,4.997,5.0301,5.0032,5.0239,4.9852,4.8882,4.7703,4.6557,4.5476,4.4361,4.3117,4.165,4.065,3.9539,3.846,3.8131,3.8068,3.8417,3.8352,3.8146,3.8243,3.8116,3.7973,3.7941,3.7782,3.7796,3.7782,3.775,3.7718,3.7702,3.7702,3.775,3.7861,3.8068,3.8259,3.8465,3.872,3.9053,3.9371,3.9577,3.9753,5.8558,5.8629,5.8523,5.8664,5.87,5.8735,5.8594,5.8664,5.8664,5.8709,5.8709,5.8594,5.8629,5.8523,5.8523,5.8523,5.8497,5.8444,5.8418,5.8418,5.8392,5.8392,5.8366,5.834,5.834,5.8314,5.7895,5.7669,5.7512,5.7033,5.6771,5.6745,5.6641,5.6588,5.6745,5.6271,5.5822,5.5014,5.4109,5.2639,5.0876,4.9928,4.9163,4.8201,4.8094,4.7662,4.6816,4.6838,4.6985,4.6969,4.7711,4.8013,4.7589,4.6873,4.6575,4.6906,4.6989,4.7258,4.7672,4.8086,4.8294,4.8459,4.8812,4.8998,4.9143,4.9454,4.9702,4.9827,5.0073,5.0322,5.0384,5.0694,5.0653,5.0034,5.0259,5.0549,5.0446,5.0402,4.9616,4.7839,4.6527,4.5518,4.4311,4.2993,4.1798,4.0929,4.0074,3.9222,3.8575,3.8465,3.8481,3.8402,3.8386,3.8417,3.8417,3.8417,3.8354,3.8274,3.802,3.7893,3.7988,3.8004,3.7988,3.7973,3.8035,3.8036,3.8179,3.8386,3.8624,3.8815,3.91,3.9355,3.9546,3.9753,3.9769,5.8523,5.8523,5.8523,5.8523,5.8523,5.8523,5.8523,5.8523,5.8523,5.8523,5.8523,5.8523,5.8523,5.8523,5.8523,5.8523,5.8523,5.8523,5.8523,5.8523,5.8523,5.8523,5.8523,5.8523,5.8523,5.8497,5.834,5.8026,5.7721,5.7512,5.7216,5.6876,5.6824,5.6789,5.6815,5.6358,5.5589,5.4176,5.3317,5.1656,4.9235,4.9188,4.8792,4.7899,4.8029,4.8012,4.7772,4.8034,4.8208,4.8169,4.8504,4.8484,4.8056,4.7546,4.7341,4.7465,4.7486,4.7693,4.8086,4.8356,4.8584,4.8832,4.906,4.9267,4.9537,4.9723,4.9972,5.0156,5.0342,5.036,5.0487,5.0839,5.0839,5.028,5.0901,5.1191,5.085,5.0478,4.9096,4.6782,4.5439,4.3879,4.1895,4.0706,4.051,4.0009,3.9515,3.9133,3.8958,3.8783,3.8688,3.8576,3.864,3.8672,3.8592,3.864,3.8703,3.8592,3.837,3.8147,3.8211,3.8274,3.8259,3.8259,3.8321,3.837,3.8513,3.8703,3.8942,3.9164,3.9387,3.9561,3.9753,3.9817,3.9817,5.8523,5.8523,5.8523,5.8523,5.8523,5.8523,5.8523,5.8523,5.8523,5.8523,5.8523,5.8523,5.8523,5.8523,5.8523,5.8523,5.8523,5.8523,5.8523,5.8523,5.8523,5.8523,5.8523,5.8523,5.8523,5.8523,5.8523,5.834,5.8,5.7974,5.7791,5.7503,5.7451,5.7477,5.7381,5.6866,5.5826,5.4338,5.3263,5.158,4.964,4.935,4.9107,4.8479,4.8733,4.8951,4.8995,4.9119,4.9018,4.8724,4.8653,4.8535,4.8274,4.7921,4.7796,4.792,4.7982,4.8252,4.8812,4.8977,4.9122,4.9516,4.9576,4.968,4.997,5.0115,5.0404,5.0611,5.086,5.0922,5.0984,5.117,5.1212,5.0984,5.1419,5.1556,5.11,5.011,4.842,4.6055,4.4471,4.2522,4.0627,3.9801,3.9658,3.9323,3.9339,3.9323,3.9275,3.9164,3.9037,3.9005,3.9085,3.8989,3.8719,3.8815,3.9021,3.891,3.8719,3.8529,3.8465,3.8513,3.8529,3.8513,3.8529,3.8672,3.8815,3.8974,3.918,3.9403,3.9642,3.9721,3.9817,3.9817,3.9719,5.8523,5.8523,5.8523,5.8549,5.8601,5.8601,5.8679,5.8679,5.8644,5.8732,5.8706,5.8748,5.8732,5.8653,5.8775,5.8748,5.8653,5.8758,5.8784,5.8758,5.8732,5.8706,5.8549,5.8523,5.8523,5.8523,5.8523,5.8497,5.8418,5.8418,5.8523,5.8366,5.8304,5.847,5.8198,5.7723,5.6562,5.5028,5.3755,5.2163,5.0326,5.0181,4.9826,4.9388,4.9825,5.009,4.9947,4.9648,4.9164,4.8377,4.8453,4.8545,4.8337,4.7984,4.8169,4.8542,4.8542,4.9019,4.962,4.9744,4.9887,5.0218,5.0259,5.0402,5.0443,5.0736,5.1005,5.115,5.146,5.1708,5.1688,5.1729,5.1684,5.1767,5.1738,5.1577,5.0965,4.938,4.744,4.5343,4.3626,4.2044,4.0173,3.9864,3.9609,3.945,3.9546,3.953,3.945,3.9418,3.9498,3.9466,3.9387,3.9275,3.9005,3.918,3.9339,3.9117,3.9021,3.8958,3.8815,3.8846,3.8942,3.891,3.8862,3.8989,3.9117,3.9291,3.9434,3.9642,3.9753,3.9801,3.967,3.9524,3.902,5.8523,5.8523,5.8523,5.8758,5.9133,5.9186,5.9385,5.9751,5.9751,5.9699,5.9751,5.9777,5.9663,5.9741,5.9715,5.9741,5.9663,5.9725,5.9777,5.9777,5.9741,5.9255,5.8653,5.8523,5.8549,5.8575,5.8627,5.8523,5.8523,5.8601,5.8575,5.8523,5.8627,5.8575,5.8416,5.7852,5.6253,5.4398,5.3299,5.1339,4.9101,4.9483,4.9354,4.875,4.9737,5.0124,4.9862,4.9399,4.9131,4.8879,4.9154,4.9153,4.8962,4.9041,4.9205,4.9392,4.968,4.9928,5.0156,5.0239,5.0322,5.0384,5.0526,5.057,5.0922,5.1046,5.1294,5.1522,5.175,5.1833,5.1812,5.1833,5.1775,5.1724,5.1576,5.1218,5.0304,4.9153,4.733,4.4632,4.3243,4.1879,4.0658,3.9911,3.9769,3.9641,3.9673,3.9785,3.9625,3.9609,3.9641,3.9498,3.9418,3.9403,3.9418,3.9593,3.9593,3.9323,3.9291,3.9418,3.9323,3.9307,3.9434,3.9514,3.9355,3.9403,3.9514,3.9641,3.9785,3.9752,3.9362,3.9118,3.8971,3.8825,3.7976,5.8653,5.8862,5.8862,5.9202,5.9699,5.9725,5.9908,6.0169,6.0222,6.0222,6.0222,6.0222,6.0222,6.0222,6.0222,6.0222,6.0222,6.0222,6.0222,6.0222,6.0195,5.983,5.9359,5.9228,5.9192,5.9228,5.9192,5.9219,5.9255,5.9228,5.9192,5.9281,5.9228,5.9228,5.9235,5.8435,5.6883,5.474,5.3598,5.1715,4.9057,4.9672,4.9912,4.961,5.0251,5.0426,5.0058,4.9765,4.9511,4.9343,4.9383,4.9442,4.9455,4.964,4.9868,5.0011,5.0301,5.0466,5.0673,5.0671,5.0901,5.1191,5.1294,5.1543,5.1895,5.1978,5.2143,5.235,5.2371,5.2392,5.2346,5.2188,5.1821,5.1283,5.0895,5.0275,4.9453,4.782,4.6004,4.4016,4.2587,4.1588,4.044,4.0039,3.9832,3.9801,3.9785,3.9801,3.9785,3.9752,3.9736,3.9593,3.9546,3.9561,3.9561,3.9737,3.9848,3.9561,3.9641,3.9768,3.9736,3.9737,3.9673,3.9785,3.9801,3.9768,3.9719,3.967,3.9606,3.9362,3.8809,3.8237,3.7991,3.751,3.6691,5.8993,5.95,5.9473,5.9777,6.0274,6.029,6.0405,6.0431,6.0509,6.0509,6.0509,6.0431,6.0561,6.0368,6.064,6.0457,6.0483,6.0588,6.0509,6.0561,6.0561,6.0457,6.0431,6.0055,6.0002,6.0039,6.0195,6.0117,6.0013,6.0091,6.0169,6.0065,6.0091,6.0169,5.9867,5.9348,5.7738,5.5501,5.4333,5.2454,5.0297,5.0317,5.0534,5.0348,5.0495,5.0591,5.0398,5.0244,5.0096,4.9782,4.9418,4.9559,4.9847,4.9889,5.0138,5.0446,5.0632,5.0839,5.1108,5.1274,5.1584,5.2164,5.2412,5.2723,5.2909,5.295,5.295,5.2992,5.3157,5.3008,5.2802,5.2424,5.1443,5.0449,4.9492,4.8558,4.7791,4.6051,4.4207,4.3104,4.185,4.1029,4.0506,4.0117,3.9895,4.0167,4.0087,3.9992,3.9944,3.9864,3.9848,3.9769,3.9753,3.9785,3.9785,3.9801,3.988,3.9816,3.999,4.0102,4.0054,3.9974,3.9847,3.98,3.9622,3.9557,3.9557,3.9508,3.9231,3.8626,3.7806,3.7101,3.6557,3.5899,3.5179,5.9934,6.0039,6.0039,6.0378,6.0838,6.0927,6.1163,6.1592,6.1555,6.154,6.1592,6.1618,6.1592,6.1529,6.154,6.1644,6.154,6.154,6.1607,6.1607,6.1644,6.1618,6.1372,6.0744,6.0237,6.03,6.0248,6.0248,6.0274,6.0352,6.0248,6.0274,6.0405,6.0248,6.019,5.9533,5.7863,5.5646,5.4507,5.2502,5.0171,5.0186,5.0343,4.9839,4.9955,5.0229,5.0308,5.011,5.004,5.0183,5.0179,5.0197,5.0322,5.057,5.0798,5.0984,5.1274,5.1501,5.1688,5.1957,5.2267,5.2536,5.2868,5.3075,5.3137,5.324,5.322,5.3178,5.3178,5.3095,5.2515,5.0959,4.999,4.9076,4.7485,4.5932,4.5227,4.4629,4.3657,4.2447,4.1665,4.1238,4.1055,4.0705,4.0531,4.058,4.0421,4.0213,4.0135,4.0023,4.0023,4.0039,4.0023,4.0071,4.0071,4.0087,4.0086,4.0148,4.0273,4.0271,4.0207,4.0126,3.9917,3.9647,3.9362,3.9264,3.8907,3.8494,3.8083,3.7407,3.6688,3.5942,3.5196,3.4455,3.3734,6.0342,6.0603,6.0603,6.098,6.1476,6.1529,6.1685,6.1958,6.201,6.201,6.201,6.201,6.201,6.201,6.201,6.1984,6.201,6.201,6.1984,6.1984,6.1984,6.1984,6.1958,6.1424,6.1032,6.1032,6.1058,6.1032,6.1032,6.1006,6.111,6.1032,6.1032,6.1136,6.0847,6.0013,5.8375,5.6302,5.4758,5.2762,5.0539,5.0372,5.0591,5.0082,5.0248,5.0473,5.0714,5.058,5.0697,5.0943,5.1046,5.0943,5.0798,5.0984,5.1191,5.146,5.1626,5.1936,5.2122,5.2371,5.2661,5.3095,5.3364,5.3592,5.3758,5.382,5.382,5.382,5.3746,5.3376,5.2038,5.0627,4.9198,4.717,4.5743,4.4312,4.3452,4.3298,4.3111,4.2026,4.1535,4.1341,4.1198,4.1039,4.0864,4.0721,4.0674,4.0515,4.0515,4.0419,4.0372,4.0372,4.0324,4.0308,4.0373,4.0356,4.0419,4.0413,4.0419,4.0338,4.0175,4.0043,3.9878,3.9467,3.8879,3.8123,3.7731,3.7313,3.6782,3.597,3.5229,3.4558,3.3837,3.3084,3.2468,6.0797,6.1241,6.1241,6.1529,6.1984,6.1984,6.1984,6.201,6.201,6.201,6.201,6.201,6.201,6.201,6.201,6.201,6.201,6.201,6.201,6.201,6.201,6.201,6.1958,6.1906,6.1853,6.201,6.188,6.188,6.188,6.1984,6.1775,6.1932,6.1958,6.1827,6.1669,6.0673,5.8882,5.6668,5.5031,5.3131,5.1181,5.0868,5.0843,5.079,5.0764,5.0881,5.0993,5.1025,5.1253,5.175,5.1791,5.1626,5.1439,5.1336,5.1522,5.1998,5.2205,5.2392,5.2619,5.2826,5.324,5.3814,5.3897,5.4062,5.4331,5.4373,5.4304,5.404,5.3733,5.2784,5.1299,4.9546,4.7694,4.5705,4.443,4.3349,4.2345,4.2259,4.2259,4.1955,4.1608,4.1481,4.1354,4.1277,4.1087,4.0928,4.0896,4.0864,4.0864,4.0801,4.0705,4.0626,4.0562,4.0531,4.058,4.0687,4.0751,4.036,4.0428,3.9957,3.9662,3.8928,3.8599,3.872,3.8218,3.7358,3.6483,3.5955,3.5327,3.4456,3.3993,3.3575,3.2748,3.1723,3.1423,6.1775,6.1816,6.1853,6.1932,6.201,6.201,6.201,6.201,6.201,6.201,6.201,6.201,6.201,6.201,6.201,6.201,6.201,6.201,6.201,6.201,6.201,6.201,6.201,6.201,6.201,6.201,6.201,6.201,6.201,6.201,6.201,6.201,6.2025,6.2025,6.1648,6.066,5.8805,5.659,5.4934,5.2972,5.121,5.0627,5.0725,5.0728,5.0767,5.091,5.107,5.115,5.1315,5.175,5.1791,5.1978,5.2185,5.2267,5.2474,5.2764,5.3075,5.3137,5.3137,5.3716,5.3876,5.398,5.4124,5.4331,5.4476,5.4449,5.4238,5.3404,5.2298,5.0968,5.0119,4.8033,4.6158,4.4498,4.3501,4.2719,4.2038,4.1885,4.2003,4.1833,4.1703,4.1655,4.1544,4.1497,4.1468,4.1341,4.1277,4.1246,4.123,4.1071,4.088,4.0817,4.0753,4.0737,4.0737,4.0923,4.0961,4.0197,3.9841,3.9054,3.8487,3.7429,3.7022,3.7062,3.6875,3.624,3.5457,3.4697,3.3984,3.3252,3.2929,3.2715,3.2164,3.1599,3.1534,6.201,6.201,6.201,6.201,6.201,6.201,6.201,6.201,6.201,6.201,6.201,6.201,6.201,6.201,6.201,6.201,6.201,6.201,6.201,6.201,6.201,6.201,6.201,6.201,6.201,6.201,6.201,6.201,6.201,6.201,6.2037,6.2014,6.2046,6.1974,6.1441,6.025,5.8407,5.6373,5.4543,5.2746,5.0943,5.0762,5.085,5.1028,5.1108,5.1253,5.1377,5.146,5.1688,5.206,5.2164,5.2557,5.295,5.3157,5.3178,5.3261,5.3447,5.3571,5.353,5.3959,5.4062,5.4207,5.4393,5.4476,5.4497,5.4401,5.3883,5.2567,5.1241,4.9365,4.7469,4.594,4.4498,4.3247,4.255,4.2192,4.1901,4.1849,4.1798,4.1798,4.175,4.1735,4.175,4.1735,4.1766,4.1719,4.1608,4.156,4.1497,4.1354,4.1182,4.1214,4.1182,4.1132,4.098,4.0865,4.0583,3.9876,3.89,3.8083,3.7221,3.6152,3.5471,3.5168,3.4954,3.4828,3.404,3.3149,3.2565,3.2209,3.2239,3.2188,3.1908,3.1614,3.1578,6.201,6.201,6.201,6.201,6.201,6.201,6.201,6.201,6.201,6.201,6.201,6.201,6.201,6.201,6.201,6.201,6.201,6.201,6.201,6.201,6.201,6.201,6.201,6.201,6.201,6.2037,6.222,6.2115,6.201,6.201,6.2063,6.2109,6.2196,6.1775,6.1022,5.9561,5.7908,5.5817,5.4022,5.239,5.1425,5.1183,5.1398,5.175,5.1791,5.175,5.1729,5.1729,5.1998,5.2288,5.2536,5.2868,5.3607,5.3794,5.369,5.353,5.353,5.3758,5.3856,5.4172,5.4352,5.4414,5.4476,5.4497,5.4401,5.4095,5.3357,5.1561,4.9953,4.8132,4.5739,4.4346,4.3298,4.2396,4.1936,4.1798,4.1849,4.1798,4.1798,4.1798,4.1798,4.1798,4.1798,4.1798,4.1798,4.1798,4.1687,4.1703,4.1655,4.1687,4.1627,4.1639,4.1655,4.1553,4.1262,4.0693,4.0038,3.8996,3.7695,3.6511,3.5705,3.4808,3.4201,3.3648,3.3416,3.3211,3.2376,3.2062,3.1976,3.1912,3.1805,3.1759,3.1722,3.1722,3.171,6.201,6.201,6.201,6.201,6.201,6.201,6.201,6.201,6.201,6.201,6.201,6.2037,6.2063,6.2063,6.2037,6.201,6.2037,6.2089,6.2115,6.2115,6.2115,6.2063,6.201,6.201,6.201,6.2089,6.2443,6.2365,6.2246,6.2141,6.235,6.2527,6.2045,6.1282,6.0647,5.9016,5.6586,5.4362,5.306,5.2061,5.1381,5.1505,5.1708,5.1812,5.1833,5.1895,5.1957,5.1998,5.2164,5.2536,5.2557,5.2971,5.3607,5.3814,5.4042,5.4311,5.4668,5.4793,5.4476,5.4627,5.4689,5.4538,5.4538,5.4497,5.4477,5.3827,5.2727,5.0832,4.9046,4.6915,4.4751,4.3516,4.2633,4.2189,4.1929,4.183,4.1798,4.1798,4.1798,4.1798,4.1798,4.1798,4.1798,4.1798,4.1798,4.1798,4.1798,4.1798,4.1695,4.1577,4.149,4.1387,4.1269,4.1166,4.0574,4.0148,3.9085,3.7976,3.6647,3.5165,3.4393,3.3689,3.2882,3.2394,3.2258,3.2238,3.2042,3.1879,3.1776,3.1783,3.1831,3.1831,3.1795,3.1819,3.1916,6.201,6.201,6.201,6.201,6.201,6.201,6.201,6.201,6.201,6.201,6.2089,6.2339,6.2469,6.2391,6.2156,6.2182,6.2391,6.2443,6.2443,6.2443,6.2417,6.2287,6.2063,6.201,6.201,6.2246,6.2496,6.2667,6.2548,6.2809,6.3097,6.3126,6.2507,6.1764,6.0617,5.886,5.6836,5.4801,5.3098,5.1964,5.1636,5.1708,5.1936,5.2164,5.2185,5.2309,5.2495,5.2599,5.2806,5.3111,5.3214,5.3551,5.4021,5.4207,5.4311,5.4435,5.4668,5.4668,5.4538,5.4704,5.4662,5.4731,5.4772,5.5041,5.4993,5.4232,5.2483,5.0109,4.8608,4.6467,4.4183,4.3148,4.2673,4.2282,4.2151,4.2024,4.1909,4.1814,4.1798,4.1798,4.1814,4.1842,4.1889,4.1822,4.1842,4.1782,4.168,4.1474,4.1218,4.0909,4.0806,4.077,4.06,4.0445,3.9672,3.8995,3.7656,3.656,3.5698,3.4381,3.3463,3.2632,3.2253,3.206,3.2215,3.2101,3.1879,3.1807,3.1783,3.1843,3.1928,3.1964,3.2024,3.2229,3.2314,6.201,6.201,6.201,6.201,6.201,6.201,6.201,6.201,6.201,6.201,6.2115,6.2391,6.2652,6.2679,6.2287,6.226,6.2745,6.2797,6.294,6.2992,6.2992,6.2809,6.269,6.2507,6.2507,6.2455,6.3149,6.3294,6.345,6.3712,6.3999,6.3752,6.2875,6.1984,6.0785,5.9008,5.6939,5.4522,5.2745,5.1889,5.1771,5.1771,5.2081,5.2329,5.2536,5.2702,5.3095,5.3137,5.3344,5.3649,5.3711,5.3918,5.4352,5.4435,5.4435,5.4497,5.4559,5.4621,5.46,5.471,5.4579,5.4793,5.5082,5.5476,5.5627,5.4841,5.2974,4.9799,4.8451,4.62,4.3845,4.2887,4.276,4.2616,4.2501,4.2326,4.2183,4.2183,4.2215,4.2294,4.2258,4.2024,4.1988,4.1924,4.1865,4.1778,4.1577,4.1233,4.0579,3.9886,3.9493,3.9249,3.913,3.89,3.8329,3.7445,3.6177,3.5349,3.4478,3.378,3.3059,3.2683,3.2465,3.235,3.2338,3.2266,3.2193,3.2,3.1831,3.1964,3.2085,3.2193,3.2314,3.2531,3.2724,6.201,6.201,6.201,6.201,6.201,6.201,6.201,6.201,6.201,6.2063,6.2193,6.2141,6.2496,6.2679,6.2522,6.2443,6.285,6.2797,6.3201,6.3515,6.3632,6.3515,6.3397,6.337,6.3449,6.3515,6.3881,6.413,6.4417,6.4691,6.4547,6.3932,6.3152,6.1946,6.0559,5.8865,5.6426,5.4122,5.2423,5.1878,5.1853,5.1915,5.2122,5.2474,5.2578,5.2702,5.3157,5.3302,5.3509,5.3876,5.3918,5.4042,5.4414,5.4497,5.4497,5.4497,5.4579,5.4772,5.4917,5.4834,5.4834,5.5145,5.5538,5.589,5.6069,5.4992,5.2795,5.0059,4.8724,4.6406,4.4204,4.2935,4.2993,4.2898,4.2834,4.2739,4.2628,4.2644,4.2675,4.2771,4.2566,4.211,4.1556,4.1284,4.1557,4.1541,4.0633,4.0232,3.8995,3.821,3.7667,3.7324,3.7243,3.7013,3.6615,3.5805,3.5198,3.4647,3.3933,3.3439,3.295,3.2736,3.2917,3.2748,3.2748,3.2628,3.2495,3.2326,3.2205,3.2181,3.2254,3.2447,3.2628,3.2833,3.3026,6.201,6.201,6.201,6.201,6.201,6.201,6.201,6.201,6.201,6.2455,6.3004,6.2705,6.3018,6.3489,6.3332,6.3332,6.379,6.3842,6.3973,6.4116,6.4195,6.4012,6.3855,6.375,6.3672,6.3855,6.4247,6.4469,6.4521,6.507,6.4764,6.4077,6.34,6.2587,6.1093,5.8596,5.586,5.4033,5.2534,5.1895,5.2205,5.2267,5.2578,5.3214,5.3323,5.3571,5.3944,5.4006,5.4083,5.4166,5.4186,5.4331,5.4435,5.4476,5.4517,5.4559,5.4772,5.502,5.5186,5.5124,5.5269,5.591,5.6221,5.6387,5.6425,5.5634,5.3457,5.1099,4.9019,4.6853,4.4246,4.3518,4.3518,4.3311,4.3168,4.3104,4.3057,4.3041,4.292,4.2914,4.2366,4.1804,4.1171,4.0551,4.0906,4.1167,4.0145,3.9032,3.7744,3.6709,3.6137,3.5857,3.5844,3.5605,3.5241,3.4842,3.4435,3.399,3.348,3.3374,3.3255,3.3569,3.3666,3.3424,3.3135,3.3014,3.2869,3.2676,3.2555,3.2483,3.2604,3.2809,3.2978,3.3135,3.3304,6.201,6.201,6.201,6.201,6.201,6.201,6.201,6.201,6.201,6.2664,6.3658,6.3149,6.3424,6.4077,6.3933,6.3959,6.426,6.4417,6.4574,6.4717,6.4743,6.4534,6.4325,6.4286,6.439,6.4299,6.4508,6.4822,6.4809,6.5095,6.4723,6.42,6.3828,6.3162,6.1598,5.853,5.5685,5.4122,5.2713,5.2085,5.2412,5.2495,5.2909,5.3587,5.3711,5.3938,5.4249,5.4352,5.4393,5.4435,5.4455,5.4476,5.4497,5.4517,5.4559,5.4793,5.5,5.5269,5.5517,5.5662,5.589,5.6415,5.6478,5.6656,5.6582,5.5729,5.3115,5.0678,4.912,4.7243,4.4253,4.3797,4.3734,4.3528,4.3565,4.3502,4.3422,4.339,4.3199,4.3024,4.2239,4.1332,4.0168,3.9376,3.8915,3.8985,3.8028,3.7038,3.6194,3.528,3.4726,3.4563,3.4563,3.4353,3.4057,3.3883,3.3813,3.4042,3.369,3.3864,3.3895,3.4161,3.4185,3.3859,3.3593,3.3437,3.3268,3.3099,3.2917,3.2736,3.2917,3.3099,3.334,3.3485,3.3569,6.201,6.201,6.201,6.201,6.201,6.201,6.201,6.201,6.2037,6.2638,6.358,6.3123,6.3541,6.426,6.4142,6.4273,6.456,6.4626,6.4822,6.5162,6.5214,6.528,6.5214,6.5136,6.5018,6.5266,6.5266,6.5214,6.5253,6.5027,6.4561,6.4218,6.3961,6.3606,6.2463,5.9148,5.6447,5.4652,5.2956,5.2461,5.267,5.2748,5.322,5.369,5.3918,5.4166,5.4393,5.4497,5.4497,5.4497,5.4497,5.4497,5.4497,5.4497,5.471,5.5062,5.5165,5.5641,5.6436,5.6539,5.6622,5.6606,5.6577,5.6382,5.5941,5.4493,5.2325,4.973,4.8281,4.6465,4.4827,4.3877,4.3845,4.3813,4.3782,4.375,4.3655,4.3462,4.3201,4.2535,4.1725,4.0769,3.939,3.8169,3.7169,3.6517,3.5774,3.5085,3.4631,3.4259,3.3883,3.3841,3.3908,3.3793,3.3604,3.3298,3.3258,3.3557,3.3859,3.4028,3.4185,3.433,3.4294,3.4173,3.3968,3.3726,3.3618,3.3577,3.3292,3.3099,3.3171,3.3352,3.3618,3.3762,3.3775,6.201,6.201,6.201,6.201,6.201,6.201,6.201,6.201,6.2089,6.2638,6.3527,6.3437,6.4012,6.4717,6.4874,6.4822,6.4979,6.5083,6.5358,6.5384,6.5397,6.5371,6.5397,6.5397,6.5397,6.5397,6.5397,6.5199,6.4934,6.4786,6.432,6.395,6.3928,6.3378,6.2181,5.9953,5.8041,5.6421,5.4586,5.3401,5.3771,5.3571,5.3587,5.4186,5.4207,5.4311,5.4476,5.4497,5.4497,5.4497,5.4497,5.4497,5.4497,5.4497,5.4751,5.5165,5.5414,5.6055,5.6718,5.6987,5.7008,5.69,5.6541,5.591,5.4809,5.3505,5.1152,4.8893,4.7402,4.5683,4.4361,4.3984,4.3861,4.3861,4.3845,4.3845,4.3744,4.3399,4.2967,4.1937,4.102,3.8885,3.719,3.6471,3.5556,3.5339,3.4841,3.4481,3.4004,3.3832,3.3505,3.3505,3.3517,3.335,3.3263,3.3171,3.3328,3.3714,3.4004,3.4209,3.4354,3.4523,3.4523,3.4463,3.4233,3.4004,3.3847,3.3702,3.3581,3.3485,3.3521,3.3545,3.369,3.3775,3.3787,6.201,6.201,6.201,6.201,6.201,6.201,6.201,6.201,6.2037,6.256,6.3227,6.3384,6.3829,6.4587,6.4979,6.5083,6.5109,6.5318,6.541,6.5397,6.5397,6.5397,6.5397,6.5397,6.5397,6.5397,6.5238,6.5,6.4826,6.4506,6.4199,6.401,6.3942,6.3943,6.2898,6.1394,5.9322,5.7621,5.5793,5.443,5.4491,5.431,5.398,5.4331,5.4476,5.4497,5.4497,5.4497,5.4497,5.4497,5.4497,5.4497,5.4497,5.4559,5.4834,5.5331,5.6055,5.6594,5.7049,5.7144,5.7173,5.7144,5.6564,5.5335,5.3722,5.2255,5.0009,4.7912,4.6518,4.5362,4.42,4.3931,4.3877,4.3877,4.3855,4.3855,4.3495,4.3146,4.2043,4.1068,3.929,3.7103,3.5356,3.4594,3.3918,3.3999,3.4023,3.3768,3.36,3.3488,3.3388,3.34,3.3388,3.3352,3.3328,3.3316,3.3533,3.3871,3.4113,3.4318,3.4653,3.4823,3.4823,3.4728,3.4475,3.4221,3.4004,3.3847,3.3811,3.3787,3.3811,3.3823,3.3811,3.3835,3.3871,6.201,6.201,6.201,6.201,6.201,6.201,6.201,6.201,6.201,6.2313,6.2862,6.2876,6.3306,6.3803,6.4325,6.4548,6.4704,6.5136,6.5318,6.5397,6.5397,6.5397,6.5397,6.5397,6.5357,6.5238,6.504,6.4801,6.4641,6.3958,6.3817,6.421,6.4186,6.4418,6.3846,6.2715,6.0781,5.9225,5.7335,5.6136,5.5825,5.4716,5.4523,5.4583,5.4571,5.4544,5.4497,5.4497,5.4497,5.4497,5.4497,5.4497,5.4497,5.4497,5.5103,5.5807,5.6656,5.7049,5.7194,5.7165,5.7165,5.7065,5.6233,5.4829,5.2974,5.1048,4.8859,4.6925,4.5362,4.4736,4.4038,4.3931,4.3877,4.3855,4.3848,4.358,4.3154,4.2325,4.0991,3.95,3.7527,3.5673,3.4538,3.3589,3.3581,3.3609,3.3834,3.3705,3.3525,3.3488,3.3412,3.3497,3.3473,3.3449,3.3461,3.3557,3.3702,3.4028,3.4185,3.4402,3.4762,3.4968,3.4895,3.474,3.4644,3.4426,3.4137,3.4064,3.4113,3.4158,3.4064,3.4158,3.41,3.4028,3.4052,6.201,6.201,6.201,6.201,6.201,6.201,6.201,6.201,6.201,6.2287,6.2797,6.2797,6.3071,6.3737,6.4273,6.4417,6.4678,6.5031,6.5292,6.5397,6.5397,6.5397,6.5397,6.5357,6.5238,6.5,6.4761,6.4401,6.3878,6.327,6.3354,6.3818,6.3977,6.4504,6.4611,6.409,6.2778,6.1286,5.9261,5.8097,5.7057,5.5974,5.5534,5.5099,5.4619,5.4544,5.4497,5.4497,5.4497,5.4497,5.4497,5.4497,5.4497,5.4538,5.4938,5.5828,5.6635,5.7165,5.7165,5.7165,5.7165,5.6965,5.6182,5.3945,5.1978,4.9957,4.793,4.5986,4.4736,4.4216,4.4064,4.4026,4.402,4.4083,4.3891,4.3371,4.2757,4.1422,4.0048,3.8028,3.6008,3.5301,3.4057,3.3919,3.3931,3.3762,3.3642,3.3569,3.3497,3.3473,3.3473,3.3569,3.3678,3.369,3.3835,3.3956,3.404,3.4161,3.4318,3.4463,3.4668,3.4813,3.4825,3.4813,3.4764,3.4523,3.4209,3.4221,3.4354,3.4306,3.4281,3.4342,3.4436,3.4375,3.4351,6.201,6.201,6.201,6.201,6.201,6.201,6.201,6.201,6.201,6.2182,6.2469,6.2469,6.2679,6.3083,6.375,6.4195,6.4247,6.5005,6.5397,6.5397,6.5397,6.5397,6.5397,6.5238,6.504,6.4786,6.4426,6.3958,6.3433,6.3117,6.3124,6.3676,6.3701,6.4329,6.4839,6.4803,6.4455,6.3225,6.1827,6.0333,5.8861,5.747,5.6418,5.5567,5.4951,5.4592,5.4497,5.4497,5.4497,5.4497,5.4497,5.4497,5.4621,5.4855,5.5165,5.6014,5.6697,5.7082,5.7165,5.7165,5.7165,5.6915,5.6182,5.3894,5.1669,4.9644,4.719,4.4935,4.4377,4.3978,4.4074,4.4169,4.4264,4.436,4.3769,4.317,4.1933,4.0556,3.8654,3.6609,3.5507,3.4904,3.445,3.439,3.4257,3.4052,3.3931,3.3895,3.3787,3.369,3.3666,3.3702,3.3859,3.398,3.4149,3.4269,3.4351,3.433,3.4426,3.4571,3.4704,3.4921,3.5114,3.5066,3.4933,3.4728,3.4583,3.4535,3.4583,3.4547,3.4547,3.469,3.4738,3.4738,3.4738,6.201,6.201,6.201,6.201,6.201,6.201,6.201,6.201,6.201,6.201,6.2063,6.2037,6.2089,6.2481,6.328,6.375,6.4142,6.4848,6.5397,6.5397,6.5397,6.5397,6.5199,6.5,6.4721,6.4441,6.4039,6.3595,6.3352,6.3077,6.3032,6.3601,6.3576,6.4002,6.4705,6.4806,6.4683,6.4605,6.338,6.1926,6.0315,5.8674,5.7054,5.6064,5.5188,5.4497,5.4497,5.4497,5.4497,5.4497,5.4497,5.4497,5.4875,5.531,5.5703,5.618,5.6821,5.7041,5.7165,5.7165,5.7165,5.6885,5.6182,5.3996,5.1875,4.9748,4.7349,4.4973,4.4245,4.4296,4.4407,4.4487,4.4582,4.449,4.4058,4.2866,4.1292,3.9514,3.7279,3.568,3.5277,3.474,3.4692,3.4595,3.4511,3.4306,3.4209,3.4185,3.4088,3.3944,3.3956,3.3944,3.4076,3.4257,3.4378,3.4532,3.4545,3.4581,3.4595,3.4764,3.497,3.5223,3.5477,3.532,3.5139,3.5187,3.5114,3.4945,3.4801,3.4837,3.4919,3.4992,3.504,3.5028,3.498,6.201,6.201,6.201,6.201,6.201,6.201,6.201,6.201,6.201,6.201,6.201,6.201,6.201,6.2193,6.3213,6.3672,6.3933,6.4835,6.5292,6.5371,6.5371,6.5199,6.496,6.4761,6.4401,6.3918,6.3554,6.3311,6.3067,6.2888,6.2832,6.3023,6.3124,6.355,6.4254,6.4304,6.4579,6.5285,6.4789,6.3317,6.1577,5.9681,5.8004,5.6606,5.5472,5.4592,5.4497,5.4497,5.4497,5.4497,5.4497,5.471,5.502,5.5579,5.6063,5.6477,5.6904,5.7132,5.7165,5.7165,5.7165,5.6915,5.6062,5.4251,5.2287,5.0217,4.8016,4.5749,4.4446,4.4621,4.4757,4.4875,4.4916,4.4632,4.4274,4.2551,4.0747,3.8299,3.5929,3.5387,3.5051,3.4945,3.4909,3.4825,3.4716,3.4607,3.4511,3.445,3.4366,3.4269,3.4354,3.4366,3.439,3.4593,3.469,3.4738,3.4738,3.4799,3.4859,3.5006,3.5235,3.538,3.5537,3.5452,3.5356,3.5332,3.5235,3.5089,3.5004,3.5089,3.5114,3.5163,3.5175,3.5175,3.509,6.201,6.201,6.201,6.201,6.201,6.201,6.201,6.201,6.201,6.201,6.201,6.201,6.201,6.2193,6.3213,6.3672,6.3881,6.4913,6.5306,6.5371,6.5199,6.5,6.4786,6.4401,6.3999,6.3554,6.327,6.3026,6.2822,6.2781,6.2781,6.2781,6.2873,6.3199,6.3852,6.4145,6.453,6.5609,6.5584,6.4537,6.2653,6.0725,5.872,5.7191,5.5687,5.4761,5.4497,5.4497,5.4497,5.4579,5.4683,5.4896,5.5269,5.5828,5.6311,5.6622,5.6925,5.7165,5.7165,5.7165,5.7165,5.6915,5.6484,5.488,5.3415,5.1307,4.9001,4.6764,4.5151,4.5041,4.5137,4.5218,4.5392,4.5328,4.4285,4.2795,4.0171,3.7413,3.5994,3.5374,3.5235,3.532,3.5259,3.5151,3.503,3.4895,3.4752,3.4728,3.4632,3.4535,3.4714,3.4774,3.4762,3.4799,3.4883,3.4919,3.4944,3.5004,3.504,3.5282,3.5428,3.5489,3.5549,3.5573,3.5513,3.5344,3.5223,3.5066,3.5102,3.5187,3.5283,3.5356,3.5368,3.5404,3.5392,6.201,6.201,6.201,6.201,6.201,6.201,6.201,6.201,6.201,6.201,6.201,6.201,6.201,6.2377,6.3161,6.3501,6.4038,6.4926,6.5292,6.5199,6.496,6.4681,6.428,6.3918,6.3595,6.3311,6.3026,6.2904,6.2822,6.2781,6.2781,6.2781,6.3023,6.3324,6.4078,6.4496,6.4731,6.5509,6.5614,6.5161,6.3598,6.178,5.9726,5.768,5.5876,5.4809,5.4639,5.4544,5.4544,5.4641,5.4896,5.5165,5.5566,5.6084,5.6449,5.678,5.7008,5.7194,5.7165,5.7165,5.7165,5.7015,5.6614,5.5689,5.42,5.2415,5.0105,4.8166,4.6531,4.5555,4.5653,4.5583,4.5774,4.5378,4.4125,4.2577,3.9583,3.674,3.5932,3.5308,3.538,3.5464,3.5428,3.5332,3.5211,3.5089,3.5028,3.5028,3.4992,3.4883,3.4883,3.4919,3.4907,3.498,3.5028,3.5028,3.5028,3.5018,3.5066,3.5368,3.5705,3.5827,3.5911,3.5851,3.5754,3.5489,3.5295,3.5151,3.5223,3.5344,3.5452,3.5549,3.5597,3.5633,3.573,6.201,6.201,6.201,6.201,6.201,6.201,6.201,6.201,6.201,6.201,6.2037,6.201,6.201,6.2089,6.3187,6.3698,6.4012,6.49,6.5055,6.4906,6.4786,6.432,6.3918,6.3595,6.327,6.3067,6.2863,6.2822,6.2781,6.2781,6.2781,6.2781,6.2781,6.3174,6.3701,6.4078,6.4505,6.5308,6.5599,6.5246,6.4391,6.2629,6.0702,5.8718,5.6814,5.5803,5.5188,5.4735,5.4592,5.4621,5.4958,5.5352,5.5814,5.6291,5.6676,5.6945,5.7173,5.7194,5.7165,5.7165,5.7165,5.7115,5.6735,5.6283,5.493,5.3933,5.1712,4.9672,4.807,4.662,4.6363,4.5958,4.5868,4.4763,4.3546,4.1432,3.8905,3.6777,3.5301,3.509,3.5161,3.521,3.5139,3.509,3.509,3.5028,3.5028,3.5028,3.5028,3.5028,3.5028,3.5028,3.5028,3.5028,3.5028,3.5028,3.504,3.503,3.5199,3.5597,3.5947,3.6322,3.637,3.6068,3.5839,3.5573,3.5404,3.5295,3.538,3.5501,3.5633,3.579,3.5802,3.5875,3.5996]},{"header":{"parameterUnit":"m.s-1","parameterCategory":1,"la1":31.0,"la2":29.5877,"lo1":-88.7671,"lo2":-86.6584,"dy":0.0162,"dx":0.0185,"nx":115,"ny":88,"refTime":"2026-03-25T00:00:00:Z","depth":0,"parameterNumber":3,"parameterNumberName":"V-component_of_WINDS"},"data":[0.0,0.0,0.0,0.0,0.0,0.0,0.0,0.0,0.0,0.0,0.0,0.0,0.0,0.0,0.0,0.0,0.0,0.0,0.0,0.0,0.0,0.0,0.0,0.0,0.0,0.0,0.0,0.0,0.0,0.0,0.0,0.0,0.0,0.0,0.0,0.0,0.0,0.0,0.0,0.0,0.0,0.0,0.0,0.0,0.0,0.0,0.0,0.0,0.0,0.0,0.0,0.0,0.0,0.0,0.0,0.0,0.0,0.0,0.0,0.0,0.0,0.0,0.0,0.0,0.0,0.0,0.0,0.0,0.0,0.0,0.0,0.0,0.0,0.0,0.0,0.0,0.0,0.0,0.0,0.0,0.0,0.0,0.0,0.0,0.0,0.0,0.0,0.0,0.0,0.0,0.0,0.0,0.0,0.0,0.0,0.0,0.0,0.0,0.0,0.0,0.0,0.0,0.0,0.0,0.0,0.0,0.0,0.0,0.0,0.0,0.0,0.0,0.0,0.0,0.0,0.0,0.0,0.0,0.0,0.0,0.0,0.0,0.0,0.0,0.0,0.0,0.0,0.0,0.0,0.0,0.0,0.0,0.0,0.0,0.0,0.0,0.0,0.0,0.0,0.0,0.0,0.0,0.0,0.0,0.0,0.0,0.0,0.0,0.0,0.0,0.0,0.0,0.0,0.0,0.0,0.0,0.0,0.0,0.0,0.0,0.0,0.0,0.0,0.0,0.0,0.0,0.0,0.0,0.0,0.0,0.0,0.0,0.0,0.0,0.0,0.0,0.0,0.0,0.0,0.0,0.0,0.0,0.0,0.0,0.0,0.0,0.0,0.0,0.0,0.0,0.0,0.0,0.0,0.0,0.0,0.0,0.0,0.0,0.0,0.0,0.0,0.0,0.0,0.0,0.0,0.0,0.0,0.0,0.0,0.0,0.0,0.0,0.0,0.0,0.0,0.0,0.0,0.0,0.0,0.0,0.0,0.0,0.0,0.0,0.0,0.0,0.0,0.0,0.0,0.0,0.0,0.0,0.0,0.0,0.0,0.0,0.0,0.0,0.0,0.0,0.0,0.0,0.0,0.0,0.0,0.0,0.0,0.0,0.0,0.0,0.0,0.0,0.0,0.0,0.0,0.0,0.0,0.0,0.0,0.0,0.0,0.0,0.0,0.0,0.0,0.0,0.0,0.0,0.0,0.0,0.0,0.0,0.0,0.0,0.0,0.0,0.0,0.0,0.0,0.0,0.0,0.0,0.0,0.0,0.0,0.0,0.0,0.0,0.0,0.0,0.0,0.0,0.0,0.0,0.0,0.0,0.0,0.0,0.0,0.0,0.0,0.0,0.0,0.0,0.0,0.0,0.0,0.0,0.0,0.0,0.0,0.0,0.0,0.0,0.0,0.0,0.0,0.0,0.0,0.0,0.0,0.0,0.0,0.0,0.0,0.0,0.0,0.0,0.0,0.0,0.0,0.0,0.0,0.0,0.0,0.0,0.0,0.0,0.0,0.0,0.0,0.0,0.0,0.0,0.0,0.0,0.0,0.0,0.0,0.0,0.0,0.0,0.0,0.0,0.0,0.0,0.0,0.0,0.0,0.0,0.0,0.0,0.0,0.0,0.0,0.0,0.0,0.0,0.0,0.0,0.0,0.0,0.0,0.0,0.0,0.0,0.0,0.0,0.0,0.0,0.0,0.0,0.0,0.0,0.0,0.0,0.0,0.0,0.0,0.0,0.0,0.0,0.0,0.0,0.0,0.0,0.0,0.0,0.0,0.0,0.0,0.0,0.0,0.0,0.0,0.0,0.0,0.0,0.0,0.0,0.0,0.0,0.0,0.0,0.0,0.0,0.0,0.0,0.0,0.0,0.0,0.0,0.0,0.0,0.0,0.0,0.0,0.0,0.0,0.0,0.0,0.0,0.0,0.0,0.0,0.0,0.0,0.0,0.0,0.0,0.0,0.0,0.0,0.0,0.0,0.0,0.0,0.0,0.0,0.0,0.0,0.0,0.0,0.0,0.0,0.0,0.0,0.0,0.0,0.0,0.0,0.0,0.0,0.0,0.0,0.0,0.0,0.0,0.0,0.0,0.0,0.0,0.0,0.0,0.0,0.0,0.0,0.0,0.0,0.0,0.0,0.0,0.0,0.0,0.0,0.0,0.0,0.0,0.0,0.0,0.0,0.0,0.0,0.0,0.0,0.0,0.0,0.0,0.0,0.0,0.0,0.0,0.0,0.0,0.0,0.0,0.0,0.0,0.0,0.0,0.0,0.0,0.0,0.0,0.0,0.0,0.0,0.0,0.0,0.0,0.0,0.0,0.0,0.0,0.0,0.0,0.0,0.0,0.0,0.0,0.0,0.0,0.0,0.0,0.0,0.0,0.0,0.0,0.0,0.0,0.0,0.0,0.0,0.0,0.0,0.0,0.0,0.0,0.0,0.0,0.0,0.0,0.0,0.0,0.0,0.0,0.0,0.0,0.0,0.0,0.0,0.0,0.0,0.0,0.0,0.0,0.0,0.0,0.0,0.0,0.0,0.0,0.0,0.0,0.0,0.0,0.0,0.0,0.0,0.0,0.0,0.0,0.0,0.0,0.0,0.0,0.0,0.0,0.0,0.0,0.0,0.0,0.0,0.0,0.0,0.0,0.0,0.0,0.0,0.0,0.0,0.0,0.0,0.0,0.0,0.0,0.0,0.0,0.0,0.0,0.0,0.0,0.0,0.0,0.0,0.0,0.0,0.0,0.0,0.0,0.0,0.0,0.0,0.0,0.0,0.0,0.0,0.0,0.0,0.0,0.0,0.0,0.0,0.0,0.0,0.0,0.0,0.0,0.0,0.0,0.0,0.0,0.0,0.0,0.0,0.0,0.0,0.0,0.0,0.0,0.0,0.0,0.0,0.0,0.0,0.0,0.0,0.0,0.0,0.0,0.0,0.0,0.0,0.0,0.0,0.0,0.0,0.0,0.0,0.0,0.0,0.0,0.0,0.0,0.0,0.0,0.0,0.0,0.0,0.0,0.0,0.0,0.0,0.0,0.0,0.0,0.0,0.0,0.0,0.0,0.0,0.0,0.0,0.0,0.0,0.0,0.0,0.0,0.0,0.0,0.0,0.0,0.0,0.0,0.0,0.0,0.0,0.0,0.0,0.0,0.0,0.0,0.0,0.0,0.0,0.0,0.0,0.0,0.0,0.0,0.0,0.0,0.0,0.0,0.0,0.0,0.0,0.0,0.0,0.0,0.0,0.0,0.0,0.0,0.0,0.0,0.0,0.0,0.0,0.0,0.0,0.0,0.0,0.0,0.0,0.0,0.0,0.0,0.0,0.0,0.0,0.0,0.0,0.0,0.0,0.0,0.0,0.0,0.0,0.0,0.0,0.0,0.0,0.0,0.0,0.0,0.0,0.0,0.0,0.0,0.0,0.0,0.0,0.0,0.0,0.0,0.0,0.0,0.0,0.0,0.0,0.0,0.0,0.0,0.0,0.0,0.0,0.0,0.0,0.0,0.0,0.0,0.0,0.0,0.0,0.0,0.0,0.0,0.0,0.0,0.0,0.0,0.0,0.0,0.0,0.0,0.0,0.0,0.0,0.0,0.0,0.0,0.0,0.0,0.0,0.0,0.0,0.0,0.0,0.0,0.0,0.0,0.0,0.0,0.0,0.0,0.0,0.0,0.0,0.0,0.0,0.0,0.0,0.0,0.0,0.0,0.0,0.0,0.0,0.0,0.0,0.0,0.0,0.0,0.0,0.0,0.0,0.0,0.0,0.0,0.0,0.0,0.0,0.0,0.0,0.0,0.0,0.0,0.0,0.0,0.0,0.0,0.0,0.0,0.0,0.0,0.0,0.0,0.0,0.0,0.0,0.0,0.0,0.0,0.0,0.0,0.0,0.0,0.0,0.0,0.0,0.0,0.0,0.0,0.0,0.0,0.0,0.0,0.0,0.0,0.0,0.0,0.0,0.0,0.0,0.0,0.0,0.0,0.0,0.0,0.0,0.0,0.0,0.0,0.0,0.0,0.0,0.0,0.0,0.0,0.0,0.0,0.0,0.0,0.0,0.0,0.0,0.0,0.0,0.0,0.0,0.0,0.0,0.0,0.0,0.0,0.0,0.0,0.0,0.0,0.0,0.0,0.0,0.0,0.0,0.0,0.0,0.0,0.0,0.0,0.0,0.0,0.0,0.0,0.0,0.0,0.0,0.0,0.0,0.0,0.0,0.0,0.0,0.0,0.0,0.0,0.0,0.0,0.0,0.0,0.0,0.0,0.0,0.0,0.0,0.0,2.2081,0.0,0.0,0.0,0.0,0.0,0.0,0.0,0.0,0.0,0.0,0.0,0.0,0.0,0.0,0.0,0.0,0.0,0.0,0.0,0.0,0.0,0.0,0.0,0.0,0.0,0.0,0.0,0.0,0.0,0.0,0.0,0.0,0.0,0.0,0.0,0.0,0.0,0.0,0.0,0.0,0.0,0.0,0.0,0.0,0.0,0.0,0.0,0.0,0.0,0.0,0.0,0.0,0.0,0.0,0.0,0.0,0.0,0.0,0.0,0.0,0.0,0.0,0.0,0.0,0.0,0.0,0.0,0.0,0.0,0.0,0.0,0.0,0.0,0.0,0.0,0.0,0.0,0.0,0.0,0.0,0.0,0.0,0.0,0.0,0.0,0.0,0.0,0.0,0.0,0.0,0.0,0.0,0.0,0.0,0.0,0.0,0.0,0.0,0.0,0.0,0.0,0.0,0.0,0.0,0.0,0.0,0.0,0.0,0.0,0.0,2.2182,2.2182,2.2182,2.2053,2.1715,0.0,0.0,0.0,0.0,0.0,0.0,0.0,0.0,0.0,0.0,0.0,0.0,0.0,0.0,0.0,0.0,0.0,0.0,0.0,0.0,0.0,0.0,0.0,0.0,0.0,0.0,0.0,0.0,0.0,0.0,0.0,0.0,0.0,0.0,0.0,0.0,0.0,0.0,0.0,0.0,0.0,0.0,0.0,0.0,0.0,0.0,0.0,0.0,0.0,0.0,0.0,0.0,0.0,0.0,0.0,0.0,0.0,0.0,0.0,0.0,0.0,0.0,0.0,0.0,0.0,0.0,0.0,0.0,0.0,0.0,0.0,0.0,0.0,0.0,0.0,0.0,0.0,0.0,0.0,0.0,0.0,0.0,0.0,0.0,0.0,0.0,0.0,0.0,0.0,0.0,0.0,0.0,0.0,0.0,0.0,0.0,0.0,0.0,0.0,0.0,0.0,0.0,0.0,0.0,0.0,0.0,0.0,0.0,0.0,0.0,0.0,0.0,2.2491,2.2121,2.1603,0.0,0.0,0.0,0.0,0.0,0.0,0.0,0.0,0.0,0.0,0.0,0.0,0.0,0.0,0.0,0.0,0.0,0.0,0.0,0.0,0.0,0.0,0.0,0.0,0.0,0.0,0.0,0.0,0.0,0.0,0.0,0.0,0.0,0.0,0.0,0.0,0.0,0.0,0.0,0.0,0.0,0.0,0.0,0.0,0.0,0.0,0.0,0.0,0.0,0.0,0.0,0.0,0.0,0.0,0.0,0.0,0.0,0.0,0.0,0.0,0.0,0.0,0.0,0.0,0.0,0.0,0.0,0.0,0.0,0.0,0.0,0.0,0.0,0.0,0.0,0.0,0.0,0.0,0.0,0.0,0.0,0.0,0.0,0.0,0.0,0.0,0.0,0.0,0.0,0.0,0.0,0.0,0.0,0.0,0.0,0.0,0.0,0.0,0.0,0.0,0.0,0.0,0.0,0.0,0.0,0.0,0.0,0.0,0.0,0.0,2.3319,2.3922,2.3335,0.0,2.2339,0.0,0.0,0.0,0.0,0.0,0.0,0.0,0.0,0.0,0.0,0.0,0.0,0.0,0.0,0.0,0.0,0.0,0.0,0.0,0.0,0.0,0.0,0.0,0.0,0.0,0.0,0.0,0.0,0.0,0.0,0.0,0.0,0.0,0.0,0.0,0.0,0.0,0.0,0.0,0.0,0.0,0.0,0.0,0.0,0.0,0.0,0.0,0.0,0.0,0.0,0.0,0.0,0.0,0.0,0.0,0.0,0.0,0.0,0.0,0.0,0.0,0.0,0.0,0.0,0.0,0.0,0.0,0.0,0.0,0.0,0.0,0.0,0.0,0.0,0.0,0.0,0.0,0.0,0.0,0.0,0.0,0.0,0.0,0.0,0.0,0.0,0.0,0.0,0.0,0.0,0.0,0.0,0.0,0.0,0.0,0.0,0.0,0.0,0.0,0.0,0.0,0.0,0.0,0.0,0.0,0.0,0.0,0.0,0.0,0.0,2.3994,2.4613,2.3278,2.2517,0.0,0.0,0.0,0.0,0.0,0.0,0.0,0.0,0.0,0.0,0.0,0.0,0.0,0.0,0.0,0.0,0.0,0.0,0.0,0.0,0.0,0.0,0.0,0.0,0.0,0.0,0.0,0.0,0.0,0.0,0.0,0.0,0.0,0.0,0.0,0.0,0.0,0.0,0.0,0.0,0.0,0.0,0.0,0.0,0.0,0.0,0.0,0.0,0.0,0.0,0.0,0.0,0.0,0.0,0.0,0.0,0.0,0.0,0.0,0.0,0.0,0.0,0.0,0.0,0.0,0.0,0.0,0.0,0.0,0.0,0.0,0.0,0.0,0.0,0.0,0.0,0.0,0.0,0.0,0.0,0.0,0.0,0.0,0.0,0.0,0.0,0.0,0.0,0.0,0.0,0.0,0.0,0.0,0.0,0.0,0.0,0.0,0.0,0.0,0.0,0.0,0.0,0.0,0.0,0.0,0.0,0.0,0.0,0.0,0.0,2.3262,2.405,2.4375,2.2997,2.2242,2.2301,0.0,0.0,0.0,0.0,0.0,0.0,0.0,0.0,0.0,0.0,0.0,0.0,0.0,0.0,0.0,0.0,0.0,0.0,0.0,0.0,0.0,0.0,0.0,0.0,0.0,0.0,0.0,0.0,0.0,0.0,0.0,0.0,0.0,0.0,0.0,0.0,0.0,0.0,0.0,0.0,0.0,0.0,0.0,0.0,0.0,0.0,0.0,0.0,0.0,0.0,0.0,0.0,0.0,0.0,0.0,0.0,0.0,0.0,0.0,0.0,0.0,0.0,0.0,0.0,0.0,0.0,0.0,0.0,0.0,0.0,0.0,0.0,0.0,0.0,0.0,0.0,0.0,0.0,0.0,0.0,0.0,0.0,0.0,0.0,0.0,0.0,0.0,0.0,0.0,0.0,0.0,0.0,0.0,0.0,0.0,0.0,0.0,0.0,0.0,0.0,0.0,0.0,0.0,0.0,0.0,0.0,0.0,0.0,0.0,2.2829,2.3154,2.321,2.2559,2.209,0.0,0.0,0.0,0.0,0.0,0.0,0.0,0.0,0.0,0.0,0.0,0.0,0.0,0.0,0.0,0.0,0.0,0.0,0.0,0.0,0.0,0.0,0.0,0.0,0.0,0.0,0.0,0.0,0.0,0.0,0.0,0.0,0.0,0.0,0.0,0.0,0.0,0.0,0.0,0.0,0.0,0.0,0.0,0.0,0.0,0.0,0.0,0.0,0.0,0.0,0.0,0.0,0.0,0.0,0.0,0.0,0.0,0.0,0.0,0.0,0.0,0.0,0.0,0.0,0.0,0.0,0.0,0.0,0.0,0.0,0.0,0.0,0.0,0.0,0.0,0.0,0.0,0.0,0.0,0.0,0.0,0.0,0.0,0.0,0.0,0.0,0.0,0.0,0.0,0.0,0.0,0.0,0.0,0.0,0.0,0.0,0.0,0.0,0.0,0.0,0.0,0.0,0.0,0.0,0.0,0.0,0.0,0.0,0.0,2.1102,2.2367,2.3097,2.3069,2.2137,2.154,0.0,0.0,0.0,0.0,0.0,0.0,0.0,0.0,0.0,0.0,0.0,0.0,0.0,0.0,0.0,0.0,0.0,0.0,0.0,0.0,0.0,0.0,0.0,0.0,0.0,0.0,0.0,0.0,0.0,0.0,0.0,0.0,0.0,0.0,0.0,0.0,0.0,0.0,0.0,0.0,0.0,0.0,0.0,0.0,0.0,0.0,0.0,0.0,0.0,0.0,0.0,0.0,0.0,0.0,0.0,0.0,0.0,0.0,0.0,0.0,0.0,0.0,0.0,0.0,0.0,0.0,0.0,0.0,0.0,0.0,0.0,0.0,0.0,0.0,0.0,0.0,0.0,0.0,0.0,0.0,0.0,0.0,0.0,0.0,0.0,0.0,0.0,0.0,0.0,0.0,0.0,0.0,0.0,0.0,0.0,0.0,0.0,0.0,0.0,0.0,0.0,0.0,0.0,0.0,0.0,0.0,0.0,0.0,0.0,2.1327,0.0,2.3519,0.0,2.2126,2.1398,0.0,0.0,0.0,0.0,0.0,0.0,0.0,0.0,0.0,0.0,0.0,0.0,0.0,0.0,0.0,0.0,0.0,0.0,0.0,0.0,0.0,0.0,0.0,0.0,0.0,0.0,0.0,0.0,0.0,0.0,0.0,0.0,0.0,0.0,0.0,0.0,0.0,0.0,0.0,0.0,0.0,0.0,0.0,0.0,0.0,0.0,0.0,0.0,0.0,0.0,0.0,0.0,0.0,0.0,0.0,0.0,0.0,0.0,0.0,0.0,0.0,0.0,0.0,0.0,0.0,0.0,0.0,0.0,0.0,0.0,0.0,0.0,0.0,0.0,0.0,0.0,0.0,0.0,0.0,0.0,0.0,0.0,0.0,0.0,0.0,0.0,0.0,0.0,0.0,0.0,0.0,0.0,0.0,0.0,0.0,0.0,0.0,0.0,0.0,0.0,0.0,0.0,0.0,0.0,0.0,0.0,0.0,0.0,2.2491,2.3069,2.429,2.4347,2.3126,2.2491,2.1823,0.0,0.0,0.0,0.0,0.0,0.0,0.0,0.0,0.0,0.0,0.0,0.0,0.0,0.0,0.0,0.0,0.0,0.0,0.0,0.0,0.0,0.0,0.0,0.0,0.0,0.0,0.0,0.0,0.0,0.0,0.0,0.0,0.0,0.0,0.0,0.0,0.0,0.0,0.0,0.0,0.0,0.0,0.0,0.0,0.0,0.0,0.0,0.0,0.0,0.0,0.0,0.0,0.0,0.0,0.0,0.0,0.0,0.0,0.0,0.0,0.0,0.0,0.0,0.0,0.0,0.0,0.0,0.0,0.0,0.0,0.0,0.0,0.0,0.0,0.0,0.0,0.0,0.0,0.0,0.0,0.0,0.0,0.0,0.0,0.0,0.0,0.0,0.0,0.0,0.0,0.0,0.0,0.0,0.0,0.0,0.0,0.0,0.0,0.0,0.0,0.0,0.0,0.0,0.0,0.0,0.0,0.0,0.0,0.0,2.3126,2.4359,2.4416,2.3154,2.2519,2.1823,0.0,0.0,0.0,0.0,0.0,0.0,0.0,0.0,0.0,0.0,0.0,0.0,0.0,0.0,0.0,0.0,0.0,0.0,0.0,0.0,0.0,0.0,0.0,0.0,0.0,0.0,0.0,0.0,0.0,0.0,0.0,0.0,0.0,0.0,0.0,0.0,0.0,0.0,0.0,0.0,0.0,0.0,0.0,0.0,0.0,0.0,0.0,0.0,0.0,0.0,0.0,0.0,0.0,0.0,0.0,0.0,0.0,0.0,0.0,0.0,0.0,0.0,0.0,0.0,0.0,0.0,0.0,0.0,0.0,0.0,0.0,0.0,0.0,0.0,0.0,0.0,0.0,0.0,0.0,0.0,0.0,0.0,0.0,0.0,0.0,0.0,0.0,0.0,0.0,0.0,0.0,0.0,0.0,0.0,0.0,0.0,0.0,0.0,0.0,0.0,0.0,0.0,0.0,0.0,0.0,0.0,0.0,0.0,0.0,2.6582,2.7355,2.6933,2.5218,2.46,2.3571,2.2102,0.0,0.0,0.0,0.0,0.0,0.0,0.0,0.0,0.0,0.0,0.0,0.0,0.0,0.0,0.0,0.0,0.0,0.0,0.0,0.0,0.0,0.0,0.0,0.0,0.0,0.0,0.0,0.0,0.0,0.0,0.0,0.0,0.0,0.0,0.0,0.0,0.0,0.0,0.0,0.0,0.0,0.0,0.0,0.0,0.0,0.0,0.0,0.0,0.0,0.0,0.0,0.0,0.0,0.0,0.0,0.0,0.0,0.0,0.0,0.0,0.0,0.0,0.0,0.0,0.0,0.0,0.0,0.0,0.0,0.0,0.0,0.0,0.0,0.0,0.0,0.0,0.0,0.0,0.0,0.0,0.0,0.0,0.0,0.0,0.0,0.0,0.0,0.0,0.0,0.0,0.0,0.0,0.0,0.0,0.0,0.0,0.0,0.0,0.0,0.0,0.0,0.0,0.0,0.0,0.0,0.0,0.0,0.0,3.2595,3.2876,3.1724,2.9083,2.841,2.6804,0.0,0.0,0.0,0.0,0.0,0.0,0.0,0.0,0.0,0.0,0.0,0.0,0.0,0.0,0.0,0.0,0.0,0.0,0.0,0.0,0.0,0.0,0.0,0.0,0.0,0.0,0.0,0.0,0.0,0.0,0.0,0.0,0.0,0.0,0.0,0.0,0.0,0.0,0.0,0.0,0.0,0.0,0.0,0.0,0.0,0.0,0.0,0.0,0.0,0.0,0.0,0.0,0.0,0.0,0.0,0.0,0.0,0.0,0.0,0.0,0.0,0.0,0.0,0.0,0.0,0.0,0.0,0.0,0.0,0.0,0.0,0.0,0.0,0.0,0.0,0.0,0.0,0.0,0.0,0.0,0.0,0.0,0.0,0.0,0.0,0.0,0.0,0.0,0.0,0.0,0.0,0.0,0.0,0.0,0.0,0.0,0.0,0.0,0.0,0.0,0.0,0.0,0.0,0.0,0.0,0.0,0.0,0.0,0.0,3.5686,3.8496,3.7625,3.2971,3.1841,2.9831,0.0,0.0,0.0,0.0,0.0,0.0,0.0,0.0,0.0,0.0,0.0,0.0,0.0,0.0,0.0,0.0,0.0,0.0,0.0,0.0,0.0,0.0,0.0,0.0,0.0,0.0,0.0,0.0,0.0,0.0,0.0,0.0,0.0,0.0,0.0,0.0,0.0,0.0,0.0,0.0,0.0,0.0,0.0,0.0,0.0,0.0,0.0,0.0,0.0,0.0,0.0,0.0,0.0,0.0,0.0,0.0,0.0,0.0,0.0,0.0,0.0,0.0,0.0,0.0,0.0,0.0,0.0,0.0,0.0,0.0,0.0,0.0,0.0,0.0,0.0,0.0,0.0,0.0,0.0,0.0,0.0,0.0,0.0,0.0,0.0,0.0,0.0,0.0,0.0,0.0,0.0,0.0,0.0,0.0,0.0,0.0,0.0,0.0,0.0,0.0,0.0,0.0,0.0,0.0,0.0,0.0,0.0,0.0,3.3785,3.8123,4.2986,4.315,3.8364,3.5836,3.277,0.0,0.0,0.0,0.0,0.0,0.0,0.0,0.0,0.0,0.0,0.0,0.0,0.0,0.0,0.0,0.0,0.0,0.0,0.0,0.0,0.0,0.0,0.0,0.0,0.0,0.0,0.0,0.0,0.0,0.0,0.0,0.0,0.0,0.0,0.0,0.0,0.0,0.0,0.0,0.0,0.0,0.0,0.0,0.0,0.0,0.0,0.0,0.0,0.0,0.0,0.0,0.0,0.0,0.0,0.0,0.0,0.0,0.0,0.0,0.0,0.0,0.0,0.0,0.0,0.0,0.0,0.0,0.0,0.0,0.0,0.0,0.0,0.0,0.0,0.0,0.0,0.0,0.0,0.0,0.0,0.0,0.0,0.0,0.0,0.0,0.0,0.0,0.0,0.0,0.0,0.0,0.0,0.0,0.0,0.0,0.0,0.0,0.0,0.0,0.0,0.0,0.0,0.0,0.0,0.0,0.0,0.0,0.0,3.5714,4.0062,4.6231,4.7822,4.4328,4.0262,3.5872,0.0,0.0,0.0,0.0,0.0,0.0,0.0,0.0,0.0,0.0,0.0,0.0,0.0,0.0,0.0,0.0,0.0,0.0,0.0,0.0,0.0,0.0,0.0,0.0,0.0,0.0,0.0,0.0,0.0,0.0,0.0,0.0,0.0,0.0,0.0,0.0,0.0,0.0,0.0,0.0,0.0,0.0,0.0,0.0,0.0,0.0,0.0,0.0,0.0,0.0,0.0,0.0,0.0,0.0,0.0,0.0,0.0,0.0,0.0,0.0,0.0,0.0,0.0,0.0,0.0,0.0,0.0,0.0,0.0,0.0,0.0,0.0,0.0,0.0,0.0,0.0,0.0,0.0,0.0,0.0,0.0,0.0,0.0,0.0,0.0,0.0,0.0,0.0,0.0,0.0,0.0,0.0,0.0,0.0,0.0,0.0,0.0,0.0,0.0,0.0,0.0,0.0,0.0,0.0,0.0,0.0,0.0,0.0,3.7616,4.1946,4.691,4.8849,4.7463,4.4518,4.0291,0.0,0.0,0.0,0.0,0.0,0.0,0.0,0.0,0.0,0.0,0.0,0.0,0.0,0.0,0.0,0.0,0.0,0.0,0.0,0.0,0.0,0.0,0.0,0.0,0.0,0.0,0.0,0.0,0.0,0.0,0.0,0.0,0.0,0.0,0.0,0.0,0.0,0.0,0.0,0.0,0.0,0.0,0.0,0.0,0.0,0.0,0.0,0.0,3.2947,0.0,0.0,0.0,0.0,0.0,0.0,0.0,0.0,0.0,0.0,0.0,0.0,0.0,0.0,0.0,0.0,0.0,0.0,0.0,0.0,0.0,0.0,0.0,0.0,0.0,0.0,0.0,0.0,0.0,0.0,0.0,0.0,0.0,0.0,0.0,0.0,0.0,0.0,0.0,0.0,0.0,0.0,0.0,0.0,0.0,0.0,0.0,0.0,0.0,0.0,0.0,0.0,0.0,0.0,0.0,0.0,0.0,0.0,0.0,4.0175,4.3835,4.8843,5.062,4.8902,4.8295,4.4691,0.0,0.0,0.0,0.0,0.0,0.0,0.0,0.0,0.0,0.0,0.0,0.0,0.0,0.0,0.0,0.0,0.0,0.0,0.0,0.0,0.0,0.0,0.0,0.0,0.0,0.0,0.0,0.0,0.0,0.0,0.0,0.0,0.0,0.0,0.0,0.0,0.0,0.0,0.0,0.0,0.0,0.0,0.0,0.0,0.0,0.0,0.0,0.0,0.0,0.0,0.0,0.0,0.0,0.0,0.0,0.0,0.0,0.0,0.0,0.0,0.0,0.0,0.0,0.0,0.0,0.0,0.0,0.0,0.0,0.0,0.0,0.0,0.0,0.0,0.0,0.0,0.0,0.0,0.0,0.0,0.0,0.0,0.0,0.0,0.0,0.0,0.0,0.0,0.0,0.0,0.0,0.0,0.0,0.0,0.0,0.0,0.0,0.0,0.0,0.0,0.0,0.0,0.0,0.0,0.0,0.0,0.0,3.8156,4.2691,4.5636,5.0784,5.2206,4.9519,5.0766,4.7752,3.9914,0.0,0.0,0.0,0.0,0.0,0.0,0.0,0.0,0.0,0.0,0.0,0.0,0.0,0.0,0.0,0.0,0.0,0.0,0.0,0.0,0.0,0.0,0.0,0.0,0.0,0.0,0.0,0.0,0.0,0.0,0.0,0.0,0.0,0.0,0.0,0.0,0.0,0.0,2.9448,3.2688,0.0,0.0,0.0,0.0,0.0,0.0,0.0,0.0,3.5215,0.0,0.0,0.0,0.0,0.0,0.0,0.0,0.0,0.0,0.0,0.0,0.0,0.0,0.0,0.0,0.0,0.0,0.0,0.0,0.0,0.0,0.0,0.0,0.0,0.0,0.0,0.0,0.0,0.0,0.0,0.0,0.0,0.0,0.0,0.0,0.0,0.0,0.0,0.0,0.0,0.0,0.0,0.0,0.0,0.0,0.0,0.0,0.0,0.0,0.0,0.0,0.0,0.0,0.0,0.0,0.0,3.4212,3.9751,4.3976,4.6757,5.0766,5.1906,4.9975,4.9475,4.6365,4.033,0.0,0.0,0.0,0.0,0.0,0.0,0.0,0.0,0.0,0.0,0.0,0.0,0.0,0.0,0.0,0.0,0.0,0.0,0.0,0.0,0.0,0.0,0.0,0.0,0.0,0.0,0.0,0.0,0.0,0.0,0.0,0.0,0.0,0.0,0.0,0.0,0.0,0.0,0.0,3.6348,3.7871,0.0,0.0,0.0,0.0,0.0,0.0,0.0,0.0,3.6756,0.0,0.0,0.0,0.0,0.0,0.0,0.0,0.0,0.0,0.0,0.0,0.0,0.0,0.0,0.0,0.0,0.0,0.0,0.0,0.0,0.0,0.0,0.0,0.0,0.0,0.0,0.0,0.0,0.0,0.0,0.0,0.0,0.0,0.0,0.0,0.0,0.0,0.0,0.0,0.0,0.0,0.0,0.0,0.0,0.0,0.0,0.0,0.0,0.0,0.0,0.0,0.0,0.0,0.0,0.0,3.6319,4.2503,4.6647,4.8559,5.1749,5.2093,4.9407,4.8092,4.4756,0.0,0.0,0.0,0.0,0.0,0.0,0.0,0.0,0.0,0.0,0.0,0.0,0.0,0.0,0.0,0.0,0.0,0.0,0.0,0.0,0.0,0.0,0.0,0.0,0.0,0.0,0.0,0.0,0.0,0.0,0.0,0.0,0.0,0.0,0.0,0.0,0.0,0.0,0.0,0.0,3.9185,4.0901,3.8764,0.0,0.0,0.0,0.0,0.0,0.0,3.9023,3.8163,0.0,0.0,0.0,0.0,0.0,0.0,0.0,0.0,0.0,0.0,0.0,0.0,0.0,0.0,0.0,0.0,0.0,0.0,0.0,0.0,0.0,0.0,0.0,0.0,0.0,0.0,0.0,0.0,0.0,0.0,0.0,0.0,0.0,0.0,0.0,0.0,0.0,0.0,0.0,0.0,0.0,0.0,0.0,0.0,0.0,0.0,0.0,0.0,0.0,0.0,0.0,0.0,0.0,0.0,0.0,3.7978,4.478,4.8866,5.0112,5.2565,5.2223,4.8748,4.686,4.3259,0.0,0.0,0.0,0.0,0.0,0.0,0.0,0.0,0.0,0.0,0.0,0.0,0.0,0.0,0.0,0.0,0.0,0.0,0.0,0.0,0.0,0.0,0.0,0.0,0.0,0.0,0.0,0.0,0.0,0.0,0.0,0.0,0.0,0.0,0.0,0.0,0.0,0.0,0.0,0.0,0.0,4.3622,4.1646,4.1581,0.0,0.0,0.0,0.0,4.1143,4.1435,0.0,0.0,0.0,0.0,0.0,0.0,0.0,0.0,0.0,0.0,0.0,0.0,0.0,0.0,0.0,0.0,0.0,0.0,0.0,0.0,0.0,0.0,0.0,0.0,0.0,0.0,0.0,0.0,0.0,0.0,0.0,0.0,0.0,0.0,0.0,0.0,0.0,0.0,0.0,0.0,0.0,0.0,0.0,0.0,0.0,0.0,0.0,0.0,0.0,0.0,0.0,0.0,0.0,0.0,0.0,0.0,3.9025,4.5139,4.9057,5.0585,5.2318,5.1715,4.85,4.6122,4.2206,0.0,0.0,0.0,0.0,0.0,0.0,0.0,0.0,0.0,0.0,0.0,0.0,0.0,0.0,0.0,0.0,0.0,0.0,0.0,0.0,0.0,0.0,0.0,0.0,0.0,0.0,0.0,0.0,0.0,0.0,0.0,0.0,0.0,0.0,0.0,0.0,0.0,0.0,0.0,0.0,0.0,4.6002,4.4512,4.537,4.5905,0.0,0.0,4.55,4.597,4.6132,0.0,0.0,0.0,0.0,0.0,0.0,0.0,0.0,0.0,0.0,0.0,0.0,0.0,0.0,0.0,0.0,0.0,0.0,0.0,0.0,0.0,0.0,0.0,0.0,0.0,0.0,0.0,0.0,0.0,0.0,0.0,0.0,0.0,0.0,0.0,0.0,0.0,0.0,0.0,0.0,0.0,0.0,0.0,0.0,0.0,0.0,0.0,0.0,0.0,0.0,0.0,0.0,0.0,0.0,0.0,3.512,4.0292,4.6801,5.0701,5.1784,5.3137,5.2626,4.9972,4.7148,4.2969,0.0,0.0,0.0,0.0,0.0,0.0,0.0,0.0,0.0,0.0,0.0,0.0,0.0,0.0,0.0,0.0,0.0,0.0,0.0,0.0,0.0,0.0,0.0,0.0,0.0,0.0,0.0,0.0,0.0,0.0,0.0,0.0,0.0,0.0,0.0,0.0,0.0,0.0,0.0,0.0,0.0,0.0,4.7831,4.8673,0.0,0.0,0.0,4.9274,5.0357,0.0,0.0,0.0,0.0,0.0,0.0,0.0,0.0,0.0,0.0,0.0,0.0,0.0,0.0,0.0,0.0,0.0,0.0,0.0,0.0,0.0,0.0,0.0,0.0,0.0,0.0,0.0,0.0,0.0,0.0,0.0,0.0,0.0,0.0,0.0,0.0,0.0,0.0,0.0,0.0,0.0,0.0,0.0,0.0,0.0,0.0,0.0,0.0,0.0,0.0,0.0,0.0,0.0,0.0,0.0,0.0,0.0,4.1337,4.813,5.1991,5.283,5.4052,5.3658,5.1414,4.882,0.0,0.0,0.0,0.0,0.0,0.0,0.0,0.0,0.0,0.0,0.0,0.0,0.0,0.0,0.0,0.0,0.0,0.0,0.0,0.0,0.0,0.0,0.0,0.0,0.0,0.0,0.0,2.1948,0.0,0.0,0.0,0.0,0.0,0.0,0.0,0.0,0.0,0.0,0.0,0.0,0.0,0.0,5.0098,5.0792,5.2139,5.3045,0.0,0.0,5.311,5.3965,5.515,5.4082,0.0,0.0,0.0,0.0,0.0,0.0,0.0,0.0,0.0,0.0,0.0,0.0,0.0,0.0,0.0,0.0,0.0,0.0,0.0,0.0,0.0,0.0,0.0,0.0,0.0,0.0,0.0,0.0,0.0,0.0,0.0,0.0,0.0,0.0,0.0,0.0,0.0,0.0,0.0,0.0,0.0,0.0,0.0,0.0,0.0,0.0,0.0,0.0,0.0,0.0,0.0,0.0,0.0,0.0,0.0,4.2005,4.8362,5.2198,5.3442,5.4691,5.4349,5.2288,5.0873,4.7322,0.0,0.0,0.0,0.0,0.0,0.0,0.0,0.0,0.0,0.0,0.0,0.0,0.0,0.0,0.0,0.0,0.0,0.0,0.0,0.0,0.0,0.0,0.0,0.0,0.0,0.0,0.0,0.0,0.0,0.0,0.0,0.0,0.0,0.0,0.0,0.0,0.0,0.0,0.0,0.0,0.0,5.232,5.2993,5.5972,5.7428,0.0,0.0,5.6952,5.6381,5.6952,5.5721,5.0714,0.0,0.0,0.0,0.0,0.0,0.0,0.0,0.0,0.0,0.0,0.0,0.0,0.0,0.0,0.0,0.0,0.0,0.0,0.0,0.0,0.0,0.0,0.0,0.0,0.0,0.0,0.0,0.0,0.0,0.0,0.0,0.0,0.0,0.0,0.0,0.0,0.0,0.0,0.0,0.0,0.0,0.0,0.0,0.0,0.0,0.0,0.0,0.0,0.0,0.0,0.0,0.0,0.0,3.6896,4.2615,4.932,5.3184,5.4139,5.5358,5.5602,5.4782,5.3549,5.0105,0.0,0.0,0.0,0.0,0.0,0.0,0.0,0.0,0.0,0.0,0.0,0.0,0.0,0.0,0.0,0.0,0.0,0.0,0.0,0.0,0.0,0.0,0.0,0.0,0.0,0.0,0.0,0.0,2.4968,2.4991,2.5542,0.0,0.0,0.0,0.0,0.0,0.0,0.0,0.0,0.0,0.0,5.5118,5.7579,5.9846,0.0,0.0,6.1465,6.1465,6.1174,6.0235,5.7871,5.2864,4.7523,0.0,0.0,0.0,0.0,0.0,0.0,0.0,0.0,0.0,0.0,0.0,0.0,0.0,0.0,0.0,0.0,0.0,0.0,0.0,0.0,0.0,0.0,0.0,0.0,0.0,0.0,0.0,0.0,0.0,0.0,0.0,0.0,0.0,0.0,0.0,0.0,0.0,0.0,0.0,0.0,0.0,0.0,0.0,0.0,0.0,0.0,0.0,0.0,0.0,0.0,0.0,0.0,3.7331,4.3274,5.0046,5.388,5.4751,5.6026,5.6563,5.6282,5.5453,5.2385,0.0,0.0,0.0,0.0,0.0,0.0,0.0,0.0,0.0,0.0,0.0,0.0,0.0,0.0,0.0,0.0,0.0,0.0,0.0,0.0,0.0,0.0,0.0,0.0,0.0,0.0,0.0,0.0,2.6341,2.5963,2.5315,0.0,0.0,0.0,0.0,0.0,0.0,0.0,0.0,0.0,0.0,5.6705,6.0267,6.2534,6.4056,6.4615,6.4486,6.4,6.3158,6.1239,5.8356,5.3997,0.0,0.0,0.0,0.0,0.0,0.0,0.0,0.0,0.0,0.0,0.0,0.0,0.0,0.0,0.0,0.0,0.0,0.0,0.0,0.0,0.0,0.0,0.0,0.0,0.0,0.0,0.0,1.5876,0.0,0.0,1.5887,0.0,0.0,0.0,0.0,0.0,0.0,0.0,0.0,0.0,0.0,0.0,0.0,0.0,0.0,0.0,0.0,0.0,0.0,0.0,0.0,0.0,0.0,3.7564,4.3942,5.0225,5.411,5.5358,5.6636,5.6944,5.6341,5.633,5.3968,4.8861,0.0,0.0,0.0,0.0,0.0,0.0,0.0,0.0,0.0,0.0,0.0,0.0,0.0,0.0,0.0,0.0,0.0,0.0,0.0,0.0,0.0,0.0,0.0,0.0,0.0,0.0,2.8476,2.8077,2.6814,0.0,0.0,0.0,0.0,0.0,0.0,0.0,0.0,0.0,0.0,5.1782,5.6684,6.0332,6.3797,6.5546,6.4315,6.4615,6.4065,6.1433,5.9123,5.664,0.0,0.0,0.0,0.0,0.0,0.0,0.0,0.0,0.0,0.0,0.0,0.0,0.0,0.0,0.0,0.0,0.0,0.0,0.0,0.0,0.0,0.0,0.0,0.0,0.0,0.0,0.0,2.1067,2.0514,0.0,0.0,0.0,0.0,0.0,0.0,0.0,0.0,0.0,0.0,0.0,3.4799,3.5834,0.0,0.0,0.0,0.0,0.0,0.0,0.0,0.0,0.0,0.0,0.0,0.0,3.7564,4.395,5.0278,5.4113,5.5387,5.6636,5.7175,5.69,5.6572,5.3388,4.703,0.0,0.0,0.0,0.0,0.0,0.0,0.0,0.0,0.0,0.0,0.0,0.0,0.0,0.0,0.0,0.0,0.0,0.0,0.0,0.0,0.0,0.0,0.0,0.0,0.0,2.9027,0.0,0.0,0.0,0.0,0.0,0.0,0.0,0.0,0.0,0.0,0.0,4.1905,4.7555,5.2411,5.704,6.1562,6.4857,6.6809,0.0,0.0,0.0,0.0,0.0,0.0,0.0,0.0,0.0,0.0,0.0,0.0,0.0,0.0,5.3257,5.0928,5.0003,4.9598,4.9835,0.0,0.0,0.0,0.0,0.0,0.0,0.0,0.0,0.0,0.0,0.0,0.0,0.0,0.0,2.4932,0.0,2.2759,0.0,0.0,0.0,0.0,0.0,0.0,0.0,0.0,3.7339,4.0017,4.1418,4.231,4.3063,0.0,4.3247,4.006,0.0,0.0,0.0,0.0,0.0,0.0,0.0,0.0,3.8347,4.432,5.0598,5.4425,5.5552,5.6831,5.7542,5.7624,5.6762,5.3567,4.7843,4.3783,3.9153,0.0,0.0,0.0,0.0,0.0,0.0,0.0,0.0,0.0,0.0,0.0,0.0,0.0,0.0,0.0,0.0,0.0,0.0,0.0,0.0,0.0,0.0,0.0,3.1239,0.0,0.0,0.0,0.0,0.0,0.0,0.0,0.0,0.0,3.8213,4.1467,4.5581,5.0242,5.4126,5.8141,6.2663,0.0,0.0,0.0,0.0,0.0,0.0,0.0,5.7611,5.8551,5.682,5.6079,5.8297,6.0037,6.1333,6.1978,0.0,0.0,5.9793,5.8632,5.8483,5.8679,5.9061,5.9458,5.9682,6.1285,6.2958,0.0,0.0,0.0,0.0,0.0,0.0,0.0,0.0,2.8791,2.7945,0.0,2.5895,0.0,0.0,0.0,0.0,0.0,2.896,0.0,0.0,4.3283,4.6633,4.806,4.85,4.8803,4.8803,4.8716,4.7375,4.464,3.8115,0.0,0.0,0.0,0.0,0.0,0.0,3.9828,4.4959,5.1236,5.4941,5.5879,5.7192,5.8062,5.8489,5.7064,5.473,5.1485,4.7979,4.3767,3.8829,3.5202,0.0,0.0,0.0,0.0,0.0,0.0,0.0,0.0,0.0,0.0,0.0,0.0,0.0,0.0,0.0,0.0,0.0,0.0,0.0,0.0,3.355,0.0,0.0,0.0,0.0,0.0,0.0,0.0,0.0,0.0,0.0,4.4269,4.6487,4.9742,5.392,0.0,0.0,0.0,0.0,6.8201,6.8298,6.8266,6.7553,6.5489,6.2858,6.1498,6.2946,0.0,0.0,6.5811,6.7887,6.9359,7.0313,7.1876,7.1901,6.7435,6.7106,6.7664,6.8019,6.8546,6.9049,6.8601,6.9546,7.1394,3.5762,0.0,0.0,0.0,0.0,3.2466,3.3741,3.4679,3.4318,3.3669,3.2803,3.1361,0.0,0.0,0.0,0.0,0.0,0.0,3.7182,4.1692,4.6066,4.879,5.0042,5.1009,5.1468,5.1439,5.1004,4.9959,4.8223,4.4915,4.0031,3.3748,0.0,0.0,0.0,0.0,4.0466,4.5627,5.1468,5.4941,5.5906,5.7707,5.8998,5.9699,5.8987,5.7688,5.581,5.232,4.8317,4.3848,3.9847,0.0,0.0,0.0,0.0,0.0,0.0,0.0,0.0,0.0,0.0,0.0,0.0,0.0,0.0,0.0,0.0,0.0,0.0,0.0,3.7612,3.98,3.9833,0.0,0.0,0.0,0.0,0.0,0.0,0.0,0.0,0.0,5.3175,5.2527,5.2993,0.0,0.0,6.086,6.493,6.7068,6.8557,6.9626,6.9788,0.0,6.8234,6.655,6.6072,6.8183,7.0182,7.2123,7.3722,7.4614,7.5128,7.5216,7.615,7.6424,7.5232,7.3718,7.2922,7.2973,7.3132,7.3236,7.3098,7.396,7.5016,4.2134,3.8166,3.6723,3.6122,3.6266,3.7781,3.9056,3.9966,3.9465,3.8897,3.8258,3.6742,3.5184,3.3625,3.2891,0.0,0.0,0.0,4.138,4.5175,4.9065,5.1489,5.2705,5.3668,5.4081,5.4052,5.3442,5.243,5.1182,5.0021,4.6505,4.0661,0.0,0.0,3.6536,3.9179,4.2781,4.7399,5.231,5.5373,5.6449,5.8688,6.0055,6.0345,6.0334,5.9483,5.7644,5.4924,5.162,4.767,4.3719,3.9444,0.0,0.0,0.0,0.0,0.0,0.0,0.0,0.0,0.0,0.0,0.0,2.4571,2.6685,0.0,0.0,0.0,3.4003,3.8098,4.2618,4.4723,0.0,0.0,0.0,0.0,0.0,0.0,0.0,4.9904,5.2786,5.5883,5.922,5.9198,5.9166,6.0008,6.1821,6.4121,6.6971,0.0,7.0241,7.1116,7.1472,7.1407,7.0662,6.9878,7.0097,7.2436,7.5043,7.722,7.8468,7.9063,7.9338,7.9372,7.9693,8.004,8.0005,7.8863,7.7597,7.6901,7.6959,7.7166,7.7166,7.7787,7.8499,4.7064,4.5886,4.2495,4.098,4.098,4.2477,4.368,4.4508,4.3986,4.3427,4.2808,4.1769,4.0411,3.8863,3.8016,0.0,4.0108,4.284,4.5553,4.8435,5.1933,5.4262,5.5536,5.6154,5.6405,5.6316,5.5649,5.4693,5.3503,5.3355,5.182,4.8832,4.2382,3.9944,4.157,4.3449,4.6156,4.9809,5.3559,5.6178,5.7557,5.9958,6.1046,6.0701,6.1224,6.0312,5.7773,5.6316,5.3997,5.0584,4.7087,4.3314,3.912,0.0,0.0,0.0,0.0,0.0,0.0,0.0,0.0,0.0,0.0,0.0,0.0,0.0,0.0,0.0,3.9523,0.0,4.7169,4.8803,0.0,0.0,0.0,4.4674,4.7396,4.9566,5.2171,5.5454,0.0,0.0,6.2955,6.5675,6.6776,6.4906,6.6971,6.8914,6.9716,7.1504,7.2767,7.2897,7.348,7.3701,7.3059,7.2859,7.3536,7.5595,7.7533,7.9077,8.0531,8.1437,8.2106,8.2302,8.2556,8.2487,8.2521,8.2278,8.1967,8.004,8.0213,8.065,8.0558,8.103,8.1455,4.8589,4.8276,4.741,4.6102,4.4683,4.5429,4.615,4.6712,4.6496,4.6324,4.6078,4.5102,4.3859,4.2501,4.1907,4.2536,4.4235,4.5807,4.7891,5.0337,5.3046,5.4743,5.5536,5.6559,5.6578,5.5649,5.4983,5.4313,5.3445,5.2543,5.1675,5.0805,4.8246,4.6469,4.5524,4.6859,4.8745,5.1149,5.4458,5.7392,5.9832,6.0923,6.1467,6.1524,6.1629,6.0686,5.8464,5.7514,5.5928,5.3466,5.0487,4.7151,4.346,3.9379,0.0,0.0,0.0,0.0,0.0,0.0,0.0,0.0,0.0,3.1045,3.4262,0.0,3.6691,0.0,4.4399,4.8688,5.1504,5.4049,0.0,0.0,5.2993,5.2832,5.4102,5.6122,5.7968,5.936,6.1993,6.438,6.5967,6.8201,6.9853,7.0403,7.1504,7.2735,7.3998,7.4548,7.5164,7.5649,7.6232,7.6556,7.5839,7.5974,7.6442,7.7701,7.8581,7.9651,8.1232,8.1825,8.2292,8.2896,8.3031,8.3031,8.3031,8.3031,8.2903,8.2419,8.2196,8.1979,8.1805,8.1897,8.1988,4.9806,4.9841,4.999,4.9324,4.8236,4.8125,4.8297,4.8707,4.8614,4.869,4.878,4.8103,4.7451,4.6728,4.6175,4.661,4.788,4.8797,5.025,5.2131,5.4047,5.528,5.5937,5.6848,5.6636,5.5387,5.4487,5.3733,5.3094,5.2397,5.2165,5.243,5.231,5.1701,5.066,5.0196,5.1066,5.3297,5.5836,5.8221,6.0285,6.0706,6.1078,6.1464,6.0948,5.9897,5.8227,5.7503,5.6251,5.4438,5.1944,4.9256,4.6342,4.218,3.7695,0.0,0.0,0.0,0.0,0.0,0.0,0.0,0.0,0.0,0.0,0.0,4.278,4.5646,4.9515,5.3026,5.5875,5.8874,6.0466,6.0043,6.0033,6.0087,6.0185,6.1792,6.3062,6.3486,6.571,6.7729,6.8868,7.1148,7.2938,7.3753,7.4729,7.5434,7.5673,7.5973,7.6362,7.6751,7.7107,7.7236,7.6848,7.7116,7.7642,7.8397,7.9236,8.0283,8.166,8.2292,8.2794,8.335,8.3516,8.3516,8.3516,8.3516,8.3516,8.3472,8.3231,8.2829,8.2373,8.2187,8.2059,5.0731,5.0802,5.1095,5.1247,5.1303,5.0411,5.0191,5.0404,5.0472,5.0625,5.0887,5.0713,5.0519,5.0358,4.9913,5.0002,5.0604,5.1215,5.2207,5.3504,5.4888,5.5876,5.6509,5.7194,5.6868,5.5503,5.4255,5.3297,5.2714,5.2655,5.2946,5.3648,5.4809,5.5445,5.5445,5.33,5.3329,5.562,5.7306,5.8689,5.9732,5.9906,6.0284,6.0897,5.9845,5.8698,5.7644,5.692,5.5895,5.4567,5.256,5.0552,4.8479,4.4609,4.0819,0.0,3.5914,0.0,0.0,0.0,0.0,0.0,0.0,0.0,0.0,4.741,4.908,5.1639,5.4438,5.7191,5.9922,6.2874,6.4729,6.485,6.5582,6.5886,6.5459,6.6509,6.7305,6.7272,6.9116,7.0657,7.1418,7.3868,7.548,7.5617,7.66,7.6997,7.6261,7.6507,7.6835,7.6811,7.6844,7.6961,7.698,7.7366,7.7911,7.8604,7.9649,8.0878,8.2048,8.2771,8.3371,8.3861,8.3989,8.3989,8.3989,8.3989,8.3989,8.3989,8.3832,8.3442,8.2783,8.2419,8.2187,5.0873,5.113,5.1176,5.1562,5.2179,5.1981,5.1743,5.1536,5.1847,5.1942,5.1824,5.1791,5.1179,5.021,5.0283,5.0352,5.0423,5.1269,5.2217,5.3263,5.5279,5.6423,5.688,5.8263,5.7971,5.6229,5.4923,5.3994,5.3326,5.283,5.3207,5.4287,5.5039,5.5678,5.6171,0.0,0.0,0.0,5.758,5.8305,5.9114,5.9148,5.9529,6.0313,5.9286,0.0,5.7623,5.6888,5.6089,5.5227,5.3738,0.0,0.0,0.0,0.0,0.0,0.0,0.0,0.0,0.0,0.0,0.0,5.1556,5.1782,5.039,5.2398,5.4276,5.5442,5.8097,6.055,6.2464,6.4724,6.6415,6.7218,6.7487,6.7764,6.8247,6.901,6.9477,6.951,7.0919,7.2164,7.2944,7.4491,7.5736,7.632,7.7085,7.7456,7.7248,7.7157,7.7032,7.6868,7.7008,7.7199,7.7417,7.7774,7.8391,7.9195,7.9905,8.1043,8.2531,8.3182,8.3697,8.4284,8.4465,8.4465,8.4465,8.4465,8.4409,8.4465,8.4299,8.3939,8.3231,8.2896,8.2857,5.106,0.0,5.1621,5.204,0.0,5.2585,5.255,5.2352,5.2585,5.2607,5.2468,5.2226,5.1589,5.071,5.0221,5.0019,5.007,5.0509,5.1488,5.2937,5.4992,5.633,5.7135,5.861,5.8435,5.681,5.5271,5.4316,5.3994,5.3355,5.3675,5.4952,5.5881,5.652,5.6839,5.6868,5.6984,5.7303,5.7751,5.8278,5.885,5.9122,5.9529,5.9946,5.9217,0.0,0.0,0.0,0.0,0.0,0.0,0.0,0.0,0.0,0.0,4.7037,4.7184,4.7184,4.6974,4.921,5.1977,5.515,5.7676,5.8194,5.611,5.803,5.9589,6.039,6.2789,6.4826,6.6044,6.784,6.9231,6.9747,7.0552,7.1111,7.121,7.2339,7.2866,7.2372,7.3394,7.435,7.435,7.5543,7.6531,7.6959,7.7591,7.7965,7.7829,7.7477,7.7172,7.7199,7.7449,7.7719,7.8019,7.8551,7.9098,7.9879,8.0775,8.1804,8.3081,8.3654,8.4053,8.4507,8.461,8.461,8.461,8.461,8.461,8.4589,8.4424,8.4194,8.3811,8.3767,8.3808,5.1376,5.1457,5.2109,5.2446,5.2515,5.2792,5.2895,5.2895,0.0,0.0,0.0,5.2589,5.2174,5.1608,5.0653,5.0227,5.0234,5.0236,5.1178,5.2936,5.4855,5.6374,5.7536,5.8958,5.8958,5.7623,5.5968,5.5041,5.4836,5.4258,5.4546,5.5591,5.6752,5.7303,5.7303,5.7303,5.7361,5.7506,5.7923,5.8335,5.8743,5.9283,5.9717,6.0045,5.9431,5.9056,5.8993,5.8194,5.7503,5.6899,5.679,5.6154,5.5021,5.4515,5.377,5.2819,5.3337,5.3823,5.4102,5.5733,5.7611,5.9663,6.2389,6.3233,6.1588,6.2809,6.4011,6.4775,6.6867,6.8461,6.9198,7.0642,7.168,7.1862,7.3276,7.3939,7.3641,7.5132,7.5669,7.4958,7.5503,7.6159,7.5794,7.6629,7.7484,7.7623,7.8093,7.8403,7.8107,7.7697,7.7555,7.7959,7.8337,7.8637,7.9079,7.9667,8.0265,8.0921,8.1886,8.2791,8.3511,8.4053,8.4382,8.4548,8.461,8.461,8.461,8.461,8.461,8.4589,8.4465,8.4376,8.4391,8.4755,8.5031,5.1925,5.2248,5.2377,5.2585,5.2826,5.2895,5.2895,5.2895,5.2895,5.3101,5.3444,5.3649,5.3343,5.2723,5.2795,5.2491,5.1961,5.2114,5.282,5.3973,5.6062,5.7419,5.8232,6.0061,6.0264,5.9016,5.8174,5.7216,5.6229,5.6055,5.6113,5.6345,5.6955,5.7332,5.7303,5.7303,5.7594,5.8145,5.7932,5.8223,5.8955,5.8991,5.9711,6.098,6.0083,5.9827,6.0439,5.9209,5.84,5.8302,5.7741,5.7341,5.7179,5.759,5.8044,5.8497,5.9198,6.0105,6.1261,6.1692,6.2593,6.4361,6.6748,6.6959,6.4226,6.4659,6.5493,6.648,6.8068,6.9255,7.0198,7.1161,7.2084,7.2846,7.3707,7.4395,7.4925,7.5794,7.6291,7.6026,7.6159,7.6589,7.6954,7.7285,7.7689,7.8153,7.8384,7.8403,7.8188,7.8052,7.8364,7.9117,7.9548,8.0106,8.0809,8.1413,8.1862,8.2621,8.2992,8.3532,8.4221,8.4445,8.4548,8.4589,8.461,8.461,8.461,8.461,8.461,8.4589,8.4548,8.4548,8.4563,8.5513,8.6325,5.2659,5.2884,5.3368,5.3668,5.3808,5.3808,5.3808,5.3808,5.3808,5.3769,5.3819,5.4309,5.4433,5.4213,5.4342,5.4076,5.3526,5.3215,5.3704,5.4878,5.6522,5.7855,5.8929,6.0467,6.0903,6.0293,5.9655,5.9016,5.8493,5.8145,5.7971,5.8,5.8261,5.8377,5.8406,5.8377,5.8523,5.8813,5.8657,5.9124,6.0303,6.0951,6.1712,6.2619,6.2069,6.179,6.1896,6.0915,6.018,5.9792,5.9846,5.9684,5.9414,6.0332,6.1077,6.1433,6.2469,6.3376,6.4024,6.4554,6.5588,6.7229,6.8331,6.8854,6.8378,6.8608,6.8927,6.9434,7.0552,7.14,7.1887,7.2961,7.378,7.427,7.5264,7.6059,7.6424,7.7086,7.7351,7.7053,7.7258,7.7484,7.7417,7.7722,7.8086,7.8451,7.8484,7.8457,7.835,7.8617,7.9034,7.971,8.0215,8.0907,8.1874,8.2395,8.2826,8.3235,8.364,8.4074,8.4527,8.461,8.461,8.461,8.461,8.461,8.461,8.461,8.461,8.461,8.461,8.461,8.4768,8.5802,8.6945,5.3313,5.3398,5.4229,5.4597,5.4597,5.4597,5.4597,5.4597,5.4597,5.4585,5.4739,5.5345,5.5832,5.6154,5.6312,5.6104,5.5506,5.4853,5.5126,5.6113,5.7216,5.8377,5.951,6.0671,6.1193,6.1135,6.0671,6.0351,6.0148,5.9742,5.9422,5.9335,5.9306,5.9306,5.9306,5.9306,5.9364,5.9481,5.962,6.0321,6.1731,6.279,6.362,6.4247,6.4232,6.3996,6.3635,6.2923,6.2275,6.1821,6.209,6.2145,6.1821,6.2761,6.3552,6.3988,6.4993,6.5772,6.6168,6.7085,6.8184,6.946,6.9796,7.0511,7.1738,7.2249,7.2282,7.2109,7.2531,7.3086,7.3409,7.4436,7.529,7.5356,7.6556,7.7258,7.7424,7.8053,7.8285,7.7821,7.8153,7.8219,7.7921,7.8153,7.8477,7.8591,7.8644,7.8697,7.8784,7.9258,7.9811,8.0399,8.0907,8.1709,8.2668,8.324,8.3546,8.374,8.4074,8.4382,8.4569,8.461,8.461,8.461,8.461,8.461,8.461,8.461,8.461,8.461,8.461,8.4717,8.5252,8.6073,8.7308,5.3698,5.3748,5.4431,5.4597,5.4718,5.4683,5.4718,5.4683,5.4622,5.5392,5.6554,5.7252,5.801,5.8774,5.9403,5.92,5.8435,5.8031,5.7942,5.8116,5.8784,5.948,6.0148,6.0845,6.1193,6.1193,6.1077,6.0758,6.0264,6.0177,5.9858,5.9364,5.9306,5.9364,5.9335,5.9335,5.9597,6.009,6.0706,6.1554,6.2518,6.3237,6.4303,6.5829,6.5861,6.5878,6.5708,6.5101,6.468,6.4583,6.4065,6.4032,6.4518,6.4745,6.548,6.6955,6.7273,6.7989,6.9477,7.0543,7.1087,7.14,7.2126,7.268,7.3028,7.4146,7.4344,7.3392,7.3086,7.3508,7.403,7.4892,7.5422,7.5555,7.6655,7.7391,7.7523,7.8053,7.8451,7.8418,7.8484,7.8484,7.8451,7.8544,7.8651,7.9036,7.9232,7.9381,7.951,8.0015,8.0814,8.1601,8.206,8.2826,8.389,8.4388,8.4347,8.4445,8.4507,8.4569,8.4589,8.461,8.461,8.461,8.461,8.461,8.461,8.461,8.461,8.4646,8.4753,8.5038,8.6251,8.6822,8.7522,5.6061,5.6112,5.6679,5.6901,5.6901,5.6901,5.6901,5.6901,5.6901,5.7616,5.8841,5.9745,6.0138,6.0318,6.1394,6.1701,6.1332,6.0756,6.0526,6.0526,6.0467,6.0555,6.0787,6.1048,6.1193,6.1193,6.1193,6.1048,6.0845,6.0787,6.0671,6.0467,6.0409,6.0438,6.0438,6.0409,6.0351,6.0265,6.1204,6.2242,6.3275,6.4284,6.5586,6.7096,6.6971,6.6744,6.6679,6.6064,6.5675,6.5619,6.5384,6.5384,6.5619,6.6209,6.7037,6.8201,6.9197,7.0083,7.0922,7.1375,7.1862,7.244,7.2837,7.3442,7.4303,7.4958,7.5157,7.5065,7.4999,7.5165,7.543,7.6092,7.6556,7.6655,7.7484,7.8053,7.8053,7.8285,7.8484,7.8517,7.8881,7.9146,7.9173,7.9281,7.9622,8.0014,8.0157,8.0191,8.0632,8.1087,8.194,8.2985,8.3231,8.3481,8.4403,8.461,8.461,8.461,8.461,8.461,8.461,8.461,8.461,8.461,8.461,8.461,8.461,8.461,8.461,8.4681,8.5145,8.5645,8.6715,8.7286,8.8028,5.8294,5.8373,5.8832,5.907,5.907,5.907,5.907,5.907,5.907,5.9638,6.064,6.1571,6.1962,6.1981,6.3072,6.3516,6.3312,6.2848,6.2529,6.2354,6.1919,6.1716,6.1716,6.1716,6.1716,6.1716,6.1745,6.1629,6.1454,6.1251,6.1193,6.1193,6.1193,6.1193,6.1193,6.1193,6.0874,6.0352,6.1439,6.2631,6.3677,6.4936,6.6438,6.796,6.7715,6.7456,6.7456,6.6971,6.6679,6.6679,6.6841,6.702,6.7101,6.7972,6.8797,6.9533,7.0896,7.1811,7.2019,7.2406,7.2911,7.3616,7.3873,7.4436,7.533,7.5728,7.6092,7.649,7.6762,7.6788,7.639,7.696,7.7358,7.7424,7.8053,7.8484,7.8484,7.8484,7.8511,7.8657,7.9241,7.9839,8.0106,8.0355,8.07,8.1131,8.109,8.1111,8.1732,8.2118,8.2787,8.3885,8.3806,8.411,8.4736,8.4717,8.4646,8.461,8.461,8.461,8.461,8.461,8.461,8.461,8.461,8.461,8.461,8.461,8.4788,8.5002,8.5431,8.618,8.7143,8.7714,8.8357,5.969,5.9799,6.0273,6.0517,6.051,6.0544,6.051,6.0544,6.0483,6.0961,6.1672,6.2409,6.3136,6.3732,6.4445,6.4561,6.4007,6.3861,6.3513,6.308,6.2964,6.2993,6.3022,6.3022,6.2964,6.2848,6.2819,6.2558,6.2006,6.1483,6.1193,6.1193,6.1193,6.1193,6.1193,6.1193,6.0845,6.0382,6.138,6.2571,6.3705,6.4936,6.6438,6.8057,6.8169,6.8169,6.8169,6.8136,6.8104,6.8104,6.8712,6.9202,6.9494,7.0189,7.0866,7.1449,7.2415,7.3028,7.3193,7.4212,7.5032,7.5223,7.5595,7.6125,7.6258,7.6788,7.7185,7.7325,7.7888,7.7722,7.6755,7.7225,7.7523,7.7523,7.8119,7.855,7.855,7.8709,7.8651,7.903,7.9822,8.0796,8.1491,8.1576,8.1859,8.2094,8.207,8.2245,8.2591,8.2941,8.3332,8.3758,8.4159,8.459,8.5425,8.5038,8.4646,8.461,8.461,8.461,8.461,8.461,8.461,8.461,8.461,8.461,8.461,8.4788,8.5053,8.5395,8.5823,8.6573,8.7536,8.7929,8.85,6.1764,6.1792,6.2014,6.2064,6.2064,6.2064,6.2064,6.2064,6.2064,6.2331,6.2797,6.3291,6.381,6.4321,6.4804,6.4851,6.4619,6.421,6.3891,6.3661,6.3283,6.314,6.314,6.314,6.314,6.314,6.3111,6.2732,6.2151,6.1861,6.1571,6.1251,6.1193,6.1193,6.1193,6.1193,6.07,5.9858,6.0852,6.2003,6.326,6.4804,6.6681,6.8747,6.8907,6.8881,6.8907,6.9367,6.9399,6.8946,6.9626,7.0111,7.0457,7.1433,7.2155,7.258,7.3326,7.403,7.4494,7.4991,7.5463,7.5927,7.6159,7.6556,7.6927,7.7258,7.7557,7.802,7.8318,7.8153,7.802,7.8351,7.8616,7.8318,7.9173,7.967,7.9411,7.9604,8.0011,8.0461,8.155,8.2993,8.3875,8.4227,8.4091,8.4063,8.3924,8.399,8.4311,8.4344,8.4429,8.5195,8.5023,8.4792,8.5639,8.5109,8.461,8.461,8.461,8.4646,8.4646,8.461,8.461,8.461,8.461,8.4681,8.4717,8.5145,8.5431,8.5894,8.6323,8.7108,8.7986,8.8392,8.8821,6.3577,6.3577,6.3577,6.3577,6.361,6.3577,6.3577,6.3577,6.3577,6.3708,6.3936,6.4163,6.4422,6.4676,6.49,6.4996,6.4967,6.4532,6.4297,6.4268,6.3893,6.369,6.369,6.369,6.369,6.3661,6.3457,6.3138,6.2732,6.2499,6.2209,6.1861,6.1803,6.1803,6.1833,6.1924,6.1401,6.0793,6.1762,6.3031,6.4069,6.5727,6.7689,6.9621,6.995,6.9723,6.936,6.9788,6.982,6.9522,7.0209,7.1006,7.1621,7.259,7.3366,7.3781,7.4262,7.4859,7.5555,7.5853,7.6192,7.6622,7.692,7.7285,7.7749,7.7954,7.8351,7.8749,7.9113,7.9212,7.9345,7.9875,7.9908,7.9212,7.9968,8.0498,8.0067,8.0399,8.1052,8.1959,8.3147,8.4642,8.598,8.5901,8.5659,8.5513,8.5344,8.5521,8.5626,8.5645,8.5502,8.6287,8.5888,8.5553,8.5894,8.5609,8.5288,8.5216,8.486,8.4768,8.486,8.4788,8.4717,8.4681,8.4681,8.4788,8.5038,8.5502,8.593,8.6394,8.7093,8.7843,8.8428,8.8892,8.9156,6.4964,6.49,6.4996,6.4868,6.4836,6.4804,6.4932,6.4868,6.4868,6.4775,6.4775,6.4932,6.49,6.4996,6.4996,6.4996,6.4967,6.4909,6.488,6.488,6.4851,6.4851,6.4822,6.4793,6.4793,6.4764,6.4299,6.3978,6.3803,6.3341,6.3051,6.3022,6.2906,6.2848,6.3022,6.3185,6.3165,6.2939,6.4128,6.5441,6.6378,6.7629,6.9243,7.0958,7.1219,7.0662,6.949,6.9522,6.9658,6.9716,7.0818,7.2026,7.3194,7.3932,7.4535,7.5065,7.529,7.5628,7.6291,7.6861,7.7192,7.7457,7.802,7.8318,7.855,7.9047,7.9444,7.9643,8.0134,8.0531,8.0631,8.1128,8.1061,7.9974,8.0432,8.0896,8.073,8.0758,8.1563,8.3384,8.448,8.5382,8.6498,8.6943,8.6657,8.6293,8.6306,8.6439,8.626,8.6394,8.643,8.6251,8.6216,8.6287,8.6287,8.6287,8.6144,8.5966,8.5395,8.5109,8.5324,8.5359,8.5324,8.5288,8.5303,8.5431,8.5752,8.6216,8.6751,8.7307,8.795,8.8392,8.8821,8.9156,8.9192,6.4996,6.4996,6.4996,6.4996,6.4996,6.4996,6.4996,6.4996,6.4996,6.4996,6.4996,6.4996,6.4996,6.4996,6.4996,6.4996,6.4996,6.4996,6.4996,6.4996,6.4996,6.4996,6.4996,6.4996,6.4996,6.4967,6.4793,6.4444,6.4036,6.3803,6.3545,6.3167,6.3109,6.314,6.3169,6.3421,6.3526,6.3713,6.4535,6.5525,6.6538,6.8169,6.9601,7.0597,7.1122,7.118,7.0824,7.1213,7.1472,7.1498,7.2591,7.3775,7.4892,7.5448,7.5761,7.596,7.5993,7.6324,7.6954,7.7292,7.7656,7.8053,7.8418,7.8749,7.9179,7.9477,7.9875,8.0266,8.0564,8.0691,8.0796,8.1359,8.1359,8.0465,8.1459,8.1923,8.1675,8.2272,8.3557,8.5053,8.5911,8.6937,8.8083,8.8424,8.7998,8.7412,8.7465,8.7508,8.7372,8.7108,8.6894,8.6644,8.6787,8.6858,8.668,8.6787,8.6929,8.668,8.618,8.568,8.5823,8.5966,8.593,8.593,8.5945,8.618,8.6501,8.6929,8.7465,8.7964,8.8464,8.8856,8.9156,8.9299,8.9299,6.4996,6.4996,6.4996,6.4996,6.4996,6.4996,6.4996,6.4996,6.4996,6.4996,6.4996,6.4996,6.4996,6.4996,6.4996,6.4996,6.4996,6.4996,6.4996,6.4996,6.4996,6.4996,6.4996,6.4996,6.4996,6.4996,6.4996,6.4793,6.4415,6.4386,6.4183,6.3864,6.3806,6.3835,6.3868,6.4275,6.4718,6.5262,6.6142,6.7069,6.8324,6.9829,7.0953,7.1619,7.2249,7.2573,7.2638,7.3166,7.3187,7.3007,7.3945,7.5095,7.5866,7.6135,7.6397,7.6689,7.6788,7.7126,7.802,7.8285,7.8517,7.9146,7.9339,7.9504,7.9968,8.02,8.0664,8.0995,8.1393,8.1492,8.1591,8.1889,8.1956,8.1591,8.2287,8.2708,8.2577,8.3501,8.4717,8.5937,8.6811,8.7912,8.889,8.9263,8.8942,8.8321,8.8357,8.8321,8.8214,8.7964,8.7679,8.7607,8.7786,8.7572,8.6965,8.7179,8.7643,8.7393,8.6965,8.6537,8.6394,8.6501,8.6537,8.6501,8.6537,8.6858,8.7179,8.7536,8.8,8.85,8.8906,8.9085,8.9299,8.9299,8.9342,6.4996,6.4996,6.4996,6.5025,6.5083,6.5083,6.517,6.517,6.5202,6.5228,6.5199,6.5318,6.5228,6.5141,6.5347,6.5318,6.5141,6.5257,6.5286,6.5257,6.5228,6.5199,6.5025,6.4996,6.4996,6.4996,6.4996,6.4967,6.488,6.488,6.4996,6.4822,6.4825,6.4938,6.492,6.5603,6.6299,6.7275,6.8495,6.9617,7.0717,7.2252,7.2923,7.3221,7.3868,7.4349,7.4399,7.4833,7.4544,7.3612,7.5148,7.6109,7.6149,7.6326,7.6994,7.759,7.759,7.8351,7.9312,7.951,7.9836,8.0366,8.0432,8.0758,8.0824,8.1194,8.1624,8.1856,8.2353,8.2751,8.2718,8.2784,8.2812,8.2945,8.3101,8.3246,8.3577,8.4568,8.5805,8.6756,8.7501,8.8272,8.931,8.9406,8.8963,8.8607,8.8821,8.8785,8.8607,8.8535,8.8714,8.8642,8.8464,8.8214,8.7607,8.8,8.8357,8.7857,8.7643,8.75,8.7179,8.7251,8.7465,8.7393,8.7286,8.7572,8.7857,8.825,8.8571,8.8906,8.9156,8.9263,8.9364,8.9428,8.9607,6.4996,6.4996,6.4996,6.5257,6.5602,6.566,6.5954,6.636,6.636,6.6302,6.636,6.6389,6.6335,6.6422,6.6393,6.6422,6.6335,6.6331,6.6389,6.6389,6.6422,6.5809,6.5141,6.4996,6.5025,6.5054,6.5112,6.4996,6.4996,6.5083,6.5054,6.4996,6.5112,6.5054,6.5092,6.575,6.6817,6.8235,6.9147,6.9937,7.0862,7.259,7.2913,7.219,7.3739,7.475,7.5066,7.5977,7.6383,7.6081,7.6879,7.7621,7.7788,7.8291,7.8649,7.8947,7.9504,7.9902,8.0266,8.0399,8.0531,8.0631,8.0956,8.0929,8.1492,8.1691,8.2088,8.2453,8.2817,8.295,8.2916,8.295,8.3261,8.3891,8.4165,8.4612,8.5612,8.6547,8.7513,8.8788,8.8908,8.93,8.9734,8.9641,8.9192,8.9035,8.9106,8.9227,8.8999,8.8963,8.9035,8.8714,8.8535,8.85,8.8535,8.8928,8.8928,8.8321,8.825,8.8535,8.8321,8.8285,8.8571,8.8749,8.8392,8.85,8.8749,8.9035,8.9227,8.9285,8.9457,8.9564,8.9628,8.9692,9.0012,6.5141,6.5373,6.5373,6.5751,6.6302,6.6331,6.6535,6.6825,6.6883,6.6883,6.6883,6.6883,6.6883,6.6883,6.6883,6.6883,6.6883,6.6883,6.6883,6.6883,6.6854,6.6447,6.5925,6.578,6.5812,6.578,6.5812,6.5841,6.5809,6.578,6.5812,6.5838,6.578,6.578,6.5932,6.6486,6.7716,6.936,7.0246,7.1017,7.2219,7.3642,7.3998,7.3636,7.4853,7.6004,7.6807,7.7555,7.781,7.7639,7.7984,7.8455,7.8954,7.9345,7.9709,8.0034,8.0498,8.0763,8.1094,8.1188,8.1459,8.1923,8.2088,8.2486,8.3049,8.3181,8.3446,8.3778,8.3811,8.3844,8.3872,8.3925,8.4564,8.5667,8.608,8.6533,8.7185,8.7958,8.8965,8.9748,8.9916,8.9824,9.0432,8.9798,8.9463,8.9263,8.9227,8.9263,8.9227,8.9285,8.9249,8.8928,8.8821,8.8856,8.8856,8.912,8.937,8.8856,8.9035,8.932,8.9249,8.912,8.9106,8.9227,8.9263,8.932,8.9342,8.9364,8.935,8.9457,8.9656,8.9944,9.0048,9.0418,9.067,6.5519,6.6009,6.598,6.6389,6.6941,6.7032,6.7086,6.7115,6.7202,6.7202,6.7202,6.7115,6.726,6.7119,6.7347,6.7144,6.7173,6.7289,6.7202,6.726,6.726,6.7144,6.7115,6.677,6.6712,6.668,6.6854,6.6767,6.6651,6.6738,6.6825,6.6709,6.6738,6.6825,6.6781,6.7451,6.8886,7.0402,7.1209,7.2363,7.3784,7.495,7.5274,7.5352,7.638,7.7625,7.8541,7.9057,7.8919,7.8425,7.8608,7.9119,7.9676,7.9742,8.014,8.073,8.1028,8.1359,8.179,8.2055,8.2552,8.348,8.3877,8.4374,8.4672,8.4738,8.4738,8.4805,8.507,8.4933,8.5015,8.534,8.6254,8.738,8.8374,8.8624,8.8596,8.9293,9.0263,9.0752,9.0649,9.0552,9.0445,9.0105,8.9606,9.0083,8.9905,8.9691,8.9584,8.9406,8.937,8.9192,8.9156,8.9227,8.9227,8.9263,8.9441,8.9427,8.982,9.007,8.9963,8.9784,8.9499,8.9392,8.9385,8.9371,8.9371,8.9393,8.9557,8.9905,9.0295,9.0545,9.0766,9.128,9.1644,6.6564,6.668,6.668,6.7057,6.7642,6.7667,6.7928,6.833,6.8363,6.8272,6.833,6.8359,6.833,6.8334,6.8272,6.8388,6.8272,6.8272,6.8421,6.8421,6.8388,6.8359,6.816,6.7463,6.6974,6.697,6.6912,6.6912,6.6941,6.7028,6.6912,6.6941,6.7086,6.6912,6.7069,6.7809,6.8882,7.0586,7.1518,7.2762,7.4294,7.5554,7.6059,7.6017,7.72,7.8278,7.9062,7.9419,7.9693,8.0019,8.0206,8.0332,8.0531,8.0929,8.1293,8.1591,8.2055,8.2419,8.2718,8.3148,8.3645,8.4076,8.4606,8.4937,8.5037,8.5202,8.5169,8.5103,8.5103,8.5384,8.5697,8.6404,8.7464,8.865,8.9778,9.0757,9.146,9.1883,9.2306,9.2739,9.2494,9.2215,9.2211,9.1426,9.1033,9.1011,9.0654,9.0319,9.0012,8.9762,8.9762,8.9798,8.9762,8.9869,8.9869,8.9905,9.0034,9.0306,9.072,9.0849,9.0707,9.0657,9.0451,8.9972,8.9457,8.95,8.9613,9.0004,9.0264,9.0588,9.1092,9.1683,9.2139,9.2461,9.2684,6.709,6.738,6.738,6.7725,6.8276,6.8334,6.8509,6.8736,6.8794,6.8794,6.8794,6.8794,6.8794,6.8794,6.8794,6.8765,6.8794,6.8794,6.8765,6.8765,6.8765,6.8765,6.8736,6.8218,6.7783,6.7783,6.7812,6.7783,6.7783,6.7754,6.787,6.7783,6.7783,6.7899,6.7949,6.8583,7.0033,7.166,7.2749,7.397,7.5459,7.6648,7.7625,7.7769,7.8684,7.9513,8.0377,8.0554,8.1034,8.1525,8.1691,8.1525,8.1293,8.1591,8.1923,8.2353,8.2618,8.3115,8.3413,8.3811,8.4275,8.497,8.5401,8.5765,8.603,8.613,8.613,8.613,8.6221,8.636,8.7036,8.7909,8.8985,9.0252,9.1246,9.2253,9.305,9.3251,9.338,9.3702,9.3152,9.2853,9.2532,9.2175,9.1783,9.1461,9.1354,9.0997,9.0997,9.0783,9.0676,9.0676,9.0569,9.0534,9.0547,9.0641,9.0783,9.1171,9.1723,9.1674,9.1575,9.1547,9.1577,9.0903,9.0221,8.995,9.0115,9.05,9.1181,9.1756,9.2377,9.3047,9.3603,9.3913,9.4128,6.7522,6.8015,6.8015,6.8334,6.8765,6.8765,6.8765,6.8794,6.8794,6.8794,6.8794,6.8794,6.8794,6.8794,6.8794,6.8794,6.8794,6.8794,6.8794,6.8794,6.8794,6.8794,6.8736,6.8678,6.862,6.8794,6.8649,6.8649,6.8649,6.8765,6.8533,6.8707,6.8736,6.8591,6.8943,6.9873,7.1034,7.2614,7.3863,7.5528,7.7144,7.8237,7.9044,7.982,8.0068,8.0641,8.1309,8.1658,8.2022,8.2817,8.2883,8.2618,8.232,8.2154,8.2453,8.3215,8.3546,8.3844,8.4208,8.454,8.5202,8.6225,8.6358,8.6623,8.7054,8.712,8.7117,8.7327,8.747,8.7955,8.8965,8.973,9.0772,9.192,9.263,9.3227,9.373,9.3812,9.3812,9.3819,9.359,9.3304,9.3018,9.271,9.2282,9.1925,9.1854,9.1783,9.1783,9.164,9.1426,9.1247,9.1105,9.1033,9.1011,9.1519,9.1662,9.2133,9.2701,9.2862,9.2734,9.2832,9.2758,9.1775,9.1139,9.1031,9.1301,9.2013,9.2633,9.3085,9.3713,9.4485,9.494,9.5329,9.5469,6.8533,6.8654,6.862,6.8707,6.8794,6.8794,6.8794,6.8794,6.8794,6.8794,6.8794,6.8794,6.8794,6.8794,6.8794,6.8794,6.8794,6.8794,6.8794,6.8794,6.8794,6.8794,6.8794,6.8794,6.8794,6.8794,6.8794,6.8794,6.8794,6.8794,6.8794,6.8794,6.8886,6.8886,6.9223,6.9936,7.1654,7.3417,7.4664,7.6448,7.8294,7.9183,7.9815,8.0691,8.0851,8.1177,8.163,8.1856,8.2121,8.2817,8.2883,8.3181,8.3513,8.3645,8.3976,8.444,8.4937,8.5037,8.5037,8.5964,8.6325,8.649,8.6722,8.7054,8.7286,8.7349,8.7434,8.79,8.8563,8.9289,8.9724,9.0814,9.1825,9.2641,9.3156,9.3603,9.3868,9.3937,9.3926,9.3959,9.3804,9.3697,9.3447,9.334,9.3139,9.2853,9.271,9.2639,9.2603,9.2246,9.1818,9.1675,9.1533,9.1497,9.1497,9.2184,9.268,9.3141,9.3719,9.443,9.4367,9.4414,9.3986,9.3341,9.2869,9.2741,9.3127,9.3579,9.4007,9.4392,9.5126,9.586,9.6129,9.6357,9.6337,6.8794,6.8794,6.8794,6.8794,6.8794,6.8794,6.8794,6.8794,6.8794,6.8794,6.8794,6.8794,6.8794,6.8794,6.8794,6.8794,6.8794,6.8794,6.8794,6.8794,6.8794,6.8794,6.8794,6.8794,6.8794,6.8794,6.8794,6.8794,6.8794,6.8794,6.8823,6.8949,6.9288,6.9665,7.0292,7.1724,7.3182,7.481,7.6202,7.774,7.9676,8.0162,8.0984,8.1563,8.179,8.2022,8.2221,8.2353,8.2718,8.3314,8.348,8.4109,8.4738,8.507,8.5103,8.5235,8.5533,8.5732,8.5666,8.6457,8.6623,8.6855,8.7153,8.7286,8.7319,8.7378,8.7607,8.8358,8.9088,9.0097,9.1066,9.189,9.2641,9.3274,9.3637,9.3799,9.3972,9.3995,9.4018,9.4018,9.3911,9.3875,9.3911,9.3875,9.3946,9.3839,9.359,9.3482,9.334,9.3018,9.2496,9.2568,9.2496,9.2519,9.2586,9.3149,9.3613,9.4086,9.4789,9.5457,9.5713,9.5579,9.5667,9.5487,9.5066,9.4405,9.4485,9.4759,9.5251,9.5743,9.6351,9.6903,9.7119,9.7297,9.7186,6.8794,6.8794,6.8794,6.8794,6.8794,6.8794,6.8794,6.8794,6.8794,6.8794,6.8794,6.8794,6.8794,6.8794,6.8794,6.8794,6.8794,6.8794,6.8794,6.8794,6.8794,6.8794,6.8794,6.8794,6.8794,6.8823,6.9026,6.891,6.8794,6.8794,6.8852,6.9283,6.9991,7.083,7.1685,7.3306,7.5212,7.6825,7.8145,7.9435,8.0527,8.1513,8.2254,8.2817,8.2883,8.2817,8.2784,8.2784,8.3215,8.3678,8.4076,8.4606,8.5894,8.6192,8.6026,8.5666,8.5666,8.603,8.6292,8.6693,8.7087,8.7186,8.7286,8.7319,8.7378,8.7523,8.7929,8.8858,8.9772,9.0761,9.199,9.2713,9.3251,9.3707,9.3914,9.4018,9.3995,9.4018,9.4018,9.4018,9.4018,9.4018,9.4018,9.4018,9.4018,9.4018,9.3768,9.3804,9.3697,9.3768,9.3495,9.3661,9.3697,9.3742,9.3913,9.4289,9.4611,9.4876,9.5695,9.6529,9.6621,9.6616,9.675,9.6861,9.6363,9.5772,9.5893,9.5998,9.6439,9.6953,9.7523,9.7743,9.7632,9.7632,9.7595,6.8794,6.8794,6.8794,6.8794,6.8794,6.8794,6.8794,6.8794,6.8794,6.8794,6.8794,6.8823,6.8852,6.8852,6.8823,6.8794,6.8823,6.8881,6.891,6.891,6.891,6.8852,6.8794,6.8794,6.8794,6.8881,6.935,6.9263,6.9055,6.8939,6.9171,6.9748,7.0593,7.1514,7.292,7.4694,7.6211,7.7908,7.8942,8.0071,8.1434,8.2325,8.2751,8.2916,8.295,8.3049,8.3148,8.3215,8.348,8.4076,8.4109,8.4771,8.5894,8.6225,8.659,8.7021,8.7488,8.7687,8.7286,8.7422,8.7521,8.7385,8.7385,8.7319,8.7607,8.8054,8.8626,8.9277,9.0449,9.1704,9.2909,9.3321,9.3685,9.3929,9.4173,9.4089,9.4018,9.4018,9.4018,9.4018,9.4018,9.4018,9.4018,9.4018,9.4018,9.4018,9.4018,9.4018,9.4063,9.4073,9.4154,9.4199,9.4209,9.4254,9.4723,9.5158,9.5684,9.5794,9.6728,9.7608,9.78,9.7839,9.7742,9.7699,9.7291,9.7051,9.6993,9.7211,9.7614,9.7817,9.7966,9.7966,9.7855,9.7929,9.8226,6.8794,6.8794,6.8794,6.8794,6.8794,6.8794,6.8794,6.8794,6.8794,6.8794,6.8881,6.9234,6.9379,6.9292,6.9031,6.906,6.9292,6.935,6.935,6.935,6.9321,6.9176,6.8852,6.8794,6.8794,6.9055,6.9408,6.9675,6.9466,6.9757,7.0076,7.0417,7.1591,7.2797,7.4109,7.6105,7.787,7.9458,8.07,8.1666,8.2335,8.2751,8.3115,8.348,8.3513,8.3711,8.401,8.4175,8.4506,8.5099,8.5264,8.5699,8.6557,8.6855,8.7021,8.7219,8.7488,8.7488,8.7385,8.765,8.7584,8.7587,8.7654,8.8084,8.8436,8.9042,8.9994,9.1337,9.2145,9.3199,9.4346,9.4953,9.4868,9.4828,9.4673,9.4388,9.4268,9.4054,9.4018,9.4018,9.4054,9.4255,9.4362,9.4349,9.4255,9.3982,9.4028,9.4118,9.4231,9.4366,9.441,9.4468,9.4499,9.4565,9.5189,9.5763,9.6675,9.7137,9.808,9.8798,9.9112,9.9142,9.8897,9.8672,9.8416,9.8248,9.8115,9.7892,9.7817,9.8003,9.8263,9.8375,9.856,9.9192,9.9452,6.8794,6.8794,6.8794,6.8794,6.8794,6.8794,6.8794,6.8794,6.8794,6.8794,6.891,6.9292,6.9583,6.9612,6.9176,6.9147,6.9762,6.982,6.9902,6.996,6.996,6.9757,6.9548,6.9345,6.9345,6.9287,7.0134,7.0372,7.0546,7.0837,7.1156,7.1115,7.241,7.3788,7.5231,7.7075,7.9002,8.0736,8.2001,8.2638,8.285,8.285,8.3347,8.3745,8.4076,8.4341,8.497,8.5037,8.5368,8.596,8.606,8.6391,8.7087,8.7219,8.7219,8.7319,8.7418,8.7518,8.7485,8.7554,8.7451,8.7687,8.815,8.878,8.9238,9.0043,9.1064,9.2439,9.3197,9.4463,9.5794,9.6184,9.5899,9.5578,9.5458,9.5066,9.4744,9.4744,9.4816,9.4994,9.5053,9.4943,9.5002,9.4859,9.4586,9.4112,9.4073,9.4267,9.4593,9.4972,9.5051,9.5195,9.5201,9.538,9.6074,9.6757,9.7571,9.8456,9.9426,9.9871,10.0071,10.003,9.9732,9.9563,9.9526,9.9303,9.9081,9.8486,9.7966,9.8375,9.8746,9.9081,9.9452,10.0121,10.0715,6.8794,6.8794,6.8794,6.8794,6.8794,6.8794,6.8794,6.8794,6.8794,6.8852,6.8997,6.8939,6.9408,6.9612,6.9437,6.935,6.9878,6.982,7.0192,7.0541,7.0593,7.0541,7.0332,7.0303,7.039,7.0541,7.0947,7.1301,7.1621,7.1847,7.2081,7.2262,7.3049,7.4481,7.5963,7.7675,7.9657,8.1287,8.2485,8.2921,8.2983,8.3082,8.3413,8.3976,8.4142,8.4341,8.507,8.5302,8.5633,8.6325,8.6391,8.659,8.7186,8.7319,8.7319,8.7319,8.7451,8.7654,8.7885,8.7753,8.7753,8.825,8.8879,8.9442,8.9837,9.018,9.1213,9.292,9.3847,9.4884,9.5887,9.6291,9.6564,9.635,9.6208,9.5993,9.5744,9.5779,9.5851,9.6065,9.6028,9.5844,9.6001,9.5948,9.5575,9.5113,9.5292,9.5504,9.5763,9.6079,9.6084,9.6133,9.6081,9.6421,9.7283,9.8041,9.8883,9.9739,10.0685,10.0851,10.0847,10.0752,10.131,10.0789,10.0789,10.0418,10.0009,9.9489,9.9118,9.9043,9.9266,9.9861,10.0418,10.105,10.1644,6.8794,6.8794,6.8794,6.8794,6.8794,6.8794,6.8794,6.8794,6.8794,6.9287,6.9897,6.9641,6.9989,7.0512,7.0337,7.0337,7.0924,7.0982,7.1127,7.1208,7.1295,7.1092,7.0918,7.0802,7.0715,7.0918,7.1353,7.1679,7.1737,7.2347,7.2882,7.3227,7.366,7.4505,7.6036,7.8025,8.0055,8.1346,8.2461,8.3049,8.3546,8.3645,8.4142,8.5264,8.5335,8.5732,8.6328,8.6428,8.6656,8.6789,8.6822,8.7054,8.7219,8.7286,8.7352,8.7418,8.7654,8.8051,8.8316,8.8217,8.8449,8.9475,8.9972,9.0237,9.0628,9.1344,9.259,9.3868,9.4794,9.5797,9.7371,9.7742,9.7742,9.7278,9.6957,9.6814,9.6707,9.6671,9.6683,9.6813,9.6713,9.6575,9.6846,9.715,9.6662,9.6253,9.6472,9.676,9.706,9.7372,9.7461,9.7523,9.7486,9.7823,9.866,9.9423,10.0184,10.1037,10.1906,10.2147,10.235,10.3316,10.3613,10.287,10.1978,10.1607,10.1161,10.0567,10.0195,9.9972,10.0344,10.0975,10.1495,10.1978,10.2498,6.8794,6.8794,6.8794,6.8794,6.8794,6.8794,6.8794,6.8794,6.8794,6.9519,7.0622,7.0134,7.0517,7.1243,7.1005,7.1034,7.1446,7.1621,7.1795,7.1876,7.1905,7.1673,7.144,7.1318,7.1434,7.1411,7.1644,7.1992,7.2056,7.2534,7.3075,7.3691,7.4322,7.4941,7.5728,7.8026,8.0176,8.1287,8.2346,8.3252,8.3877,8.401,8.4672,8.5861,8.606,8.6424,8.6921,8.7087,8.7153,8.7219,8.7253,8.7286,8.7319,8.7352,8.7418,8.7687,8.8018,8.8449,8.8846,8.9078,8.9442,9.0174,9.0825,9.122,9.1771,9.252,9.3641,9.4937,9.5885,9.6997,9.8526,9.8515,9.8373,9.7908,9.7849,9.7706,9.7528,9.7457,9.7456,9.7491,9.7578,9.7966,9.8491,9.8852,9.8321,9.7873,9.7788,9.8083,9.8439,9.8771,9.9091,9.9148,9.9148,9.9593,10.0149,10.0537,10.1056,10.2297,10.3112,10.3836,10.4319,10.5136,10.521,10.4207,10.339,10.2907,10.2387,10.1867,10.131,10.0752,10.131,10.1867,10.261,10.3056,10.3316,6.8794,6.8794,6.8794,6.8794,6.8794,6.8794,6.8794,6.8794,6.8823,6.949,7.0535,7.0105,7.057,7.1446,7.1237,7.1382,7.1702,7.1853,7.1992,7.2369,7.2427,7.2421,7.2427,7.234,7.2131,7.2485,7.2485,7.2427,7.255,7.2857,7.3375,7.4037,7.4723,7.5384,7.527,7.7608,7.9594,8.1025,8.233,8.3247,8.4085,8.4312,8.5169,8.6026,8.6391,8.6789,8.7153,8.7319,8.7319,8.7319,8.7319,8.7319,8.7319,8.7319,8.7554,8.8117,8.8283,8.9045,9.0207,9.0372,9.0505,9.0699,9.1315,9.1894,9.2301,9.3208,9.4397,9.5658,9.6441,9.7416,9.8223,9.8694,9.8622,9.8551,9.848,9.8408,9.8194,9.8194,9.8181,9.8557,9.9199,9.9807,10.0317,10.0579,10.0078,9.9653,9.9299,9.9421,9.9869,10.0204,10.0537,10.0593,10.0611,10.0815,10.1166,10.135,10.1979,10.3279,10.4207,10.4727,10.521,10.5656,10.5545,10.5173,10.4542,10.3799,10.3464,10.3149,10.2461,10.1867,10.209,10.2647,10.3464,10.391,10.3947,6.8794,6.8794,6.8794,6.8794,6.8794,6.8794,6.8794,6.8794,6.8881,6.949,7.0477,7.0453,7.1092,7.1876,7.205,7.1992,7.2166,7.2282,7.2508,7.2537,7.2631,7.2602,7.2631,7.2631,7.2631,7.2631,7.2631,7.2809,7.2992,7.3228,7.3586,7.4218,7.5265,7.6288,7.7216,7.8664,7.9795,8.152,8.2666,8.3622,8.4914,8.5317,8.5861,8.6822,8.6855,8.7021,8.7286,8.7319,8.7319,8.7319,8.7319,8.7319,8.7319,8.7319,8.762,8.8283,8.868,8.9707,9.0767,9.1198,9.1231,9.1391,9.1705,9.2365,9.2932,9.3733,9.4949,9.6088,9.692,9.7828,9.8477,9.8646,9.8658,9.8658,9.8622,9.8622,9.8539,9.8777,9.8965,9.9703,10.0422,10.0807,10.1319,10.1581,10.1284,10.1194,10.0829,10.1036,10.1444,10.1667,10.1981,10.1981,10.2018,10.2072,10.2183,10.209,10.2573,10.3762,10.4653,10.5285,10.573,10.6251,10.6251,10.6065,10.5359,10.4653,10.417,10.3724,10.3353,10.3056,10.3167,10.3241,10.3687,10.3947,10.3984,6.8794,6.8794,6.8794,6.8794,6.8794,6.8794,6.8794,6.8794,6.8823,6.9403,7.0221,7.0395,7.0889,7.1731,7.2166,7.2282,7.2311,7.2544,7.2566,7.2631,7.2631,7.2631,7.2631,7.2631,7.2631,7.2631,7.2773,7.2986,7.3192,7.3475,7.4261,7.5195,7.5866,7.7139,7.8194,7.8935,7.9532,8.1156,8.2329,8.3516,8.4919,8.5868,8.649,8.7054,8.7286,8.7319,8.7319,8.7319,8.7319,8.7319,8.7319,8.7319,8.7319,8.7418,8.7753,8.8548,8.9707,9.0569,9.1297,9.1561,9.1496,9.1561,9.1966,9.2665,9.3519,9.4392,9.5556,9.6625,9.739,9.7977,9.855,9.867,9.8694,9.8694,9.8789,9.8789,9.9289,9.9526,9.9955,10.0697,10.1362,10.1767,10.2139,10.2276,10.2297,10.2352,10.2427,10.2593,10.2648,10.2685,10.2758,10.2796,10.2758,10.2647,10.2573,10.2536,10.3204,10.4244,10.4987,10.5619,10.6455,10.6975,10.6975,10.6882,10.6102,10.5322,10.4653,10.417,10.4059,10.3984,10.4059,10.4096,10.4059,10.4133,10.4244,6.8794,6.8794,6.8794,6.8794,6.8794,6.8794,6.8794,6.8794,6.8794,6.9205,6.9815,6.9907,7.0308,7.086,7.144,7.1766,7.194,7.234,7.2544,7.2631,7.2631,7.2631,7.2631,7.2631,7.2666,7.2773,7.2951,7.3163,7.3304,7.3901,7.5051,7.61,7.6325,7.7455,7.823,7.8491,7.9211,8.0866,8.1978,8.3323,8.4844,8.5887,8.6518,8.7034,8.7226,8.7289,8.7319,8.7319,8.7319,8.7319,8.7319,8.7319,8.7319,8.7319,8.8184,8.931,9.0668,9.1297,9.1529,9.1594,9.1594,9.1656,9.2214,9.2965,9.399,9.5005,9.615,9.7151,9.7977,9.8307,9.8622,9.867,9.8694,9.8789,9.892,9.9337,9.9991,10.0472,10.0981,10.1574,10.2236,10.2691,10.3037,10.3186,10.3353,10.3056,10.2983,10.2778,10.2796,10.2685,10.2833,10.3093,10.3019,10.2944,10.2981,10.3279,10.3724,10.4727,10.521,10.5879,10.6789,10.742,10.7198,10.6919,10.6622,10.5953,10.5062,10.4839,10.4987,10.4932,10.4839,10.4932,10.495,10.4727,10.4802,6.8794,6.8794,6.8794,6.8794,6.8794,6.8794,6.8794,6.8794,6.8794,6.9176,6.982,6.982,7.0047,7.0709,7.1382,7.1621,7.1911,7.2224,7.2515,7.2631,7.2631,7.2631,7.2631,7.2666,7.2773,7.2986,7.3199,7.3516,7.397,7.449,7.5085,7.5971,7.6245,7.7129,7.76,7.7575,7.9189,8.0595,8.1565,8.2971,8.4492,8.568,8.6338,8.6801,8.7196,8.7289,8.7319,8.7319,8.7319,8.7319,8.7319,8.7319,8.7319,8.7385,8.7919,8.9343,9.0635,9.1594,9.1594,9.1594,9.1594,9.1718,9.2245,9.3436,9.4499,9.5584,9.666,9.7642,9.8307,9.8585,9.8824,9.8884,9.9015,9.9158,9.9456,10.0195,10.0883,10.1565,10.2157,10.3426,10.4022,10.4181,10.443,10.4393,10.443,10.391,10.3539,10.3316,10.3093,10.3019,10.3019,10.3316,10.365,10.3687,10.4133,10.4505,10.4765,10.5136,10.5619,10.6065,10.6696,10.7142,10.7179,10.7142,10.6994,10.6251,10.5285,10.5322,10.573,10.5582,10.5508,10.5693,10.5786,10.56,10.5526,6.8794,6.8794,6.8794,6.8794,6.8794,6.8794,6.8794,6.8794,6.8794,6.906,6.9379,6.9379,6.9612,6.9984,7.0802,7.1295,7.1353,7.2195,7.2631,7.2631,7.2631,7.2631,7.2631,7.2773,7.2951,7.3228,7.3545,7.3901,7.4352,7.4722,7.5228,7.5886,7.5916,7.6664,7.7358,7.7744,7.8539,7.9931,8.1214,8.2378,8.3771,8.5203,8.595,8.6595,8.6987,8.7259,8.7319,8.7319,8.7319,8.7319,8.7319,8.7319,8.7518,8.7786,8.8283,8.9641,9.0734,9.1461,9.1594,9.1594,9.1594,9.1749,9.2245,9.3465,9.4669,9.5747,9.7023,9.8174,9.8513,9.8777,9.8991,9.9205,9.9419,9.9633,10.0363,10.1089,10.1863,10.2629,10.3902,10.5385,10.5926,10.6044,10.6028,10.5842,10.5433,10.4802,10.443,10.4319,10.3984,10.3687,10.3613,10.3724,10.4207,10.4579,10.5099,10.547,10.5526,10.5656,10.5953,10.6399,10.6808,10.7477,10.8071,10.7922,10.7514,10.6882,10.6436,10.6288,10.6436,10.6325,10.6325,10.6566,10.6715,10.6715,10.6715,6.8794,6.8794,6.8794,6.8794,6.8794,6.8794,6.8794,6.8794,6.8794,6.8794,6.8852,6.8823,6.8881,6.9316,7.0279,7.0802,7.1237,7.2021,7.2631,7.2631,7.2631,7.2631,7.2809,7.2986,7.3234,7.348,7.3831,7.4214,7.4421,7.4757,7.5202,7.5796,7.5766,7.6275,7.7113,7.7233,7.7946,7.9073,7.9858,8.0794,8.2827,8.4283,8.5388,8.6228,8.6837,8.7319,8.7319,8.7319,8.7319,8.7319,8.7319,8.7319,8.7819,8.8515,8.9144,8.9906,9.0933,9.1395,9.1594,9.1594,9.1594,9.1813,9.2245,9.3406,9.4556,9.5692,9.6945,9.8543,9.9086,9.9491,9.974,9.9919,10.0133,10.0516,10.1175,10.2067,10.3008,10.3954,10.5274,10.6444,10.6785,10.6919,10.6771,10.6474,10.6213,10.5582,10.5285,10.521,10.4913,10.4467,10.4505,10.4467,10.4876,10.5433,10.5805,10.6083,10.612,10.6232,10.6474,10.6994,10.7625,10.8405,10.9185,10.8703,10.8145,10.8294,10.8071,10.7551,10.7105,10.7217,10.7272,10.7495,10.7643,10.7606,10.7458,6.8794,6.8794,6.8794,6.8794,6.8794,6.8794,6.8794,6.8794,6.8794,6.8794,6.8794,6.8794,6.8794,6.8997,7.0129,7.0715,7.1005,7.1928,7.2515,7.2602,7.2602,7.2809,7.3022,7.3199,7.3516,7.3935,7.4248,7.4456,7.4663,7.4864,7.4963,7.5108,7.5228,7.5736,7.6574,7.6634,7.7219,7.841,7.877,7.9958,8.2088,8.3573,8.4793,8.5826,8.6656,8.7259,8.7319,8.7319,8.7319,8.7319,8.7319,8.7554,8.8051,8.8945,8.9611,9.0273,9.1066,9.143,9.1594,9.1594,9.1594,9.1749,9.2273,9.3259,9.4329,9.5447,9.6835,9.853,9.968,10.0073,10.0525,10.0644,10.0882,10.1435,10.1975,10.3044,10.4107,10.5406,10.6608,10.7118,10.7476,10.7551,10.7439,10.7179,10.6845,10.6511,10.6213,10.6028,10.5768,10.547,10.573,10.5768,10.5842,10.6269,10.6566,10.6715,10.6715,10.69,10.7086,10.7737,10.8442,10.8888,10.9371,10.9111,10.8814,10.874,10.8442,10.7792,10.7532,10.7792,10.8071,10.822,10.8257,10.8257,10.7997,6.8794,6.8794,6.8794,6.8794,6.8794,6.8794,6.8794,6.8794,6.8794,6.8794,6.8794,6.8794,6.8794,6.8997,7.0129,7.0715,7.0947,7.2015,7.245,7.2602,7.2809,7.2986,7.3228,7.3516,7.3866,7.4248,7.449,7.4697,7.4869,7.4903,7.4903,7.4903,7.4929,7.5318,7.6096,7.636,7.6904,7.819,7.816,7.943,8.1467,8.2818,8.4251,8.539,8.6472,8.7107,8.7319,8.7319,8.7319,8.7451,8.7617,8.7852,8.8449,8.9343,9.0008,9.0505,9.1099,9.1594,9.1594,9.1594,9.1594,9.1749,9.2061,9.2935,9.3695,9.4866,9.6559,9.8181,9.9363,9.9842,10.1083,10.156,10.1953,10.2409,10.3077,10.3958,10.5334,10.6759,10.7575,10.8068,10.8442,10.8703,10.8517,10.8182,10.7811,10.7198,10.6956,10.6882,10.6585,10.6288,10.664,10.6826,10.6789,10.69,10.716,10.7272,10.7346,10.7532,10.7643,10.8386,10.9037,10.9223,10.9408,10.9483,10.9297,10.8777,10.8405,10.7922,10.8034,10.8294,10.8591,10.8814,10.8851,10.8963,10.8925,6.8794,6.8794,6.8794,6.8794,6.8794,6.8794,6.8794,6.8794,6.8794,6.8794,6.8794,6.8794,6.8794,6.92,7.0071,7.0448,7.1121,7.2108,7.2515,7.2809,7.3022,7.3269,7.3621,7.3935,7.4214,7.4456,7.4697,7.48,7.4869,7.4903,7.4903,7.4903,7.5108,7.5467,7.6365,7.6779,7.7143,7.8071,7.8543,7.9223,8.0583,8.1985,8.3541,8.5013,8.635,8.7077,8.723,8.7289,8.7289,8.7551,8.7852,8.8283,8.8816,8.9644,9.0337,9.0867,9.1231,9.1529,9.1594,9.1594,9.1594,9.1687,9.1935,9.2453,9.3288,9.4437,9.6123,9.7806,9.894,10.0252,10.1494,10.2381,10.2809,10.3283,10.3952,10.4722,10.6224,10.7653,10.8172,10.8665,10.8888,10.9148,10.9037,10.874,10.8368,10.7792,10.7606,10.7606,10.7495,10.716,10.716,10.7272,10.7235,10.7458,10.7606,10.7606,10.7606,10.7774,10.7922,10.8851,10.9686,11.0263,11.0523,11.0337,11.004,10.9223,10.8628,10.8182,10.8405,10.8777,10.9111,10.9408,10.9557,10.9668,10.9966,6.8794,6.8794,6.8794,6.8794,6.8794,6.8794,6.8794,6.8794,6.8794,6.8794,6.8823,6.8794,6.8794,6.8881,7.01,7.0744,7.1092,7.2079,7.2728,7.3122,7.3228,7.3586,7.3935,7.4214,7.449,7.4663,7.4834,7.4869,7.4903,7.4903,7.4903,7.4903,7.4903,7.5288,7.5916,7.6365,7.6874,7.7831,7.8352,7.8798,8.0051,8.1436,8.2883,8.4347,8.5735,8.6444,8.6837,8.717,8.7259,8.7518,8.7952,8.8581,8.9213,8.9975,9.0701,9.1132,9.1496,9.1529,9.1594,9.1594,9.1594,9.1625,9.1906,9.2184,9.2905,9.3533,9.549,9.7883,9.9244,10.0838,10.203,10.277,10.3323,10.3721,10.4323,10.5181,10.6349,10.7186,10.7846,10.7997,10.8015,10.8163,10.8145,10.7997,10.7997,10.7606,10.7606,10.7606,10.7606,10.7606,10.7606,10.7606,10.7606,10.7606,10.7606,10.7606,10.7643,10.7811,10.8331,10.9352,11.0429,11.158,11.1729,11.1006,11.03,10.9483,10.8963,10.8628,10.8888,10.926,10.9668,10.9946,11.0189,11.0411,11.0783]}]]